GFSSW_925_spd_000.txt.gz
Wind_Speed
18 18 18 18 18 17 16 15 13 10 10 11 11 10 12 13 11 6 10 4 7 6 9 10 11 11 13 14 13 16 13 8 8 10 10 10 6 2 7 9 4 4 8 21 24
19 18 18 18 17 16 15 15 13 10 11 12 11 11 12 12 9 14 9 3 6 8 9 12 13 14 11 13 7 9 8 10 9 10 11 9 8 8 6 10 4 5 9 25 21
19 18 18 18 16 15 15 14 12 11 12 11 10 11 11 6 6 7 3 2 4 8 12 14 11 11 16 8 11 9 3 9 9 7 4 9 4 5 6 7 10 11 9 17 19
19 19 17 17 15 15 14 13 11 12 11 10 10 11 8 0 1 9 1 3 2 6 11 14 9 14 12 11 7 3 9 7 11 2 1 7 3 4 7 7 10 12 13 16 12
15 15 15 15 15 15 13 11 11 12 12 10 10 10 2 6 2 6 6 4 5 7 13 12 14 14 9 8 8 7 5 8 8 6 1 6 3 5 6 9 4 5 12 13 12
12 13 13 13 14 13 12 12 13 13 12 9 8 7 3 10 3 1 5 9 8 13 10 7 5 5 4 7 7 8 8 9 9 6 4 4 6 4 7 9 9 6 8 12 13
10 10 11 12 12 12 13 13 14 12 8 7 8 0 7 6 2 2 3 6 6 11 7 5 10 6 3 3 2 7 9 7 7 8 5 5 8 11 10 5 9 9 8 9 13
6 8 10 11 13 15 15 13 11 8 6 7 6 2 6 1 7 5 4 6 3 4 4 2 6 9 6 8 5 9 10 10 12 9 6 7 12 15 10 10 8 10 11 10 11
4 4 8 11 13 12 10 9 7 6 6 5 3 5 6 4 6 2 4 9 4 2 2 1 6 5 2 9 9 9 10 9 9 7 1 8 5 11 8 4 8 9 10 7 7
2 5 7 8 8 9 9 8 6 5 4 4 13 7 4 2 2 2 3 5 4 3 5 6 6 8 10 8 3 10 11 6 4 9 6 10 9 9 4 6 10 11 10 11 10
3 4 6 7 9 10 10 3 5 3 10 7 10 2 6 7 6 3 3 7 6 6 10 5 8 7 12 8 7 10 7 7 14 7 3 9 8 10 6 5 5 5 7 7 16
3 4 6 8 8 8 8 6 7 6 6 4 6 5 2 4 6 7 3 6 4 11 0 5 6 8 6 7 6 6 5 6 6 5 5 8 10 11 6 9 10 9 9 14 14
3 4 7 8 8 7 11 6 5 9 5 4 5 5 2 2 6 3 8 5 8 8 5 13 10 4 4 5 8 3 6 9 8 7 8 10 6 14 11 10 11 13 14 14 12
4 6 8 10 4 7 4 2 5 7 4 7 5 4 3 1 4 2 5 5 3 5 8 8 4 3 1 5 8 3 6 5 8 7 7 13 3 13 14 12 12 12 11 10 9
5 4 5 7 11 7 3 4 5 3 3 3 5 1 4 3 5 6 2 6 2 3 4 5 4 5 4 6 6 6 5 6 8 9 10 10 6 13 16 14 13 10 9 9 10
5 3 6 2 2 4 2 3 3 3 2 5 5 7 6 3 2 4 3 5 4 3 11 7 3 7 6 4 2 6 9 9 8 9 3 11 2 6 2 12 12 9 7 7 7
7 5 2 4 3 1 2 3 3 2 6 7 9 7 8 5 6 6 5 5 3 4 5 8 6 5 7 10 5 8 8 4 2 2 3 5 2 10 11 12 12 8 10 8 6
8 5 3 3 1 2 3 6 6 3 6 8 9 10 8 6 5 1 10 9 9 12 5 7 6 5 7 7 7 5 6 3 3 4 2 4 3 8 14 11 10 9 5 5 6
11 5 5 1 1 3 5 2 6 6 7 8 10 7 5 4 2 6 12 8 8 11 7 5 7 6 7 5 8 7 5 3 1 2 1 5 17 14 11 8 9 5 0 3 4
9 8 7 4 1 3 4 5 1 7 5 10 8 3 7 7 8 5 4 5 4 9 6 4 3 5 3 3 4 5 1 2 3 2 3 8 5 7 4 6 5 7 6 6 4
5 6 5 7 3 5 4 5 1 2 8 5 2 5 5 4 3 3 5 6 7 6 6 7 4 3 5 8 8 0 2 2 3 1 2 3 2 4 7 5 5 5 6 7 7
7 5 7 10 6 7 8 2 1 7 1 4 5 4 4 4 2 5 8 8 5 5 4 4 3 2 8 5 3 3 5 3 1 1 2 1 6 7 8 11 6 7 7 10 12
6 4 5 6 4 2 3 6 3 6 7 4 2 1 2 5 3 7 8 5 5 7 4 5 2 2 7 5 3 3 3 1 6 2 3 2 3 5 14 11 11 8 9 10 9
4 3 4 5 8 10 7 7 5 4 4 2 5 4 5 5 5 6 9 4 5 7 4 3 1 2 2 5 7 7 8 8 8 3 5 6 14 14 4 6 5 8 10 11 11
3 4 7 5 5 6 10 9 10 6 4 6 5 5 7 2 6 5 11 8 4 2 1 3 3 6 8 9 9 10 11 11 12 10 8 10 13 9 10 10 15 13 13 11 10
3 2 3 6 10 8 4 6 10 8 8 7 5 7 7 6 4 6 6 4 3 3 2 5 2 3 3 4 9 12 14 14 15 14 9 12 13 7 15 12 12 11 11 12 12
2 2 2 2 4 6 5 8 9 9 4 7 7 8 12 13 13 11 11 8 6 3 4 3 2 1 2 9 9 2 4 5 4 6 9 5 8 12 10 10 12 8 10 12 12

GFSSW_925_spd_003.txt.gz
Wind_Speed
17 17 17 17 17 15 17 15 14 12 13 12 12 12 14 16 15 6 7 10 14 11 11 10 9 13 14 4 8 6 1 5 8 10 5 3 7 5 6 7 6 5 14 18 28
18 16 16 16 15 15 16 14 14 13 13 13 12 13 13 14 10 11 15 12 12 12 11 11 8 13 3 5 4 5 4 5 6 8 7 5 7 5 6 7 6 12 19 26 28
17 16 16 15 14 14 15 15 13 13 13 12 11 14 11 9 4 9 14 15 10 14 16 15 20 7 8 6 7 5 6 6 7 10 9 6 7 5 8 6 10 18 14 15 24
17 16 15 14 14 14 14 14 12 13 12 11 13 11 9 1 3 6 9 7 10 10 12 10 6 5 5 6 6 4 8 8 4 6 7 7 7 3 4 6 12 17 22 17 11
14 13 12 12 13 14 13 13 12 13 12 11 11 9 1 2 8 8 4 9 11 10 14 8 9 5 6 6 4 8 7 7 6 5 7 6 6 3 5 7 8 13 18 16 14
11 10 10 12 12 12 12 12 12 12 11 10 10 4 1 5 5 2 7 8 17 16 11 16 8 12 7 7 6 6 9 8 5 3 2 1 2 5 3 7 9 10 16 13 14
8 9 9 11 11 11 11 11 11 9 8 10 8 1 4 11 13 4 9 8 10 9 5 6 9 7 3 6 4 9 6 8 6 8 5 4 4 7 5 9 9 8 9 10 15
6 7 9 9 10 12 11 9 7 7 8 9 3 3 6 10 7 5 10 6 5 10 10 11 10 6 4 4 4 4 5 5 6 9 6 9 7 6 9 8 9 11 9 9 10
4 4 5 9 10 7 6 7 7 8 8 4 2 3 6 6 4 2 4 10 5 4 5 6 5 1 6 5 1 2 5 5 6 11 6 5 3 10 10 9 8 7 9 9 7
1 2 4 5 6 8 8 7 5 6 4 2 7 4 8 4 5 1 3 7 3 4 3 2 1 2 5 5 3 5 6 7 8 5 4 4 1 4 7 7 7 3 6 13 21
1 2 5 7 9 8 4 1 2 1 5 8 9 5 5 7 7 9 6 6 5 3 4 6 6 3 3 3 4 5 5 12 5 5 2 4 6 8 13 10 15 15 19 17 17
2 4 7 8 7 7 6 3 4 4 4 14 2 2 1 5 5 5 5 1 3 6 7 4 5 3 5 2 4 4 6 6 3 4 3 1 5 9 14 10 11 17 16 15 14
2 4 8 7 5 6 11 11 10 10 3 2 3 4 3 4 3 3 4 5 7 6 7 7 2 4 3 8 9 7 5 5 3 6 6 2 3 9 9 14 18 15 11 11 13
3 4 9 9 4 7 5 3 6 6 4 4 3 2 3 4 3 1 2 3 2 5 9 7 1 3 5 7 6 4 6 5 6 3 3 5 2 6 14 15 15 15 15 15 15
4 4 7 9 9 2 4 3 6 4 4 5 3 2 2 2 7 1 1 5 4 3 7 2 7 8 8 4 5 3 0 3 3 4 3 7 5 1 14 12 10 8 10 11 10
5 3 7 3 6 5 8 4 3 6 0 2 4 5 4 4 2 4 2 1 2 8 8 4 5 4 5 5 3 5 4 5 3 2 2 6 5 2 5 8 5 9 9 8 9
5 5 5 2 0 7 8 4 5 5 4 4 4 5 7 0 6 6 4 6 4 3 2 5 4 3 3 4 1 4 5 3 4 4 3 5 6 2 6 6 8 10 9 9 9
8 6 3 2 1 5 5 5 1 2 4 6 5 5 6 3 3 2 7 5 9 6 1 5 4 6 7 5 2 5 4 4 1 1 4 8 4 2 11 10 9 8 9 9 8
10 5 2 1 3 4 5 3 7 3 6 6 4 5 4 1 1 6 7 4 6 7 5 3 3 3 6 4 3 4 5 2 5 4 3 2 4 4 9 8 8 7 3 8 8
8 6 5 3 2 3 4 5 2 4 3 5 6 5 7 7 4 4 5 5 2 7 4 5 4 3 2 2 4 5 2 6 4 2 2 1 2 3 3 4 7 6 7 7 6
2 3 7 8 2 4 2 5 3 8 7 2 2 1 4 7 6 4 4 5 8 4 8 5 3 2 2 5 4 5 3 4 3 4 4 1 4 4 7 7 7 8 9 10 10
2 1 9 10 3 3 3 4 1 2 4 5 6 6 4 5 6 6 4 5 8 6 3 3 4 3 3 3 2 2 3 4 4 3 1 4 5 3 8 10 8 11 8 7 8
3 3 4 2 3 3 6 3 3 5 2 2 5 5 5 4 5 10 5 6 8 5 1 3 2 3 5 4 4 2 3 5 6 3 3 4 5 3 6 7 7 8 7 8 8
1 2 3 1 2 4 4 2 3 6 4 5 5 2 6 5 5 4 4 3 5 3 3 3 3 5 5 3 1 3 4 3 6 4 4 6 6 5 8 7 7 7 7 8 9
1 4 7 3 4 5 5 8 6 1 1 3 1 4 5 4 5 5 5 4 2 1 3 3 3 5 4 6 5 4 5 6 4 6 6 9 8 13 6 8 6 6 8 9 7
1 3 2 5 4 2 4 5 9 7 5 5 4 6 8 4 2 6 8 5 4 5 2 5 1 2 3 7 9 5 8 8 7 7 6 3 7 9 6 7 7 9 10 8 8
6 2 5 3 3 4 3 1 2 7 4 5 8 13 14 6 10 7 8 7 6 4 3 4 4 3 2 4 5 5 4 3 2 2 2 1 5 8 10 10 8 8 7 6 5

GFSSW_925_spd_006.txt.gz
Wind_Speed
17 18 17 16 16 17 16 14 15 13 13 12 12 14 14 13 14 8 8 13 11 13 9 6 4 6 4 3 4 3 3 2 3 4 7 6 10 4 4 8 2 1 8 22 34
19 18 17 16 16 16 15 14 13 12 13 11 12 13 10 13 11 12 22 14 11 10 13 11 5 5 3 3 4 4 3 5 7 5 6 3 7 6 6 7 6 9 12 25 35
18 19 18 16 17 16 15 14 13 12 9 10 11 9 9 10 4 9 14 20 16 17 18 9 8 4 5 1 4 2 4 5 5 9 8 7 5 3 10 3 12 19 13 16 23
18 18 17 16 16 16 14 13 12 10 8 9 9 6 8 2 4 5 8 14 18 16 13 3 3 2 4 8 6 2 3 3 4 4 4 9 7 5 4 7 17 23 23 17 13
16 16 14 13 14 14 13 12 11 8 7 8 4 6 2 2 9 7 10 10 14 12 10 6 6 7 6 4 5 7 4 5 8 7 5 5 4 5 2 10 16 18 18 16 15
14 13 13 11 12 12 12 10 9 7 6 5 4 4 1 4 4 11 14 12 13 15 11 11 8 8 7 9 6 5 8 6 6 4 3 5 1 4 3 8 15 18 15 15 16
11 11 11 10 10 11 11 9 7 5 5 3 3 1 2 12 6 11 8 13 10 17 4 7 10 3 1 7 7 9 6 4 1 3 2 5 3 3 6 11 18 16 16 15 16
8 9 9 10 10 10 9 7 6 4 4 3 1 4 6 13 14 15 7 7 6 2 5 6 5 2 4 2 5 5 6 3 4 5 2 5 6 6 6 11 13 14 13 12 11
7 8 8 8 6 6 7 6 4 2 2 1 2 3 8 12 4 8 3 5 9 4 7 9 5 3 7 4 5 7 3 3 3 7 3 3 4 6 8 9 10 5 9 8 8
5 6 6 7 7 8 7 5 1 1 2 2 2 2 7 4 5 2 3 6 2 6 7 7 6 5 5 5 2 5 4 5 7 6 4 5 3 5 4 13 11 12 14 16 15
3 4 6 8 8 8 6 3 1 2 4 7 4 4 4 5 4 3 4 4 3 5 2 6 6 3 3 4 4 3 3 7 3 5 5 7 7 6 8 17 15 16 17 16 15
4 6 9 9 8 7 5 2 2 1 5 11 11 8 15 2 2 4 1 2 2 2 3 6 2 3 4 5 5 4 7 5 5 7 5 9 10 7 9 9 16 17 15 14 14
5 7 9 10 8 6 5 8 7 9 2 3 4 4 2 2 2 2 3 2 3 2 3 6 4 2 5 7 7 5 7 3 2 2 8 15 7 9 7 10 11 10 10 11 14
5 7 10 10 5 1 4 6 5 3 4 4 3 2 3 3 3 1 3 2 5 7 7 5 6 5 5 4 1 2 2 4 3 3 6 1 4 3 6 12 13 12 11 12 13
6 7 10 12 3 5 4 9 8 2 4 4 1 3 2 2 4 2 0 4 0 3 6 4 4 6 5 0 2 3 1 2 1 3 3 2 7 5 5 8 9 7 9 8 9
7 7 8 6 5 3 9 10 1 6 1 3 4 4 2 1 1 3 2 7 2 6 6 4 2 3 1 3 1 1 1 6 4 3 3 4 5 6 4 6 5 5 7 7 8
6 7 10 2 1 5 8 3 5 5 2 3 4 4 4 2 2 4 5 6 4 5 3 5 4 5 4 4 5 8 5 4 4 4 4 4 7 1 1 5 11 9 8 8 8
9 10 4 3 2 4 4 5 2 4 4 3 5 4 4 3 6 4 3 4 6 4 3 4 4 4 6 2 1 3 5 5 4 2 3 5 3 2 6 12 10 8 8 7 8
11 6 2 2 2 3 5 3 6 6 4 6 5 5 2 2 6 6 4 2 2 1 5 4 0 2 1 2 1 3 4 4 6 3 3 1 4 3 5 6 10 7 9 6 8
10 5 3 4 2 6 5 5 3 2 2 5 6 5 4 5 4 4 2 3 2 6 1 2 4 2 3 5 5 5 2 4 4 2 1 3 3 4 5 5 7 6 8 9 9
6 3 5 6 2 5 3 5 2 3 5 4 3 4 6 7 5 3 3 3 5 4 6 2 4 4 4 3 1 5 3 5 4 3 4 2 5 5 6 8 10 7 8 9 8
5 3 4 8 3 1 2 4 3 3 4 5 3 3 5 4 5 3 3 4 7 2 3 2 5 3 1 3 1 1 3 4 4 2 2 4 4 3 6 10 13 10 9 9 9
4 2 3 1 3 2 5 4 2 2 2 2 3 3 3 4 6 3 4 2 7 4 2 2 2 3 6 6 6 4 2 5 6 3 3 5 5 3 3 8 7 10 9 7 6
3 2 4 3 1 5 2 1 2 4 3 4 3 6 5 4 6 4 3 3 4 3 2 2 3 4 6 4 3 0 2 3 5 3 4 6 6 5 6 10 7 9 8 7 6
2 4 6 3 3 3 3 3 2 2 2 4 4 3 5 4 3 4 3 2 4 3 3 3 4 2 2 3 1 1 2 1 4 4 5 7 7 6 6 7 6 8 7 7 6
3 3 2 3 6 4 4 6 9 3 3 1 2 4 6 5 6 7 7 3 4 1 3 4 2 1 0 5 6 3 5 5 4 4 4 9 5 5 5 8 6 6 6 5 3
3 1 5 3 4 4 4 6 8 8 2 3 12 7 10 2 5 5 5 6 5 5 3 4 4 3 3 5 6 5 4 3 1 4 3 6 6 6 5 6 6 5 6 5 3

GFSSW_925_spd_009.txt.gz
Wind_Speed
20 18 17 17 16 15 13 14 14 13 13 13 13 13 13 13 15 9 9 14 8 13 5 6 8 4 2 1 2 2 4 2 3 8 11 12 5 3 2 9 1 2 5 17 31
20 20 19 18 17 15 13 13 13 12 13 12 12 11 11 12 13 13 23 15 12 10 14 11 5 6 1 3 1 4 4 9 6 9 8 7 7 8 5 3 5 7 12 26 30
21 20 18 19 17 15 13 13 12 12 11 10 11 9 9 8 4 8 7 14 18 11 12 8 2 5 2 2 3 3 4 3 3 10 9 8 4 3 11 2 8 15 15 17 22
22 20 18 18 16 14 12 11 11 11 10 10 7 8 7 1 3 2 2 11 16 13 12 5 3 3 4 4 4 2 8 1 4 7 6 8 6 5 3 8 9 22 23 19 13
20 19 17 17 14 12 11 11 10 10 9 8 5 6 1 3 8 5 6 5 13 19 16 7 6 6 5 5 1 3 3 1 6 8 6 7 4 6 4 7 11 16 18 19 16
18 17 14 14 12 10 10 10 10 10 7 6 4 2 2 4 6 3 13 9 11 19 9 12 8 7 3 7 7 7 1 4 4 6 5 6 2 1 3 7 11 17 17 15 16
16 13 12 11 11 10 10 10 10 7 5 3 2 2 2 13 2 15 16 13 18 21 6 20 19 4 5 4 4 7 5 4 2 1 3 4 2 4 5 10 16 17 16 12 12
13 11 10 9 10 9 10 9 8 5 3 3 3 3 7 7 15 16 12 10 12 17 21 8 15 6 2 4 7 5 5 3 5 2 3 5 7 3 9 12 12 8 2 6 5
11 9 9 8 8 7 7 7 5 3 1 2 2 2 8 11 8 8 6 5 5 8 12 3 6 4 6 5 5 6 3 2 4 6 2 3 4 6 5 5 8 7 7 7 7
9 7 7 8 8 7 7 6 3 2 3 2 2 2 6 3 5 3 3 4 2 2 5 9 6 4 4 5 3 3 2 3 6 5 4 2 5 8 6 11 8 8 8 9 9
7 7 7 8 10 11 12 5 1 1 4 7 4 3 5 6 4 4 4 5 5 8 5 4 6 2 4 1 4 2 3 5 4 1 8 5 8 10 7 14 11 9 11 12 12
6 8 9 11 13 11 7 3 3 1 4 10 6 6 12 10 2 3 2 4 5 2 1 7 2 1 6 5 3 5 4 2 4 8 11 12 12 9 8 5 8 11 11 13 11
7 9 12 13 12 9 7 7 4 9 1 6 5 5 4 8 2 1 2 2 3 2 3 5 2 3 5 6 5 4 2 3 6 8 6 12 9 8 6 8 9 7 7 8 13
8 12 13 13 8 4 5 3 6 2 4 5 2 3 2 3 3 1 2 3 4 5 6 6 5 5 5 5 3 3 2 3 9 5 4 4 3 2 3 4 5 5 7 7 6
10 14 13 11 4 3 1 5 2 3 4 4 3 2 3 4 3 4 7 3 4 4 5 4 2 5 5 1 2 3 2 2 2 4 4 4 6 3 6 3 4 5 6 7 6
10 13 14 11 4 2 5 4 4 6 2 1 2 1 3 3 1 2 5 8 3 6 7 3 1 3 1 1 0 2 5 6 4 3 3 2 5 6 8 7 6 3 4 7 8
12 13 13 7 1 3 4 4 5 4 1 4 4 3 2 2 5 5 4 6 4 5 3 5 4 5 2 2 2 5 5 3 3 4 4 3 2 5 12 10 9 11 8 8 8
13 14 9 5 1 3 4 5 1 3 5 2 4 3 3 4 4 4 3 3 5 4 3 3 5 4 5 1 2 3 4 5 5 3 2 4 2 4 5 9 10 7 7 5 3
14 12 3 4 2 2 5 3 6 6 4 6 4 4 2 3 5 5 3 2 3 3 5 4 1 3 1 2 2 1 3 3 6 3 3 3 3 5 5 7 9 10 6 6 7
12 7 3 7 3 6 4 5 4 4 1 4 5 3 5 4 4 4 2 3 2 4 2 5 4 2 4 3 4 4 4 3 4 3 1 2 3 4 8 9 4 5 9 7 8
7 3 3 7 4 5 3 5 4 4 1 3 5 4 4 6 4 3 1 3 3 4 5 2 3 4 2 3 1 4 2 6 5 3 4 2 5 5 9 7 7 7 8 10 8
6 3 1 7 3 1 3 4 4 3 6 4 4 3 5 4 4 3 4 0 5 1 2 1 5 3 1 5 3 1 2 4 4 3 1 3 5 3 8 9 11 9 8 7 7
4 2 3 2 4 2 4 4 1 1 3 2 3 2 2 5 6 2 3 1 3 3 3 2 2 3 6 6 5 2 3 5 6 3 4 5 5 2 6 6 3 12 10 7 6
4 2 4 4 1 7 3 4 1 4 3 3 3 5 5 5 6 4 3 1 2 3 3 5 3 5 6 4 3 3 2 3 4 3 3 5 4 4 5 8 7 6 6 7 6
2 4 5 3 2 4 5 2 3 2 1 3 4 3 5 4 3 4 2 2 3 2 4 4 3 1 3 4 2 1 3 5 6 4 5 6 7 7 9 9 8 7 6 6 5
4 4 3 2 6 6 3 5 7 2 3 1 6 2 2 6 6 8 6 2 3 5 4 4 3 1 1 6 6 3 5 6 5 4 6 3 4 3 5 6 7 7 7 6 5
3 2 5 3 4 5 5 6 8 5 6 3 9 5 5 2 4 5 5 6 5 5 3 4 5 3 3 4 5 6 7 6 4 3 6 6 7 7 5 9 8 8 7 6 6

GFSSW_925_spd_012.txt.gz
Wind_Speed
19 19 20 19 20 19 18 18 15 15 14 13 13 14 15 16 17 9 9 12 3 14 5 8 7 2 2 1 2 3 4 1 4 7 4 14 2 1 1 5 4 4 4 12 25
20 19 19 20 20 20 18 17 15 14 13 12 12 12 14 14 14 14 25 13 14 7 13 7 3 4 1 1 2 4 3 7 5 6 6 22 6 6 4 4 5 4 11 24 23
20 21 20 19 19 18 17 16 14 13 12 11 10 11 11 10 5 7 6 9 13 9 10 7 3 4 2 2 3 3 5 5 5 10 7 6 6 2 11 1 6 14 13 15 18
21 22 20 18 17 17 15 14 13 11 11 10 9 9 9 3 2 3 7 9 14 12 11 6 3 3 3 3 3 1 7 6 9 10 4 9 7 4 4 5 9 18 21 17 13
21 21 18 17 15 15 13 13 12 11 10 9 8 7 3 2 9 4 6 7 17 20 15 6 5 5 5 5 6 5 4 0 4 7 5 9 5 5 3 5 11 12 17 15 13
18 19 16 15 14 14 12 12 11 10 8 7 6 4 2 3 3 5 12 3 13 23 14 11 8 7 4 4 5 6 2 3 5 7 4 7 4 3 1 7 12 15 15 12 14
16 15 14 13 12 12 11 11 10 9 7 7 4 1 3 12 2 9 18 10 17 20 7 21 14 5 3 1 2 4 6 5 5 2 4 7 4 1 3 7 14 14 8 5 6
14 14 12 11 10 10 10 10 8 6 6 5 3 3 7 5 12 16 10 7 12 20 21 9 19 4 2 1 5 6 5 4 3 2 4 5 5 8 1 11 7 7 6 7 5
14 12 10 9 9 9 9 8 6 5 3 2 2 3 8 8 7 5 6 3 3 8 7 3 10 5 5 5 5 6 2 2 2 2 3 4 2 8 6 7 6 6 6 6 5
13 10 9 8 8 10 8 5 2 1 2 1 3 2 6 3 4 3 5 4 1 3 1 4 4 4 4 5 4 5 3 0 3 2 11 8 5 7 9 7 6 7 6 6 6
11 9 7 9 9 10 12 5 2 2 5 7 3 3 4 9 6 0 3 4 4 8 2 5 8 3 3 4 4 4 3 3 2 3 8 4 6 8 8 8 8 7 7 7 6
10 7 7 11 10 12 6 4 4 2 4 10 5 6 10 3 3 2 1 3 5 2 1 7 4 2 2 4 5 5 5 3 4 5 8 8 9 7 8 4 4 6 7 7 6
9 7 8 12 12 11 9 9 4 6 1 4 5 4 3 8 4 2 2 2 2 3 5 6 2 2 2 5 6 4 5 2 6 7 6 6 6 6 5 6 6 6 3 4 6
10 9 13 17 9 7 7 4 4 6 4 5 2 4 2 4 4 2 2 4 5 5 5 5 3 4 5 6 3 2 3 3 8 4 4 3 2 1 1 2 3 1 2 4 7
13 13 17 20 3 5 2 3 3 2 4 4 3 1 2 4 5 1 6 5 4 4 4 2 2 5 6 1 3 2 5 5 3 5 5 3 5 3 4 4 6 6 5 5 4
14 15 18 17 6 5 4 1 1 6 3 2 1 1 3 4 3 3 6 8 4 6 7 3 2 4 0 3 2 3 5 7 5 3 2 3 5 4 7 8 5 4 6 5 4
16 18 24 8 3 3 2 3 5 4 1 2 3 2 4 5 6 5 5 6 3 5 4 6 4 5 2 3 3 6 6 3 4 3 4 3 3 6 11 7 10 12 8 6 2
17 17 22 11 5 2 2 5 2 3 5 1 3 3 4 3 3 5 3 3 5 5 3 4 5 3 4 2 3 2 5 5 5 3 3 3 4 4 6 8 10 6 5 7 6
17 16 6 6 8 5 6 4 6 6 3 5 4 4 2 2 5 5 3 2 2 3 5 4 1 3 1 1 3 2 2 3 6 2 2 3 4 4 4 6 7 8 7 7 6
14 10 5 8 6 3 5 4 4 4 2 3 4 3 3 3 4 3 1 2 1 2 2 5 3 2 3 2 5 2 5 3 3 2 2 3 4 4 5 8 8 7 8 8 7
6 3 3 6 5 5 4 5 5 6 4 3 5 4 2 4 3 2 1 1 1 3 4 3 4 4 1 3 1 2 2 6 5 3 4 1 5 5 10 11 10 8 8 11 11
5 3 0 6 4 1 4 5 4 3 1 2 4 3 4 3 4 3 4 1 3 1 3 1 5 2 2 2 3 2 3 4 4 3 1 3 5 3 8 8 8 9 7 6 7
4 2 3 2 4 2 3 2 3 3 2 2 3 3 3 4 5 2 3 0 3 2 5 4 2 3 6 6 4 2 3 4 6 3 4 4 5 3 5 7 5 8 7 7 7
4 2 4 4 1 8 4 3 3 1 1 4 4 5 4 3 5 5 3 2 2 3 7 6 3 5 6 4 2 3 4 4 5 3 3 6 4 5 6 7 7 8 7 7 7
2 4 4 3 2 5 5 2 2 1 2 5 4 3 5 4 3 3 2 2 4 1 4 4 4 1 2 3 2 2 4 6 6 5 5 5 7 6 11 11 9 8 7 7 7
5 4 3 1 7 7 4 7 5 2 3 1 5 2 3 5 6 8 6 3 4 4 3 3 3 0 1 4 5 3 6 6 4 4 7 4 8 6 3 8 8 10 9 7 7
3 4 5 4 4 6 6 6 7 5 3 2 5 5 4 0 4 5 6 7 5 5 3 3 5 3 4 3 5 6 9 9 5 5 6 6 8 6 4 9 12 9 9 8 7

GFSSW_925_spd_015.txt.gz
Wind_Speed
16 16 16 17 17 18 18 18 14 13 13 13 13 14 14 15 17 7 9 10 3 17 9 13 11 7 3 2 2 3 2 4 6 10 4 7 5 5 2 4 4 2 4 12 24
17 17 17 18 18 18 17 17 14 13 13 13 13 13 13 14 13 13 17 14 13 14 10 9 5 6 2 2 2 2 2 7 3 14 19 15 12 7 3 5 2 6 11 24 23
18 19 18 18 17 17 15 15 12 12 12 11 11 12 12 12 5 7 10 14 14 13 9 8 8 4 2 1 4 4 3 4 5 9 13 13 3 4 10 8 6 11 18 19 20
18 20 20 18 16 15 15 13 10 11 10 9 10 10 10 4 1 3 6 15 18 15 13 10 4 4 3 4 4 3 4 5 3 5 13 9 8 5 9 2 4 15 22 21 18
19 21 20 18 16 14 13 11 9 9 8 8 8 7 3 1 8 3 6 17 22 18 16 7 5 5 4 4 4 3 4 4 1 6 6 9 6 5 7 1 14 17 17 17 16
20 21 18 18 16 14 11 9 7 8 6 7 6 4 1 3 3 6 7 10 18 20 11 8 6 5 2 2 4 2 4 4 4 7 4 6 3 3 2 8 14 17 15 12 13
20 20 16 17 14 13 11 7 6 6 5 5 3 0 0 12 3 7 11 7 17 24 7 13 9 3 3 2 2 4 4 4 4 3 4 5 5 5 8 7 14 13 9 9 9
19 18 15 16 13 11 8 5 4 4 4 4 2 1 7 5 7 15 14 9 11 21 12 9 15 2 1 2 4 2 3 4 1 3 3 2 4 6 11 7 11 11 9 9 6
19 15 14 13 11 8 6 4 3 3 2 2 2 2 8 8 7 3 6 3 9 12 12 8 11 4 3 4 2 7 4 3 4 7 4 5 2 8 9 7 7 7 8 7 6
17 13 12 11 9 7 6 4 2 2 2 2 1 2 7 3 5 5 1 1 3 8 5 3 2 3 2 3 5 4 5 2 5 5 11 9 4 7 7 7 7 6 6 6 5
15 11 11 9 8 10 10 6 3 1 4 7 3 3 5 9 5 2 1 3 2 4 3 2 3 3 3 1 2 5 3 4 3 2 7 6 5 8 6 6 5 5 6 7 5
13 10 10 9 10 12 10 2 5 2 3 11 5 7 11 4 3 4 3 4 2 5 5 4 3 2 4 5 5 4 6 4 4 3 6 6 9 6 6 3 2 6 7 8 8
10 10 9 11 13 10 9 12 1 4 1 3 5 5 4 8 4 3 1 2 6 4 3 4 2 2 4 3 6 2 6 4 5 7 7 6 3 3 5 5 4 4 6 8 11
10 11 12 15 10 7 7 6 6 6 3 4 3 3 3 3 2 2 3 3 5 4 4 5 3 4 3 3 2 4 2 8 12 2 3 2 3 1 2 3 4 6 7 9 12
13 14 17 17 7 5 1 3 4 2 3 4 2 2 2 4 4 3 6 5 5 4 2 1 1 3 5 1 1 3 6 8 3 4 4 1 2 2 6 7 9 9 7 8 8
15 16 18 22 9 8 4 2 3 6 3 2 1 2 4 5 4 4 4 6 4 4 5 3 2 3 2 2 4 9 5 6 3 2 1 1 3 5 9 14 14 10 8 9 9
17 19 24 14 3 2 4 3 4 4 2 2 3 2 3 2 4 3 3 4 2 4 4 5 3 2 2 4 2 3 4 1 1 0 4 1 3 5 14 11 17 16 14 12 8
18 19 24 23 10 3 3 4 3 3 5 1 3 3 4 2 3 4 3 3 5 4 3 3 1 3 4 2 3 2 3 4 5 3 1 1 5 2 2 11 16 16 13 11 9
17 15 10 25 22 17 4 4 6 6 4 6 3 4 1 2 4 4 3 2 1 2 4 3 1 2 3 1 1 3 2 2 6 2 0 2 3 5 1 8 12 14 14 14 12
16 12 7 10 10 9 4 5 4 4 2 2 4 2 3 2 3 3 1 1 2 2 1 5 3 1 1 1 6 1 6 3 2 3 3 2 5 6 5 12 13 15 16 14 11
8 3 7 12 11 4 4 5 5 6 5 5 5 4 3 5 3 2 4 1 1 1 2 3 2 2 1 1 4 3 2 5 4 1 2 2 4 4 9 14 16 17 15 14 12
5 3 6 14 3 0 4 5 3 4 3 4 4 4 4 3 3 3 6 1 1 1 4 1 4 2 1 0 2 1 3 4 3 4 1 0 5 1 6 8 9 12 10 11 13
4 3 2 5 4 1 2 2 2 2 1 3 3 3 2 4 4 2 3 2 1 3 5 5 1 3 3 2 1 2 2 4 5 2 5 3 3 1 3 5 9 12 10 11 14
3 3 2 3 1 8 5 3 1 3 2 3 5 4 4 3 4 5 3 2 2 3 6 4 2 4 7 3 1 4 4 5 3 3 4 6 4 4 5 7 8 9 11 13 14
1 3 3 3 1 5 4 5 4 2 1 2 3 2 5 4 2 3 2 2 3 1 3 2 4 2 1 1 2 2 4 8 7 4 6 3 8 6 9 13 12 10 12 14 14
4 4 3 2 5 6 2 6 6 2 1 1 6 3 2 5 6 8 6 4 4 2 2 2 4 1 4 1 3 3 6 7 8 4 10 6 14 11 1 6 11 14 16 15 14
3 3 5 3 3 6 6 6 7 6 2 4 6 4 4 1 3 4 6 8 5 5 3 2 5 3 3 2 2 5 9 11 5 6 7 9 8 5 5 10 14 15 16 16 14

GFSSW_925_spd_018.txt.gz
Wind_Speed
14 15 15 15 18 18 17 18 17 15 16 16 14 13 13 15 17 7 12 11 6 11 9 13 11 11 7 7 4 3 6 8 8 11 11 12 12 6 7 2 1 2 0 11 21
14 14 15 16 18 18 17 18 15 14 14 16 13 12 13 14 14 16 19 11 8 16 13 15 13 12 7 8 5 7 6 5 5 11 17 16 12 9 6 11 6 6 10 20 21
14 15 16 17 19 18 15 17 13 14 13 15 12 11 12 10 7 3 5 10 18 17 10 9 11 9 8 7 7 6 6 4 7 11 6 7 15 9 8 10 7 11 20 19 19
15 16 16 17 17 16 14 15 12 11 13 12 10 10 10 3 1 4 8 16 20 19 11 12 10 9 8 10 10 9 7 2 11 13 10 14 11 8 8 9 4 15 20 22 17
16 17 17 17 16 14 13 13 10 10 12 10 9 8 3 5 7 7 7 23 21 16 16 12 11 8 11 11 9 12 2 3 5 6 11 9 7 2 6 6 12 20 19 18 15
16 18 17 15 15 13 11 10 8 8 10 8 8 4 3 6 1 4 8 18 14 15 12 11 5 6 4 3 10 2 4 1 4 11 6 7 5 4 9 5 14 18 16 15 15
17 18 16 14 13 11 9 8 6 9 8 7 5 2 5 10 2 8 8 7 14 17 13 14 6 5 3 4 3 7 7 5 6 12 6 6 9 6 5 5 12 15 13 12 12
17 18 16 14 11 9 6 4 6 8 7 5 2 1 7 3 4 10 11 8 9 15 12 5 8 8 6 1 4 7 7 8 6 11 4 9 12 6 3 9 13 14 12 11 9
18 17 14 12 9 6 4 4 5 6 5 2 1 2 5 3 5 6 10 4 7 10 8 2 9 5 5 8 6 7 8 8 9 2 7 7 9 5 2 10 11 11 11 10 9
17 15 12 9 6 4 4 3 4 3 3 4 5 4 8 1 2 1 7 11 4 12 8 3 4 6 6 9 9 8 8 13 12 4 8 7 6 4 4 10 11 12 10 11 11
17 13 10 8 5 8 6 3 4 5 7 6 2 5 4 9 3 5 5 9 8 6 4 6 6 6 11 8 3 6 6 11 8 4 5 5 7 4 5 8 10 11 11 11 10
16 11 9 5 7 9 6 5 6 4 5 16 12 10 11 5 3 4 3 5 2 8 2 4 4 3 5 5 4 5 9 8 5 3 4 9 6 5 4 5 6 10 11 11 9
14 11 7 8 11 9 11 15 3 7 4 4 7 6 4 8 3 6 3 4 4 3 7 8 5 2 4 6 6 4 4 10 6 7 3 9 7 8 4 5 6 6 6 8 10
14 11 9 15 7 6 8 12 15 7 4 5 4 4 5 4 4 2 2 1 2 6 5 3 3 4 6 5 3 5 1 9 13 12 8 7 7 9 7 7 7 8 9 9 11
15 12 17 16 3 6 1 3 5 3 5 6 5 4 3 5 6 3 4 2 6 6 4 3 5 5 5 2 1 3 7 9 7 4 5 10 7 8 8 9 12 11 12 13 14
16 13 20 18 7 10 3 4 5 3 4 6 5 6 7 3 3 3 2 5 3 4 3 4 2 2 3 5 2 11 10 6 3 2 6 4 7 6 8 15 15 15 14 14 14
16 15 27 11 4 4 5 6 4 6 2 7 9 7 9 5 4 3 4 7 5 8 8 6 3 4 3 9 6 6 9 4 5 6 8 2 6 11 3 4 17 19 17 16 15
16 16 27 18 8 1 4 5 6 3 7 2 5 8 9 5 3 3 7 8 2 4 8 9 7 4 2 3 3 7 6 4 5 5 4 3 6 1 1 5 11 17 18 18 17
13 15 10 18 19 3 4 5 7 5 6 8 8 13 6 5 4 5 3 5 2 1 4 5 4 4 2 2 2 5 6 2 2 1 3 6 5 10 4 8 13 19 19 19 18
14 10 13 13 17 10 5 7 5 3 3 8 12 10 12 10 8 8 8 3 4 1 3 3 3 2 4 1 6 3 8 3 3 3 4 3 6 4 6 10 15 20 20 19 18
12 5 9 17 17 6 8 9 4 6 5 9 9 7 10 9 7 9 8 4 3 4 0 5 3 5 3 6 6 4 4 1 0 2 3 3 1 3 1 8 16 19 20 19 17
11 8 12 22 8 5 11 7 3 4 4 6 4 5 11 10 8 7 9 2 3 3 4 3 1 4 6 4 2 3 4 7 4 4 0 2 4 3 1 3 10 16 18 17 16
8 4 5 7 9 6 5 7 4 5 6 8 8 3 3 7 4 5 5 2 3 4 5 6 4 4 5 5 5 7 8 4 5 1 6 3 2 3 2 5 8 13 15 14 15
8 8 5 6 3 15 12 13 10 3 3 3 4 3 6 4 1 7 7 3 3 2 3 2 3 5 7 1 1 6 11 11 10 4 4 9 9 7 7 7 7 11 14 16 16
5 7 10 10 9 14 16 13 15 6 4 5 3 6 7 5 5 5 5 5 4 4 2 3 5 4 1 1 3 4 8 13 15 13 8 7 11 7 6 9 9 9 12 15 16
7 5 4 14 13 13 12 11 16 7 6 7 6 8 6 5 7 10 9 7 4 6 4 1 2 1 3 2 2 7 11 12 16 16 14 18 19 14 9 7 8 11 14 16 17
5 2 9 4 12 13 10 14 14 11 2 2 7 7 5 3 4 8 7 7 5 6 5 2 5 4 2 2 2 6 15 17 13 12 14 13 15 4 6 8 10 11 14 16 17

GFSSW_925_spd_021.txt.gz
Wind_Speed
15 15 15 15 15 17 17 17 17 18 16 17 16 16 16 19 22 15 15 12 11 18 10 10 17 16 13 13 11 12 10 14 11 6 12 13 9 3 7 6 5 3 5 9 16
15 16 15 15 17 17 16 16 16 17 15 15 15 16 16 19 20 26 21 18 16 14 13 17 16 16 12 13 9 11 12 16 5 8 3 14 13 13 10 10 8 8 10 19 19
15 17 15 16 16 17 15 15 16 16 14 14 15 14 15 14 11 3 9 14 15 18 15 15 12 13 16 10 13 14 14 5 3 19 17 15 7 10 6 8 14 12 15 17 17
15 17 16 17 17 16 15 14 14 14 13 13 12 12 14 7 4 9 7 10 19 17 13 11 11 13 13 12 13 13 12 4 4 4 7 5 13 16 23 7 6 15 17 16 13
16 16 18 17 16 15 14 13 12 11 11 11 10 11 7 7 12 9 2 17 20 14 13 11 11 13 11 12 14 10 3 3 4 5 12 8 7 20 16 14 15 18 17 16 14
15 16 18 16 16 14 13 12 11 9 10 9 7 6 5 10 2 3 11 17 15 16 13 13 8 8 8 6 10 8 8 5 7 7 13 7 3 12 9 14 15 17 17 15 14
15 15 18 16 15 13 11 10 9 9 9 7 5 4 8 15 2 5 9 10 11 14 11 10 10 8 3 7 7 5 6 9 9 10 8 6 9 9 7 13 15 16 15 14 13
16 15 18 15 14 11 7 7 8 8 7 5 2 2 8 4 8 9 10 8 11 13 13 5 7 10 7 4 6 8 9 10 8 15 6 14 11 9 7 12 16 17 15 14 14
16 16 17 14 13 9 5 7 7 7 5 2 1 4 6 4 9 7 13 7 8 9 8 5 7 8 5 10 7 6 13 13 9 13 9 14 13 11 10 11 15 14 14 13 13
17 16 16 13 9 6 6 5 8 1 1 2 8 6 10 6 1 3 7 9 5 9 9 7 8 7 8 10 8 16 17 12 13 11 12 11 12 9 11 14 14 15 15 14 13
17 17 14 10 8 7 4 2 6 6 7 11 4 8 3 5 6 9 7 9 7 12 8 8 2 9 8 12 8 10 6 10 12 5 10 10 8 11 11 13 14 15 15 15 14
17 16 13 8 7 8 6 8 8 6 8 21 18 11 12 5 6 8 10 10 7 9 4 5 12 6 2 4 4 3 5 12 8 9 7 9 10 10 12 14 15 14 13 14 13
17 15 11 6 6 8 13 15 2 12 6 10 12 10 7 10 10 12 10 10 12 15 6 10 8 0 4 8 10 4 5 7 10 12 14 10 14 14 11 8 8 10 13 14 14
18 15 10 10 6 9 9 11 14 5 5 11 8 7 8 7 9 2 4 3 10 7 4 6 8 10 1 3 3 9 2 8 4 12 14 17 12 17 16 15 13 14 12 11 13
19 16 14 15 4 7 3 0 2 4 5 15 11 6 5 10 13 8 3 5 12 3 5 3 10 11 12 2 5 13 4 6 8 13 7 17 9 11 17 15 15 13 14 13 13
20 18 13 14 9 10 3 2 4 5 6 8 9 10 11 11 8 12 9 4 3 10 15 9 5 4 7 2 3 4 4 5 7 11 7 15 12 13 13 14 15 14 13 14 16
22 19 22 13 4 4 6 5 5 11 7 11 14 11 14 10 13 11 14 11 10 11 12 12 10 5 4 6 4 8 8 7 8 6 9 2 7 12 9 7 10 17 17 16 16
21 19 20 17 11 3 8 7 11 15 11 5 15 13 12 10 13 16 11 15 12 14 11 12 10 12 8 11 4 9 12 7 6 7 11 6 7 2 9 3 5 17 17 17 17
20 14 11 19 19 5 8 9 14 9 10 10 12 13 12 10 5 14 17 16 16 14 13 9 7 6 1 3 6 5 9 6 5 1 6 11 17 11 6 5 8 16 17 18 18
19 9 20 15 21 10 8 15 21 3 6 11 15 15 14 14 10 13 13 7 5 4 5 2 3 3 5 4 6 8 3 4 6 5 9 7 7 0 6 5 9 15 18 18 18
21 6 15 23 23 7 11 17 19 8 8 11 16 12 13 12 14 15 11 7 6 7 6 6 7 6 4 10 10 7 9 7 5 3 4 4 2 8 3 2 9 12 17 18 18
20 11 22 33 11 11 14 22 9 11 8 8 7 9 12 11 12 11 13 6 8 6 10 4 4 7 11 5 5 10 8 10 5 6 2 3 7 3 4 2 7 9 13 16 18
13 8 16 26 13 12 19 23 13 11 11 12 11 8 9 10 10 11 9 5 3 7 4 6 7 7 7 6 8 9 10 9 4 1 7 3 3 6 5 4 5 9 13 15 18
12 10 6 9 16 19 23 21 18 8 8 12 12 9 10 7 6 8 8 4 4 3 3 1 11 10 10 5 3 11 13 11 12 7 9 11 13 6 9 7 6 8 10 15 17
13 12 14 16 18 20 23 18 22 13 10 13 11 15 12 8 9 7 9 6 5 5 5 4 8 12 14 6 6 9 9 12 16 16 14 12 14 8 8 6 8 7 9 13 14
11 12 14 18 24 19 21 23 24 19 15 15 11 16 13 9 11 10 11 9 7 9 8 5 4 2 5 8 8 11 12 14 14 16 17 18 17 15 10 8 6 8 8 11 13
15 10 13 16 24 18 17 21 23 16 2 4 13 9 11 6 7 9 9 4 3 7 9 5 4 4 3 4 5 6 15 16 17 16 13 15 16 13 7 5 8 8 7 10 12

GFSSW_925_spd_024.txt.gz
Wind_Speed
18 18 18 15 15 18 19 20 19 17 17 16 15 19 20 22 26 14 13 14 9 16 13 10 13 17 17 15 18 17 11 13 21 17 6 15 22 10 13 10 5 5 2 21 26
18 17 18 17 16 18 19 18 17 18 15 14 14 17 19 21 21 21 21 16 19 15 11 14 12 15 12 14 14 12 11 20 1 10 7 6 21 22 2 8 11 18 20 22 22
17 17 18 18 17 17 18 17 17 16 14 14 14 16 18 16 11 1 3 11 17 15 19 13 13 12 13 16 15 16 16 12 6 18 8 8 17 5 11 8 9 2 19 17 20
16 16 17 18 19 17 18 17 16 15 13 12 14 14 14 7 4 6 3 7 13 11 14 20 12 10 14 16 14 15 16 15 5 11 12 9 12 19 11 8 10 7 18 18 17
17 17 17 17 19 17 17 16 15 13 12 11 13 10 8 7 9 6 2 11 14 10 15 13 10 11 15 15 11 13 13 4 7 4 19 20 16 13 13 14 9 10 13 13 15
17 17 17 17 19 16 17 16 13 12 13 11 12 5 6 9 4 6 5 14 11 11 13 12 10 10 11 13 13 8 11 6 5 7 3 14 17 10 11 13 14 16 14 13 13
17 17 17 17 19 16 16 14 12 11 11 10 8 4 10 13 7 3 8 9 11 15 11 8 12 7 6 8 6 5 7 3 5 11 7 19 13 10 19 19 15 16 13 10 12
17 17 18 17 20 16 15 13 10 11 11 8 4 3 8 6 10 12 10 7 9 9 15 12 9 9 11 13 3 7 2 8 10 5 5 6 2 9 13 15 15 17 14 13 11
18 17 17 17 19 16 14 11 10 11 8 2 4 5 7 2 10 14 13 11 4 8 12 7 4 10 12 7 8 3 7 12 9 17 11 10 7 10 8 13 14 14 14 13 11
19 18 17 17 17 13 12 9 9 7 4 6 11 8 10 10 14 5 10 8 5 5 4 8 5 8 9 7 5 9 12 11 11 11 14 15 13 12 12 15 15 15 12 11 11
19 18 16 17 14 11 7 6 5 5 11 9 2 9 6 2 5 10 9 8 6 9 9 9 7 4 9 13 12 15 13 15 12 12 10 11 14 13 13 11 13 11 14 14 11
18 17 15 15 11 7 6 6 8 8 9 21 18 15 17 9 7 14 13 10 9 6 15 6 2 7 14 13 13 15 10 8 8 5 7 11 11 15 14 15 14 13 15 16 16
19 17 14 12 6 7 14 18 11 17 6 11 18 14 15 16 14 14 12 12 4 3 2 6 5 17 19 9 12 13 3 8 6 9 9 9 13 15 13 14 15 15 14 15 16
19 17 13 8 5 9 9 14 18 9 5 9 13 10 16 9 15 15 18 11 12 12 15 9 22 23 6 13 10 6 11 4 11 11 7 6 6 6 16 12 14 12 13 14 14
21 18 16 13 8 12 9 4 4 4 4 11 16 13 16 15 12 9 2 14 15 10 15 11 10 12 9 2 12 3 15 12 16 8 4 11 6 10 20 11 15 12 11 11 13
22 19 15 9 14 15 8 8 3 3 6 7 10 10 13 15 17 17 10 10 9 11 7 6 10 2 6 9 13 12 10 13 9 8 2 15 11 7 14 19 8 10 11 10 9
24 21 22 11 3 7 8 6 5 7 7 8 12 14 16 14 14 14 16 13 10 10 9 10 11 6 12 10 3 8 9 6 6 6 4 14 7 9 17 10 17 24 16 12 10
24 21 21 20 13 8 7 7 10 12 20 4 14 15 16 14 16 15 14 13 16 16 8 7 8 9 7 11 6 17 11 2 4 3 11 9 5 3 17 14 21 20 14 13 12
23 16 14 19 21 6 7 11 9 13 20 10 14 13 16 13 9 15 17 17 16 18 4 6 4 18 5 3 4 6 2 3 9 14 3 4 17 6 8 9 5 17 15 14 14
20 12 19 20 19 10 8 18 14 21 11 12 14 14 14 15 9 13 15 13 8 8 18 9 5 27 8 4 7 6 7 3 2 2 4 8 13 4 6 5 3 11 13 14 13
21 6 12 25 23 7 12 17 18 24 7 6 16 15 15 12 14 12 11 11 15 12 5 5 18 6 6 7 9 6 6 7 8 4 1 3 3 7 7 5 5 5 14 14 15
17 9 33 41 10 11 14 22 21 22 10 9 16 16 15 12 13 12 14 13 11 8 5 6 3 4 10 2 6 8 9 10 3 4 2 1 7 4 5 4 3 4 6 15 15
11 8 29 27 13 12 18 25 24 24 14 15 15 16 10 11 7 10 5 5 6 3 1 1 2 4 8 7 8 8 11 10 5 3 5 3 4 4 4 1 1 4 6 8 13
10 10 5 9 12 19 23 20 24 23 17 14 16 13 8 10 9 9 6 4 3 3 4 4 5 8 6 10 4 7 12 10 10 3 3 8 13 8 9 9 6 7 4 6 9
7 11 11 13 17 19 20 18 25 21 19 15 16 17 11 8 11 7 7 7 3 3 2 2 7 10 13 15 3 10 11 8 12 10 10 10 14 12 9 8 4 3 6 5 8
10 10 12 9 19 21 20 25 24 22 17 15 15 13 14 9 9 10 11 8 8 7 7 5 1 3 3 11 14 12 14 13 15 13 14 14 13 10 6 7 8 8 6 2 6
19 14 9 12 22 20 20 22 24 18 19 18 18 14 17 5 10 10 11 8 4 9 9 6 3 2 2 5 6 5 9 16 15 14 12 10 10 7 11 5 5 4 6 3 5

GFSSW_925_spd_027.txt.gz
Wind_Speed
17 18 17 19 19 18 18 19 20 20 20 19 19 20 21 22 24 11 8 7 6 5 9 8 8 9 15 5 8 1 2 9 13 5 2 5 3 5 9 5 3 6 4 23 29
18 17 17 19 19 20 19 20 20 20 20 18 19 20 21 21 20 11 8 9 13 8 7 9 5 11 3 5 5 4 4 7 2 7 6 6 5 11 5 5 5 19 18 29 26
18 16 16 19 19 20 19 21 20 20 20 18 18 19 20 16 6 6 9 4 13 11 13 12 17 6 7 6 9 6 8 11 2 6 8 4 5 11 11 4 4 13 15 20 26
17 16 16 18 19 21 19 20 20 19 19 17 17 17 14 4 2 7 8 3 13 8 8 6 7 4 6 7 10 4 12 14 9 5 4 4 2 4 4 7 14 10 12 6 20
17 15 16 18 19 21 21 20 20 18 18 16 16 14 6 4 8 5 2 7 10 9 11 8 8 6 7 5 8 6 8 6 9 17 9 11 7 4 4 11 11 12 9 12 20
16 15 17 18 20 21 23 21 19 16 15 14 15 10 4 5 2 4 5 10 7 9 10 14 8 7 8 7 6 7 7 2 2 24 15 8 4 4 3 7 4 4 12 11 16
16 16 16 18 19 21 23 21 17 14 13 13 13 7 5 15 3 1 4 8 10 11 7 20 13 8 8 8 13 5 5 2 4 10 7 15 4 2 3 8 7 6 8 12 15
17 16 17 18 19 22 21 20 16 13 12 11 10 3 7 11 7 11 12 13 16 15 15 14 12 4 2 8 8 4 4 2 2 7 6 7 3 7 11 11 9 11 9 8 10
17 17 16 17 19 21 20 18 14 11 11 7 6 4 8 13 8 16 13 16 18 12 7 12 5 1 6 4 5 2 0 5 6 9 6 4 4 16 11 13 11 11 9 10 9
17 17 16 16 18 21 19 15 11 11 6 3 10 6 9 5 11 15 18 17 3 3 2 1 2 1 4 1 1 3 5 8 5 7 5 5 6 10 10 12 13 10 9 9 10
17 17 16 15 16 19 16 7 2 1 5 9 6 6 2 16 6 2 10 7 2 5 2 6 1 3 4 2 4 9 6 10 9 6 9 8 8 9 9 7 9 8 6 12 10
18 17 15 14 15 15 7 5 4 6 8 18 19 16 26 15 3 8 12 5 4 3 1 6 2 3 1 8 8 13 9 14 5 7 5 3 8 10 9 7 15 12 10 9 8
18 18 15 12 13 10 12 20 16 15 3 8 13 7 7 11 6 10 11 6 5 4 4 2 6 4 8 10 13 4 4 8 3 2 3 3 5 6 3 8 13 14 17 15 15
18 18 14 11 6 7 7 10 5 4 3 6 10 6 8 8 7 13 11 6 2 4 2 2 10 5 7 14 3 4 6 5 4 5 1 4 1 4 4 3 2 9 10 16 12
18 19 17 13 8 4 10 13 7 4 3 6 11 7 8 8 1 6 9 3 4 6 3 4 4 9 8 14 4 7 4 3 2 2 1 1 5 6 4 8 5 5 7 10 16
19 20 16 12 14 18 11 15 3 1 6 4 9 10 9 7 7 7 5 3 3 8 6 7 6 2 7 7 3 7 2 3 3 2 2 5 5 3 5 20 4 5 9 7 10
20 23 23 14 5 9 8 5 2 3 5 7 11 8 9 7 9 9 8 6 5 2 5 7 8 5 2 3 5 5 5 3 5 6 4 10 2 11 13 8 15 19 13 3 10
22 25 26 26 21 10 6 1 6 11 10 3 10 10 9 8 10 12 11 9 8 6 3 3 3 4 4 3 4 4 5 4 4 2 4 11 4 6 18 14 15 14 4 5 9
21 26 15 28 24 10 2 9 8 7 9 4 7 7 9 11 7 8 7 10 9 8 7 4 1 5 10 4 2 4 1 6 6 4 4 5 8 6 10 7 4 6 5 8 9
21 13 12 25 16 10 5 8 7 14 3 4 8 8 8 9 8 10 8 6 7 3 9 5 2 3 8 7 12 4 3 1 3 4 4 4 3 2 5 5 9 8 9 9 9
13 5 13 26 16 4 12 10 11 19 12 6 8 8 9 7 10 4 8 10 7 9 11 5 4 5 3 5 12 1 3 2 3 5 4 1 4 3 5 5 10 10 13 15 14
7 7 26 40 6 4 13 12 10 17 12 11 2 3 7 6 8 9 11 2 7 9 9 10 5 4 15 15 6 4 5 5 5 5 2 4 5 3 6 5 7 8 12 13 15
6 5 27 31 12 11 7 14 17 20 17 6 2 2 3 3 6 8 4 4 6 5 6 2 0 2 7 6 5 3 4 4 4 3 4 5 5 1 5 5 5 6 7 10 12
5 8 5 8 10 18 16 17 21 13 20 17 7 6 6 4 14 7 4 2 5 4 3 4 3 6 6 7 2 3 3 5 5 4 3 5 5 10 6 8 7 7 5 9 13
4 7 8 13 16 13 18 14 17 17 16 7 8 9 7 4 1 5 5 4 2 2 2 4 4 1 3 5 5 4 3 6 5 6 6 8 7 10 0 6 5 6 4 4 7
4 8 6 4 16 16 19 21 24 20 15 17 10 10 7 5 6 7 7 5 5 1 4 1 1 2 2 6 7 4 6 7 7 6 2 3 6 6 7 7 8 7 7 7 6
10 8 8 7 19 17 21 22 22 15 10 11 8 5 6 3 6 4 5 6 9 8 6 5 5 3 3 4 5 6 7 7 5 4 4 4 5 10 11 9 7 6 8 7 5

GFSSW_925_spd_030.txt.gz
Wind_Speed
15 16 17 17 19 19 20 20 21 21 23 24 22 22 23 24 26 17 8 4 2 3 7 4 3 2 1 1 5 4 1 1 5 4 2 5 7 5 2 12 6 6 6 15 18
15 16 16 16 18 19 20 20 21 21 23 23 22 22 22 23 22 12 5 7 8 5 3 3 2 1 1 2 0 3 3 5 6 4 5 8 6 5 4 9 9 16 21 23 13
14 15 16 16 18 19 20 23 21 21 21 21 20 21 22 17 5 6 10 7 8 8 5 1 4 1 2 1 3 3 6 4 4 4 5 4 2 1 6 3 8 21 15 19 17
14 15 15 15 17 19 20 23 22 20 20 18 18 19 16 4 2 3 9 3 11 7 5 1 2 2 3 3 4 3 8 7 4 6 6 5 5 3 4 5 10 16 23 22 11
15 15 15 15 17 18 19 22 23 20 17 16 16 16 6 3 8 9 3 8 11 8 5 3 1 1 3 3 5 6 14 3 9 11 6 5 6 6 4 8 13 22 22 21 19
15 15 15 15 17 18 19 22 22 19 15 14 14 10 3 4 4 2 4 9 8 10 4 4 4 5 5 4 3 6 3 8 10 6 4 6 4 3 3 10 11 19 23 22 21
16 15 15 16 17 19 19 21 21 18 13 12 11 6 1 13 2 3 3 4 9 9 4 7 8 3 2 6 7 4 3 12 6 7 3 5 2 5 10 13 14 16 17 21 24
17 15 15 16 17 19 19 22 20 16 11 9 7 3 7 7 15 15 16 11 9 11 12 10 7 3 0 3 7 6 5 5 9 8 9 2 3 5 7 13 8 10 16 22 21
18 15 15 16 17 18 20 22 20 14 9 5 3 1 9 11 9 15 13 14 15 14 18 13 3 2 6 3 5 5 1 2 3 9 7 4 3 5 6 9 8 6 14 18 20
19 16 14 15 16 18 20 21 15 11 2 1 4 5 8 3 7 11 15 15 5 4 3 3 5 3 3 4 1 2 2 3 3 4 5 7 7 7 8 9 11 9 9 14 20
18 15 14 13 14 16 19 7 2 1 2 8 5 4 6 10 9 10 15 7 3 6 2 2 4 2 5 5 2 2 5 7 13 9 5 8 7 9 10 8 10 9 10 12 18
16 15 13 12 13 14 13 1 4 2 8 16 17 11 22 9 5 6 12 5 3 4 0 4 2 3 4 2 4 5 7 8 12 8 6 6 6 8 9 11 14 13 12 14 11
16 16 13 11 11 12 7 10 9 14 4 8 7 6 6 11 7 6 8 5 4 3 4 5 5 3 2 3 4 6 5 6 5 4 6 5 5 1 3 5 8 12 17 14 19
18 16 14 9 6 4 6 12 9 9 3 6 7 7 6 5 5 8 10 7 3 8 3 3 1 2 3 3 4 7 6 5 6 4 0 3 2 4 4 7 13 7 6 13 15
18 17 17 13 2 4 0 16 6 3 3 4 6 6 9 8 3 3 10 4 7 6 4 6 5 3 2 7 2 9 4 2 2 4 3 3 3 5 2 6 10 12 13 11 13
22 19 18 14 14 14 17 16 3 2 8 4 7 7 6 6 4 1 5 3 5 4 2 4 3 5 7 6 5 5 3 6 5 3 2 4 4 5 4 10 6 6 9 14 11
24 20 25 16 5 5 7 2 3 5 5 5 7 8 9 7 5 7 4 4 5 4 3 4 4 6 3 2 3 3 5 3 4 4 5 5 4 8 7 8 11 12 7 8 11
23 20 28 25 18 5 2 2 9 7 7 3 7 11 9 7 9 6 7 6 4 4 3 4 4 3 3 4 2 5 5 5 4 2 4 4 5 6 7 10 8 3 9 7 9
21 19 16 30 22 6 2 9 8 6 5 4 4 8 5 7 7 6 8 9 9 9 7 5 4 5 5 4 5 4 2 4 6 4 2 4 5 6 5 5 2 6 7 7 8
21 13 13 24 21 8 5 14 6 9 5 4 7 7 9 9 8 8 9 6 7 8 6 7 1 5 6 3 4 6 4 1 3 3 3 4 4 4 2 4 4 2 6 7 7
18 6 17 25 20 3 12 11 14 21 6 4 3 5 9 8 10 7 9 6 9 5 6 6 4 3 2 3 7 2 0 2 4 4 4 1 5 5 7 7 8 9 9 11 14
9 7 30 38 7 4 15 13 11 20 6 7 4 10 9 9 8 9 11 9 7 12 10 8 5 3 10 8 2 4 6 6 5 4 1 4 5 4 7 8 7 8 8 9 13
5 5 27 31 12 13 8 19 19 12 7 4 5 7 2 6 5 5 1 1 2 10 9 7 1 2 7 6 4 5 6 4 4 4 6 5 5 3 4 5 8 10 9 11 12
6 9 6 9 10 20 18 16 19 14 18 10 9 7 2 3 2 4 4 2 3 4 4 8 4 7 7 6 3 2 1 3 5 3 4 6 5 7 9 8 8 7 8 10 11
6 7 8 15 17 15 20 14 21 14 11 7 9 17 9 4 4 6 5 2 4 3 3 4 5 4 4 4 1 1 5 4 5 5 5 8 8 10 3 2 7 7 3 3 6
6 4 7 5 17 20 21 23 26 19 11 18 14 12 8 7 8 8 8 4 5 2 3 2 3 1 2 3 3 3 6 5 5 3 5 5 4 6 5 5 8 7 8 7 6
22 7 7 6 18 17 23 24 26 20 11 23 11 14 5 9 5 5 6 8 11 9 5 5 6 3 4 4 4 5 7 7 6 3 4 4 4 4 7 7 5 5 8 8 7

GFSSW_925_spd_033.txt.gz
Wind_Speed
12 13 14 16 14 17 17 20 23 22 21 22 22 22 22 25 28 16 7 2 2 7 6 2 3 4 5 2 3 3 4 1 3 3 5 3 3 2 3 6 4 3 3 14 18
12 13 14 16 14 16 17 19 21 22 21 22 22 21 21 24 23 10 3 4 6 6 4 4 4 3 3 1 1 3 4 5 5 3 5 3 3 3 4 5 5 11 14 18 21
12 13 14 15 14 16 17 18 21 22 21 21 20 20 19 16 4 5 10 8 11 8 3 4 3 2 2 1 3 4 4 3 6 5 4 5 3 5 10 3 5 16 13 14 15
13 13 13 14 15 16 18 18 21 21 21 20 19 18 15 6 1 2 13 4 12 9 4 6 3 2 1 2 4 2 8 6 5 6 5 6 5 4 3 1 12 12 14 13 10
15 15 14 14 15 16 18 19 20 20 20 18 17 15 7 3 7 8 8 5 11 8 4 3 2 3 2 4 2 4 5 5 5 8 4 5 5 6 4 9 15 14 13 11 11
19 16 15 15 15 17 18 19 20 20 18 15 14 11 3 4 3 4 3 8 6 6 7 5 5 5 4 5 3 2 6 4 2 8 5 8 4 5 3 12 15 13 12 11 11
19 18 16 15 15 17 18 19 21 20 17 12 9 7 1 12 1 3 4 4 5 11 4 5 4 1 2 7 2 4 3 3 3 1 4 8 4 6 12 13 18 13 11 11 12
18 18 18 16 15 17 19 19 21 20 15 8 5 3 7 4 6 15 12 17 10 11 11 8 8 4 2 5 7 4 4 3 2 2 3 1 3 4 15 14 14 14 11 10 13
17 18 17 15 15 17 19 21 23 19 9 4 1 1 9 9 9 13 12 10 2 10 9 9 3 1 5 2 5 6 2 3 1 5 2 1 6 7 12 14 13 15 13 12 12
19 18 17 15 13 16 19 22 16 7 1 1 1 4 7 2 3 7 12 13 6 3 3 4 5 3 3 3 2 3 4 3 3 3 6 4 2 12 15 12 15 12 11 11 13
18 17 17 14 12 15 17 7 3 1 2 7 4 4 4 12 8 6 7 9 2 5 0 3 4 2 4 4 2 3 2 2 4 5 5 8 5 14 11 6 8 8 10 14 17
18 17 16 13 11 13 12 2 3 1 7 12 15 8 15 4 5 4 9 5 4 4 1 4 1 5 5 7 4 6 5 10 9 7 8 7 6 5 10 12 12 13 12 14 14
17 16 15 12 9 11 7 7 15 9 3 7 6 6 5 12 7 6 8 5 4 5 5 4 5 1 1 2 1 2 3 7 8 4 4 6 3 4 4 4 6 8 14 14 18
17 16 15 12 5 6 5 3 11 12 2 6 5 7 7 7 5 11 9 6 1 9 5 4 3 2 2 2 4 5 3 6 4 1 2 4 3 4 6 13 9 13 11 16 17
19 17 17 18 3 4 5 11 5 2 3 3 4 4 8 10 3 5 10 4 7 6 5 6 4 3 2 5 6 9 3 5 1 3 3 4 4 5 0 8 15 15 16 15 17
21 19 18 19 18 11 5 8 5 5 6 4 7 7 6 5 2 4 5 4 4 5 2 5 4 3 5 2 6 3 2 4 4 2 2 3 4 5 5 12 11 15 17 14 11
21 21 21 17 4 12 7 3 2 4 4 5 6 7 7 6 4 3 5 5 5 3 3 2 3 2 2 2 4 5 5 3 4 4 4 2 1 8 7 8 9 10 14 13 12
22 20 22 24 13 5 4 3 8 7 6 5 4 5 9 6 6 7 5 5 3 4 3 4 4 4 1 4 4 1 5 4 3 3 4 3 4 6 5 6 6 6 9 6 9
20 20 19 26 22 9 2 9 7 6 4 4 4 5 4 4 6 4 8 7 8 7 6 4 4 2 3 2 3 3 2 3 6 3 2 3 6 10 6 4 6 5 6 8 9
21 14 19 21 28 4 6 17 7 5 3 5 8 6 9 7 7 8 9 6 6 11 5 6 1 3 4 2 4 2 6 1 3 2 3 4 4 5 5 6 3 7 8 8 6
18 4 17 23 20 3 12 11 13 13 4 3 3 5 8 8 10 7 8 5 7 3 6 5 4 4 1 5 9 2 2 3 4 5 4 1 5 7 6 5 7 8 6 8 8
11 7 29 36 7 5 13 7 4 14 2 3 3 5 6 8 8 9 10 10 10 10 9 8 6 4 9 3 4 3 2 5 4 4 1 4 6 4 8 6 5 9 5 6 7
7 5 28 30 12 15 7 12 9 9 7 6 5 3 1 7 5 6 7 4 6 8 9 7 1 2 7 6 4 1 4 4 4 3 6 5 6 3 5 7 7 8 8 7 7
4 7 7 10 17 18 20 16 19 14 12 1 3 2 2 3 2 8 6 3 5 5 7 9 4 7 7 8 4 2 3 4 5 3 3 6 6 6 8 7 8 9 8 6 7
5 8 8 14 21 19 19 14 25 13 17 13 5 7 3 4 1 3 3 3 3 3 2 6 5 4 3 3 4 5 5 6 7 5 6 8 7 8 4 7 7 6 2 1 6
7 5 7 1 18 25 18 21 26 23 10 9 15 7 13 10 8 8 7 4 6 3 3 2 3 3 3 3 3 4 7 6 5 4 7 5 6 3 3 2 6 7 7 7 6
17 5 3 11 20 18 29 24 25 17 19 8 19 11 6 14 10 8 5 6 10 10 5 5 6 4 4 2 2 6 8 7 7 6 6 6 8 2 2 4 5 6 7 7 7

GFSSW_925_spd_036.txt.gz
Wind_Speed
14 13 14 14 16 14 16 18 19 21 23 23 23 23 22 24 28 13 6 1 1 9 5 3 3 5 1 2 2 3 4 2 4 2 5 2 1 1 2 4 4 5 2 12 27
15 15 14 15 15 15 16 17 19 21 23 23 23 22 21 23 20 8 1 1 8 8 5 6 2 4 2 1 1 4 3 5 5 4 4 3 3 4 3 3 3 6 12 17 21
16 16 16 15 15 15 16 18 19 21 22 23 22 21 20 17 4 3 9 2 9 9 4 4 3 2 1 2 4 5 5 6 7 7 3 5 2 3 8 2 5 9 12 10 12
18 16 16 16 16 16 17 18 19 20 22 22 21 19 18 5 1 2 10 3 13 9 3 3 1 1 3 2 2 2 7 5 4 4 4 5 4 4 2 3 10 11 11 10 10
20 18 18 17 17 16 17 18 19 20 22 21 19 16 6 4 7 7 4 12 12 9 6 3 2 3 1 3 2 3 4 2 5 7 5 6 2 4 4 5 10 8 10 11 10
18 19 19 19 18 17 18 18 19 20 21 20 16 12 2 4 3 2 4 10 8 7 5 4 4 4 3 2 1 3 5 2 4 3 4 8 2 2 1 3 6 9 8 8 11
19 19 19 19 19 18 19 19 19 20 20 18 11 7 1 12 4 3 3 3 4 6 2 6 4 2 1 4 3 3 0 2 2 4 3 7 3 3 8 5 6 5 4 6 6
20 19 20 17 20 19 20 19 20 22 21 12 6 4 7 5 8 14 10 6 9 8 13 10 6 4 2 4 6 4 3 1 1 2 1 3 2 3 7 8 5 5 4 4 5
19 18 17 17 19 20 20 21 22 22 11 5 1 1 9 6 8 9 11 5 3 6 10 9 3 0 4 2 4 6 1 4 3 4 3 2 1 5 8 8 7 6 6 5 5
19 18 17 17 18 19 19 22 16 5 1 3 1 3 7 1 4 3 4 6 1 2 2 3 5 2 3 3 2 1 2 3 2 3 2 4 2 5 12 10 11 9 6 7 7
19 18 16 15 16 18 17 11 4 2 3 7 4 4 4 9 5 5 5 8 3 5 2 3 4 2 5 5 4 3 2 3 5 4 6 9 5 11 12 8 7 9 7 8 11
18 16 16 12 16 14 13 3 1 1 7 10 13 8 11 3 4 4 12 5 5 4 1 5 3 6 4 3 4 2 4 6 6 3 5 4 6 12 13 16 15 15 12 14 13
18 15 12 13 12 11 11 10 6 4 3 7 6 6 5 12 7 6 8 5 4 4 4 5 4 2 3 3 4 4 2 5 4 5 1 4 2 5 5 5 7 9 11 9 12
20 16 12 11 5 6 6 1 12 10 3 7 5 7 7 7 4 10 11 6 2 8 6 4 4 3 1 2 4 2 5 3 5 1 1 3 3 4 5 15 8 13 10 13 12
20 16 14 12 1 3 2 8 7 3 3 3 4 4 5 9 5 6 7 4 8 6 6 8 2 5 3 5 5 8 3 2 2 2 3 3 4 4 4 7 18 15 15 14 14
22 17 16 11 16 13 5 14 3 3 7 4 6 6 6 5 3 3 5 6 4 5 1 5 2 4 5 4 6 1 2 6 4 3 2 3 4 5 5 12 17 15 15 16 13
23 19 19 11 4 18 14 2 4 5 1 5 5 6 6 6 4 5 7 6 6 4 3 2 3 2 3 2 2 3 5 3 3 4 4 3 2 8 8 4 8 11 16 17 15
25 19 22 22 20 5 3 4 10 5 6 3 1 4 8 6 6 5 6 6 2 4 3 5 5 6 3 6 7 3 6 5 2 2 3 3 5 6 2 5 7 8 7 8 9
24 21 21 20 22 10 2 10 7 6 4 3 2 5 4 4 6 4 8 8 9 8 7 4 4 1 1 1 2 3 2 4 6 3 2 3 6 9 3 4 6 6 2 8 9
22 13 22 20 23 8 4 17 7 4 3 2 7 6 9 7 6 8 9 6 7 10 5 7 2 1 1 2 2 2 6 3 3 2 3 4 4 5 7 4 2 5 7 6 4
21 5 10 26 19 3 10 10 16 11 2 2 2 2 7 8 9 6 9 2 8 6 5 5 4 4 0 5 8 2 2 4 5 4 4 1 5 7 7 6 6 5 8 8 7
10 6 24 37 10 8 17 7 8 17 2 4 3 4 4 7 7 8 10 10 10 10 9 7 6 4 9 3 3 5 6 6 5 4 1 4 6 5 8 6 5 9 4 5 7
6 5 30 33 14 17 13 13 5 14 8 6 4 4 1 4 4 6 7 5 9 8 9 7 1 2 7 5 4 4 4 3 5 3 6 5 6 3 6 7 5 7 8 3 5
4 8 6 11 17 19 23 16 23 6 4 6 2 3 1 3 4 7 7 5 8 8 7 7 4 7 8 8 4 4 6 5 5 4 4 6 6 8 8 6 9 8 6 6 6
5 7 6 14 22 21 19 14 21 17 16 8 2 5 3 3 1 4 2 2 2 6 5 7 7 5 4 4 4 5 4 8 7 5 6 7 8 9 7 5 7 6 3 3 3
4 4 4 6 20 24 13 24 24 23 8 16 6 9 8 5 7 5 3 4 6 5 6 1 5 4 2 2 2 3 5 5 4 3 5 6 7 7 3 1 4 4 5 7 7
13 6 3 14 20 18 30 18 20 19 20 7 21 17 8 20 16 8 6 4 1 5 9 7 7 4 4 3 4 7 9 9 6 5 7 7 10 6 2 3 3 5 6 8 8

GFSSW_925_spd_039.txt.gz
Wind_Speed
16 16 16 16 16 17 18 18 19 20 22 24 25 23 22 24 25 7 3 1 1 11 9 8 6 5 4 2 1 2 1 3 3 3 1 1 4 1 1 2 1 3 1 14 22
18 17 17 17 16 17 17 18 20 21 22 24 25 22 22 23 16 5 1 0 7 9 7 6 3 5 2 3 2 2 2 5 5 4 1 0 2 6 3 2 2 4 11 22 23
19 19 18 18 17 17 17 18 20 21 22 24 24 21 21 17 4 1 6 3 11 8 7 7 7 3 1 1 3 3 4 3 7 7 2 1 3 4 5 3 4 7 11 12 17
17 19 21 19 18 19 18 18 20 21 22 23 23 20 19 5 2 1 5 6 13 9 8 6 1 3 1 3 4 3 8 6 5 2 4 6 6 2 2 5 5 11 11 7 14
20 19 19 20 19 20 20 19 20 21 21 22 22 18 8 3 6 3 3 12 14 9 7 4 2 2 1 3 2 5 5 3 5 4 4 5 3 2 4 9 13 12 10 10 12
20 20 19 19 20 19 21 21 21 21 21 22 21 14 2 4 2 2 8 13 7 7 6 4 2 2 2 4 3 2 2 1 2 3 4 5 3 2 5 7 10 10 10 9 11
20 20 19 19 19 19 21 22 21 22 22 22 17 8 1 12 3 7 9 4 8 7 4 4 2 1 1 4 2 2 1 3 2 1 2 3 3 3 8 8 10 9 7 7 10
18 19 19 19 19 18 20 22 23 24 25 20 8 3 7 3 6 11 9 5 9 7 6 4 1 2 2 4 4 2 3 1 1 1 2 4 2 2 6 9 10 9 7 8 11
18 16 17 18 18 19 21 22 24 26 14 4 2 1 8 3 5 9 15 5 7 8 5 3 2 1 1 1 2 5 1 0 2 3 4 1 1 6 8 9 10 10 7 6 9
19 18 16 16 17 19 21 22 23 10 1 2 1 2 6 2 1 3 9 9 3 4 2 2 3 0 1 1 3 3 1 1 1 2 3 4 4 8 11 10 11 10 9 8 9
19 18 14 13 15 17 17 10 4 1 5 7 2 3 4 7 3 5 6 9 3 3 2 1 2 5 8 5 4 4 3 0 2 3 3 9 6 13 14 10 10 11 10 11 12
17 16 13 9 10 13 11 2 5 2 8 11 13 8 12 0 4 4 10 5 4 5 3 1 3 3 3 5 5 3 1 2 1 2 6 5 6 2 13 11 13 13 12 13 11
16 14 14 10 8 9 10 11 9 9 3 6 7 6 5 13 8 6 10 5 4 5 5 4 3 2 3 3 4 2 1 2 3 1 2 2 2 2 6 10 9 12 10 12 13
18 14 12 9 4 7 6 3 7 8 4 6 5 6 7 8 5 11 13 5 2 9 7 4 1 2 2 4 3 2 1 3 3 1 2 1 2 4 5 10 11 14 13 16 15
20 16 12 10 3 3 4 13 7 4 4 2 4 5 6 9 8 7 10 3 8 6 5 4 4 3 5 5 5 4 3 1 1 2 2 1 1 1 1 9 17 18 17 17 17
21 18 13 12 12 10 5 13 1 1 7 2 6 5 6 3 3 4 5 5 4 5 1 3 2 5 5 3 4 4 2 4 3 2 1 1 2 3 4 7 8 16 18 18 17
26 21 19 13 6 16 13 5 2 6 5 4 4 6 6 6 5 4 7 6 6 5 4 0 3 2 3 3 1 2 2 1 1 1 2 3 1 6 5 6 9 11 17 20 18
27 24 23 22 16 5 7 3 10 5 10 3 2 5 8 6 4 4 8 10 2 4 3 6 3 7 4 5 6 5 4 4 3 3 1 1 4 2 3 6 8 8 11 9 14
27 27 22 25 24 10 3 10 8 7 4 3 2 4 3 3 5 4 7 14 10 8 5 4 4 1 2 2 3 3 3 2 6 2 0 1 4 8 1 1 3 3 5 7 8
26 17 21 27 25 9 5 21 10 7 1 1 4 4 9 6 4 9 8 5 7 9 4 6 1 1 2 2 3 2 6 2 1 3 3 2 3 3 3 2 3 7 5 6 6
19 5 15 27 23 6 15 16 21 9 2 2 2 2 4 6 7 5 9 3 8 8 4 5 2 2 2 5 7 3 3 4 3 1 3 2 4 6 6 2 4 5 6 7 7
12 8 23 39 12 8 18 16 6 16 4 5 2 3 3 6 6 7 12 9 9 12 9 5 4 4 7 1 2 3 6 6 3 5 1 0 5 3 7 5 5 7 4 4 6
6 7 24 34 14 17 16 28 4 15 14 6 7 5 1 3 4 6 6 5 9 9 9 7 2 2 2 1 1 4 5 4 4 2 7 4 4 1 3 6 5 8 5 3 4
5 8 6 13 17 23 19 20 26 6 8 9 3 3 1 2 3 5 5 4 8 7 6 9 4 6 10 7 4 4 5 5 5 3 4 6 6 7 7 6 9 6 7 8 5
6 6 8 13 22 22 21 19 25 17 13 11 5 7 5 5 1 4 3 2 3 6 4 6 7 6 4 3 5 5 6 11 9 6 7 8 9 8 7 6 5 6 5 4 5
4 4 4 5 25 22 16 19 26 25 16 16 14 13 12 4 6 6 5 2 2 1 6 3 4 5 4 3 5 5 3 9 10 2 8 5 10 9 3 3 1 2 4 8 9
11 3 8 15 19 20 25 21 17 19 18 5 13 2 8 18 10 3 1 3 4 5 4 4 7 4 4 1 1 4 8 10 4 5 6 8 11 4 6 6 5 6 8 8 8

GFSSW_925_spd_042.txt.gz
Wind_Speed
16 16 16 16 17 18 20 20 21 22 23 24 25 25 24 26 25 5 5 1 3 9 8 8 7 8 6 4 5 3 5 3 1 4 7 2 4 2 2 4 3 2 5 9 18
15 14 15 17 17 18 20 21 22 22 24 24 25 25 24 25 11 8 4 1 7 12 8 9 8 11 5 4 4 7 4 2 4 6 8 5 7 3 5 5 6 5 10 16 16
16 15 17 15 18 17 20 22 23 23 24 25 25 25 23 17 5 3 4 3 10 11 5 5 8 5 3 4 5 2 7 6 8 8 7 6 1 1 5 6 5 5 12 11 13
19 18 17 17 16 18 19 22 23 24 24 25 25 25 21 5 2 3 6 7 13 8 8 8 6 5 3 5 2 8 8 7 6 5 3 2 2 2 3 6 1 12 12 10 11
14 16 18 17 17 17 19 20 23 24 24 25 25 23 9 6 6 4 1 12 14 8 9 7 6 3 3 3 3 10 9 8 5 3 2 3 1 3 4 3 9 11 9 11 11
16 16 15 16 16 16 16 19 23 24 24 25 26 20 5 8 2 3 7 13 9 10 8 5 2 2 2 5 5 6 9 1 3 1 3 4 4 4 6 7 9 11 9 12 12
16 16 15 14 16 16 17 18 22 24 25 27 26 8 7 12 3 7 10 7 8 8 5 4 3 5 3 4 2 9 8 6 6 4 2 4 5 6 9 8 10 10 12 12 12
17 17 15 15 14 14 16 19 21 24 26 25 13 3 8 4 7 9 10 6 7 9 4 2 5 6 3 3 4 8 7 5 4 6 3 6 9 8 10 9 10 11 11 13 14
16 18 16 16 14 13 15 18 21 25 21 10 2 4 7 3 7 14 14 5 9 8 4 4 6 5 4 8 7 7 5 6 3 6 2 6 4 10 10 8 10 11 12 13 13
16 14 17 16 14 13 15 16 20 16 2 1 4 5 8 4 4 5 14 11 5 8 5 6 6 8 7 9 9 6 7 5 2 4 6 7 6 8 11 11 9 11 13 14 15
17 15 13 14 12 11 11 7 6 4 5 8 4 5 4 1 3 10 9 12 9 8 9 7 9 9 8 6 6 4 6 6 1 2 4 8 10 7 13 12 12 11 11 13 13
18 15 13 11 11 8 5 5 4 3 9 13 19 20 19 4 3 10 12 12 10 14 8 6 10 1 2 5 6 6 6 4 1 2 5 7 7 5 12 13 12 12 12 12 12
19 14 13 11 8 6 9 9 3 5 6 8 10 9 10 14 10 14 15 14 13 14 12 12 5 5 6 8 8 9 7 3 3 1 6 6 7 8 9 11 11 12 12 13 14
22 16 12 11 5 7 6 4 4 6 6 6 8 9 9 8 11 17 19 14 8 16 11 10 4 6 6 7 10 11 2 3 5 6 4 3 4 7 9 12 15 14 15 14 15
23 20 15 14 6 6 8 4 6 6 7 4 5 2 7 15 14 19 22 10 17 10 8 10 9 10 8 10 8 7 1 4 5 6 4 6 6 8 5 9 14 17 18 17 17
24 22 18 14 12 6 7 4 4 5 9 3 7 8 9 15 10 15 14 9 7 11 10 9 1 4 3 4 8 5 3 4 4 5 6 4 6 4 5 5 3 6 17 18 18
31 24 22 18 14 13 8 3 6 9 2 5 6 8 14 13 14 19 23 21 15 16 15 13 12 6 5 9 7 9 7 6 6 6 7 3 6 8 2 3 6 8 7 14 19
28 25 25 22 19 7 11 6 13 8 18 2 3 9 13 15 14 17 23 21 23 19 11 14 12 14 11 12 11 13 11 6 4 5 4 3 6 2 3 5 7 7 8 8 12
23 27 26 25 22 10 7 14 13 14 8 9 3 8 12 13 10 13 20 24 21 20 14 14 12 6 8 6 9 7 8 1 2 1 4 4 5 8 1 2 2 3 4 3 6
25 20 24 28 22 14 8 25 17 15 9 9 12 9 12 16 12 15 17 19 22 21 17 7 10 6 7 7 4 5 9 5 4 5 6 4 5 2 4 4 1 2 3 3 1
24 6 14 31 22 6 12 24 27 16 13 8 11 10 7 11 17 19 14 7 24 21 19 10 9 7 7 11 12 6 6 4 3 3 5 5 5 2 6 2 3 1 2 4 3
14 7 24 37 10 6 17 32 8 22 16 10 7 6 8 12 16 16 22 16 18 19 20 15 9 8 14 5 2 7 9 10 6 6 3 5 8 5 9 6 5 4 3 4 5
8 3 32 33 14 13 30 29 26 18 25 14 11 9 6 5 7 17 15 15 13 20 19 13 10 11 10 6 4 8 10 10 6 2 11 7 5 5 3 6 7 7 5 5 4
6 6 5 11 18 29 29 25 30 22 21 18 11 7 9 6 8 3 12 6 11 18 5 16 13 16 12 13 8 8 12 14 14 7 10 11 13 9 12 11 10 5 3 5 6
8 7 10 15 18 29 27 24 25 23 27 18 19 15 13 6 5 6 5 7 6 6 8 11 15 16 16 16 15 17 15 14 16 16 13 13 14 13 12 12 9 2 3 3 4
7 8 14 15 29 32 29 28 29 32 23 24 19 23 13 13 5 2 4 1 6 6 9 8 12 10 12 12 13 15 16 16 18 17 13 17 18 14 14 6 7 3 3 5 6
14 18 14 16 28 23 24 32 28 25 31 22 23 15 19 20 3 7 6 8 8 2 10 8 9 7 14 10 9 10 14 16 15 14 16 16 16 15 11 12 9 5 6 8 10

GFSSW_925_spd_045.txt.gz
Wind_Speed
16 16 13 14 15 16 18 20 21 21 23 25 26 28 30 30 30 9 8 1 4 8 8 6 10 10 10 13 9 7 10 7 0 6 4 5 5 4 3 10 4 3 9 13 16
17 17 17 17 14 15 17 19 21 23 23 25 26 27 30 30 20 14 8 6 6 11 9 11 10 10 12 9 5 9 11 4 7 10 10 9 9 6 6 12 9 9 9 11 14
20 19 19 19 18 19 17 17 20 22 23 25 26 27 29 23 10 5 11 6 8 12 8 9 8 10 15 5 6 4 9 10 8 9 9 6 14 6 8 8 29 4 10 10 10
16 18 21 20 20 20 20 18 19 21 22 24 26 27 27 7 4 5 4 6 11 10 9 11 10 11 14 8 3 8 9 8 9 6 6 2 5 9 7 6 6 11 11 9 10
17 16 18 17 19 20 20 19 19 20 21 22 24 25 16 8 14 1 5 9 13 10 12 10 10 12 13 4 3 9 8 8 5 2 4 1 4 1 6 10 15 12 11 9 9
16 15 17 19 16 18 19 21 20 21 21 22 24 22 9 14 3 2 6 13 12 14 13 11 7 6 11 9 8 7 10 4 4 2 7 10 8 10 7 11 10 9 12 11 11
16 16 17 18 18 17 18 20 22 21 22 22 22 9 9 18 5 6 9 11 12 14 10 9 6 9 6 12 3 11 12 8 6 7 11 4 19 11 12 10 8 11 11 11 13
17 16 15 19 19 18 18 18 19 21 22 22 17 6 8 5 7 11 13 10 10 13 8 5 7 10 12 8 12 13 14 5 7 9 5 16 13 14 15 13 10 9 11 8 11
18 17 16 17 20 19 18 18 18 22 21 15 4 7 8 3 10 17 17 14 14 11 10 8 9 13 10 13 14 13 5 7 16 8 14 5 14 15 12 11 10 9 11 12 15
19 18 16 17 18 19 17 16 17 22 6 6 9 7 9 7 9 15 20 14 13 12 11 11 10 13 14 13 13 9 12 12 6 13 9 9 13 11 12 9 12 12 12 13 17
19 19 16 15 17 16 15 13 7 7 12 14 2 11 2 5 5 12 20 17 14 14 16 16 12 14 17 14 16 9 10 10 5 5 4 11 8 5 13 10 11 12 13 16 16
18 18 16 16 17 15 9 8 5 5 11 16 21 21 22 5 5 15 21 16 17 17 17 12 13 15 4 8 8 10 10 12 2 1 7 10 13 3 14 12 13 13 15 14 17
20 17 15 14 18 13 13 12 4 7 8 15 21 24 19 22 14 17 21 21 19 19 18 15 3 6 7 9 11 10 13 3 8 7 10 12 13 9 9 12 12 14 14 16 16
23 16 15 10 12 13 14 10 7 5 7 13 9 9 19 14 15 24 29 23 15 20 18 14 12 7 11 11 12 12 12 4 9 11 6 14 2 19 14 13 14 14 15 17 19
21 22 16 14 15 9 7 5 8 4 7 2 14 3 8 18 10 25 28 24 23 19 14 16 14 12 13 12 10 10 1 6 10 13 14 11 8 13 10 14 18 17 16 16 19
23 21 18 15 17 19 3 2 9 6 15 6 8 10 12 21 22 15 25 25 21 19 16 17 13 14 16 12 6 8 6 10 10 11 9 13 10 14 8 13 13 19 19 19 18
24 21 22 19 17 15 14 7 7 13 3 13 9 11 16 15 22 19 27 26 22 21 21 19 15 15 9 8 11 10 13 9 8 6 10 7 5 3 15 5 2 2 9 20 20
24 21 25 24 23 15 9 7 17 15 29 4 3 12 15 15 23 20 23 24 27 24 14 16 18 20 13 16 14 15 16 7 5 7 6 5 6 4 9 3 4 6 5 7 15
24 21 25 29 24 14 4 14 24 28 12 28 5 11 14 15 15 23 26 26 28 25 22 16 19 13 19 14 18 18 18 13 4 8 5 7 7 6 6 3 4 3 3 7 11
25 23 29 29 24 16 5 15 26 25 25 13 27 12 14 16 18 23 24 25 26 28 20 13 10 12 12 10 16 13 13 10 9 6 9 11 10 1 6 5 4 2 2 3 2
23 6 14 26 24 7 13 20 31 28 21 24 18 24 14 14 20 20 16 12 26 25 21 18 13 11 12 14 16 13 9 9 6 8 6 7 5 5 3 2 4 2 1 2 2
12 8 21 36 9 8 15 35 30 27 31 20 22 19 19 11 17 21 22 20 10 22 25 22 11 10 16 18 22 15 19 17 10 12 7 7 12 13 7 9 3 8 5 2 3
6 6 23 32 12 16 28 42 31 30 27 25 19 16 13 14 13 17 17 14 8 20 21 20 12 12 14 10 11 12 13 11 13 9 12 9 7 4 0 5 6 9 9 5 6
6 8 6 13 18 26 32 38 36 31 32 26 21 19 17 13 14 5 18 10 6 12 11 15 16 19 14 18 15 18 18 17 16 9 12 13 17 11 12 12 12 11 8 5 6
9 7 9 14 20 32 33 22 34 36 30 26 25 26 24 19 16 15 7 9 2 7 5 14 22 21 22 20 15 20 20 21 21 18 17 15 16 13 12 9 10 6 2 4 6
6 9 14 14 25 30 27 32 32 33 31 31 27 26 22 20 15 14 8 3 6 12 13 17 16 21 22 21 18 17 18 19 19 18 18 18 19 13 12 12 10 10 5 8 6
10 22 13 18 27 23 25 33 39 31 32 32 30 21 22 19 7 6 3 4 3 7 11 17 13 17 16 17 18 17 18 20 18 18 16 17 15 15 14 12 9 11 7 7 8

GFSSW_925_spd_048.txt.gz
Wind_Speed
17 17 17 16 16 15 17 20 21 22 24 26 27 29 28 32 35 16 9 4 9 6 7 7 10 12 14 14 19 13 11 10 13 10 3 7 5 6 25 2 9 15 27 8 8
19 19 19 19 18 18 19 21 22 22 23 26 28 28 29 33 25 17 14 9 7 7 8 11 10 12 11 17 9 10 12 7 13 8 12 13 9 12 6 12 11 21 20 3 5
17 17 18 19 20 20 20 20 22 23 23 25 27 30 29 27 12 3 15 11 8 10 13 14 14 10 15 16 10 14 12 7 15 8 8 13 9 12 6 7 4 4 4 6 9
18 19 17 17 18 20 21 20 21 22 24 24 26 29 31 9 6 4 9 6 7 10 11 13 11 13 16 16 13 7 13 12 12 10 7 14 7 6 16 11 10 9 7 9 9
17 18 18 17 19 19 20 20 21 21 22 23 25 26 19 7 13 4 6 7 9 10 14 12 11 12 17 17 10 10 14 10 8 6 7 11 21 29 13 17 14 14 10 11 11
17 17 17 18 19 21 20 20 21 21 20 20 22 24 10 14 9 4 5 9 11 15 15 15 12 12 12 16 13 12 9 15 9 12 3 17 8 22 7 13 14 12 11 9 10
18 18 17 18 20 21 23 22 20 20 19 19 18 15 12 22 10 5 9 12 14 16 14 14 14 10 13 14 14 11 15 16 6 11 3 10 7 6 13 4 12 14 10 11 11
18 19 19 18 21 24 24 24 21 19 19 19 17 7 9 15 14 18 16 15 14 14 16 12 7 11 14 16 18 15 18 16 8 13 5 11 4 14 16 9 10 17 13 13 12
19 18 19 19 21 24 25 26 21 19 20 17 7 8 11 5 16 20 19 18 15 15 14 12 8 13 15 16 14 16 14 12 12 8 4 9 2 19 21 13 10 17 13 15 12
23 18 18 19 20 23 27 25 18 19 12 10 12 7 11 14 13 16 20 19 15 13 12 12 9 12 14 13 14 15 13 9 7 5 9 10 16 16 14 13 10 15 15 17 15
22 19 16 18 19 22 25 14 5 6 11 9 6 11 18 11 1 13 21 19 14 16 16 16 13 15 20 19 19 15 15 11 15 9 7 10 4 17 6 14 14 14 15 15 16
19 20 15 15 17 20 18 7 10 6 12 17 23 23 28 18 8 13 23 16 16 18 18 16 18 19 20 13 11 12 14 15 6 8 4 11 8 20 18 20 15 16 17 17 15
20 18 15 12 15 18 17 22 17 11 8 20 24 24 26 26 20 16 21 20 19 18 19 19 19 14 11 10 11 12 15 7 9 9 10 11 13 12 15 14 16 16 16 19 20
22 17 14 9 11 10 15 13 15 6 7 15 17 9 26 21 21 29 24 20 15 20 21 19 21 12 11 11 13 14 9 11 6 9 10 4 10 6 11 13 12 15 16 17 18
21 19 12 13 16 8 10 11 2 4 7 7 12 8 9 26 7 23 32 23 25 22 12 19 20 17 12 14 14 12 4 9 9 11 12 5 8 1 10 14 15 14 16 17 19
22 19 13 13 15 20 16 19 5 5 11 6 10 10 11 21 27 17 25 26 23 22 21 21 18 17 14 15 13 8 8 10 12 11 9 14 9 4 4 9 12 18 16 17 19
25 20 17 15 14 10 12 7 6 12 8 12 10 10 14 15 22 24 24 26 23 21 20 21 22 19 13 18 13 9 9 8 6 7 8 9 6 6 13 17 13 16 19 18 17
25 21 19 19 20 17 3 4 14 14 27 5 10 15 15 15 19 22 22 23 25 24 14 17 14 23 12 16 14 13 14 7 6 3 7 10 5 7 13 4 4 3 4 11 17
24 22 21 20 22 14 2 13 19 23 18 28 13 9 14 15 15 18 22 22 24 25 18 16 22 19 18 13 17 15 14 16 7 7 7 5 7 14 11 7 5 7 5 6 6
25 17 24 20 23 15 5 21 28 23 25 24 25 18 12 16 16 17 23 17 24 25 20 17 12 19 22 20 19 17 11 10 9 4 4 8 12 5 10 8 8 5 4 6 3
22 4 13 25 21 7 10 18 30 26 27 25 25 20 20 23 15 19 21 21 22 20 20 20 14 12 13 12 16 12 16 9 15 10 6 4 1 6 12 3 7 4 8 2 3
10 5 19 35 10 5 17 36 27 31 27 29 25 23 23 20 19 18 21 17 12 21 25 24 4 9 15 16 16 18 17 16 8 8 4 2 6 2 6 7 5 7 5 4 3
5 4 21 30 12 15 23 35 32 28 32 26 30 27 25 20 18 10 20 16 7 12 18 18 14 10 14 12 17 16 15 13 13 10 12 8 6 4 7 2 6 3 6 9 9
6 7 5 12 17 25 26 35 33 31 31 32 25 23 24 20 18 9 12 14 5 7 3 0 14 13 10 15 14 15 15 18 13 5 8 10 13 14 7 6 8 6 12 11 6
7 7 10 14 20 27 25 20 27 26 31 28 28 27 20 20 16 18 16 15 8 8 3 6 15 17 15 18 18 20 21 20 20 15 14 11 16 17 12 6 3 6 4 3 4
6 7 15 11 23 27 24 29 32 23 26 35 27 27 22 20 19 17 15 11 12 11 11 8 10 12 15 16 20 13 22 19 19 21 19 19 17 15 13 11 14 8 8 9 5
11 23 12 18 23 21 25 33 32 26 22 29 29 25 20 21 13 22 11 4 9 9 13 10 6 11 12 15 18 19 18 19 15 15 12 15 12 12 8 13 9 7 7 6 6

GFSSW_925_spd_051.txt.gz
Wind_Speed
17 16 18 19 19 20 20 20 22 23 24 25 28 30 32 33 39 23 7 9 7 7 6 6 8 11 18 7 9 3 3 7 13 7 4 7 3 5 4 8 4 3 4 11 9
15 16 16 18 19 20 22 21 22 23 23 25 27 30 32 35 32 16 13 13 9 7 7 9 7 13 4 7 5 2 3 10 14 1 4 8 8 4 5 3 3 2 3 10 20
16 17 18 17 18 17 20 21 22 23 23 24 25 28 30 32 6 5 6 18 10 8 11 11 17 7 7 5 11 9 7 10 8 2 5 5 8 18 7 3 2 4 3 5 14
17 19 18 18 19 19 20 21 21 22 22 23 23 25 28 8 5 4 7 12 10 8 7 6 7 6 6 9 12 7 8 7 8 5 4 6 3 8 19 7 8 10 11 9 9
18 18 19 19 20 22 22 22 22 22 21 21 21 21 15 4 10 15 8 9 9 10 10 8 10 8 10 6 8 4 6 6 9 5 12 12 7 8 7 4 7 8 9 10 9
18 19 19 21 21 22 24 25 24 23 19 19 19 18 4 8 13 14 8 9 12 13 9 13 8 11 7 9 7 7 7 7 8 4 5 7 4 5 4 6 8 8 9 8 11
18 19 20 21 22 24 25 26 27 25 20 17 17 12 8 18 14 12 11 12 11 16 7 21 23 5 6 9 8 14 8 9 11 4 5 14 5 4 6 7 11 9 9 7 10
20 19 20 21 23 26 28 29 29 25 21 19 14 7 9 19 17 21 20 22 16 17 24 23 11 4 2 7 10 9 8 6 12 7 5 10 8 5 7 1 12 12 9 8 9
20 19 19 20 22 25 30 33 29 22 17 14 8 6 10 14 11 27 22 18 20 24 16 17 6 2 6 5 6 5 10 12 14 7 6 4 3 10 3 7 10 13 11 10 10
18 20 20 20 20 23 30 36 25 19 7 4 9 4 9 6 12 17 20 20 9 6 6 5 2 4 4 1 7 8 7 8 5 6 9 6 7 6 7 6 9 11 14 12 12
19 19 19 18 17 19 27 15 2 1 6 8 9 7 11 13 18 9 18 14 8 5 10 6 4 9 12 12 17 17 15 9 5 7 4 11 12 12 12 7 9 13 15 13 11
20 18 18 16 16 16 19 5 8 5 10 14 19 21 31 20 10 9 18 8 8 15 9 9 14 15 16 17 18 13 5 8 4 4 5 10 11 15 13 13 13 17 16 16 13
20 19 18 15 16 18 17 18 22 27 5 15 24 16 22 23 19 19 13 13 7 11 11 14 10 17 20 20 8 7 6 7 3 3 6 3 5 10 7 4 3 16 19 18 20
19 17 16 13 11 14 10 13 16 18 5 9 9 9 13 16 8 27 18 12 7 16 14 12 17 19 17 10 5 6 9 4 9 0 3 3 3 9 10 15 20 17 18 19 20
21 17 14 9 14 8 11 22 21 3 5 8 6 10 9 17 7 11 34 7 20 13 9 11 9 14 14 7 7 10 7 2 4 6 5 5 3 5 19 18 20 14 20 21 22
20 18 13 10 19 20 23 28 8 1 10 6 6 6 9 19 10 4 12 15 5 14 15 14 10 14 13 7 9 8 3 3 3 2 4 10 5 4 7 10 16 20 21 24 23
20 20 17 15 6 12 20 9 3 7 7 6 5 9 8 9 19 17 9 12 12 14 17 16 19 16 12 6 5 6 1 3 5 3 6 5 6 8 11 9 16 19 23 22 24
21 19 21 22 20 17 14 3 10 8 16 4 3 12 10 8 14 17 18 14 17 15 6 13 12 17 13 12 8 7 7 5 5 2 4 6 4 5 8 7 6 12 22 21 23
20 20 20 23 20 12 3 9 8 11 14 12 14 8 9 12 8 16 18 18 16 21 16 10 17 7 19 6 8 5 5 8 5 2 4 5 5 5 4 4 3 6 9 16 18
20 13 18 24 18 12 6 22 14 9 16 12 9 7 4 3 11 9 9 12 16 21 21 5 6 14 18 13 10 11 4 3 2 5 4 6 5 4 5 8 6 3 5 6 8
17 4 12 25 19 4 14 18 16 22 18 6 8 13 11 12 10 7 5 10 10 20 20 19 10 11 7 11 15 5 9 3 5 5 6 2 5 5 5 2 6 7 8 8 6
7 5 19 33 7 6 20 13 20 13 18 18 9 14 14 14 13 8 11 11 10 14 20 15 4 11 21 17 20 13 11 9 5 5 2 5 5 8 10 10 8 10 9 8 9
4 3 20 30 11 16 20 27 20 18 18 11 17 8 8 14 5 8 7 12 8 10 14 12 5 10 7 6 8 10 9 5 7 5 6 6 5 7 5 5 4 7 6 8 8
5 5 5 11 11 24 22 23 21 12 24 23 22 19 20 18 13 10 16 7 15 6 11 15 9 9 14 6 4 4 7 10 8 4 5 6 3 7 10 6 6 5 2 8 9
5 6 7 14 21 19 19 4 21 17 17 13 13 22 21 14 14 10 7 11 16 19 7 7 8 17 8 11 13 16 14 16 15 9 7 7 7 8 12 7 7 7 5 2 8
6 6 7 4 16 24 20 26 28 16 16 15 20 21 15 17 16 10 3 4 4 15 9 5 4 9 12 11 7 13 11 9 6 10 12 11 15 17 13 8 6 9 9 7 8
14 11 6 12 12 15 29 33 24 15 21 16 19 17 19 24 16 1 6 5 5 8 11 7 6 5 7 7 4 14 10 15 13 12 9 8 9 7 9 10 10 11 11 13 10

GFSSW_925_spd_054.txt.gz
Wind_Speed
16 15 16 17 19 20 20 21 22 23 23 25 26 28 31 31 37 28 7 9 3 9 5 3 5 5 2 1 4 4 1 5 7 2 5 7 4 3 4 4 2 7 4 6 6
15 16 16 17 19 19 20 20 20 21 22 24 26 26 29 32 31 19 10 10 8 9 7 8 3 3 1 3 1 5 2 8 7 4 5 3 5 1 3 3 2 3 4 4 6
17 17 18 18 18 20 21 22 22 22 22 23 24 25 26 28 7 7 7 11 10 9 8 4 5 2 4 3 4 4 7 16 19 10 9 8 4 1 4 2 4 5 3 0 4
16 17 19 18 19 21 21 24 24 23 22 21 22 22 24 9 6 2 4 12 12 10 8 4 2 2 3 2 3 2 11 15 10 5 5 6 6 2 3 4 11 9 6 4 4
19 19 20 20 19 22 23 25 25 25 23 21 19 19 12 3 11 16 14 9 12 10 9 4 4 3 3 3 6 6 6 10 5 9 6 7 2 6 4 7 9 10 7 7 4
21 20 20 23 22 23 25 27 27 27 25 21 18 16 3 7 12 9 13 14 11 12 7 7 6 6 5 4 1 3 8 9 4 7 5 5 4 4 6 8 10 10 8 5 5
21 20 20 21 23 25 27 29 30 30 28 22 16 9 8 18 11 4 6 11 8 15 5 17 16 2 3 6 0 6 7 10 5 6 5 3 2 3 6 10 9 7 8 8 4
20 20 21 22 22 25 28 31 33 32 29 17 11 4 9 19 22 27 24 26 24 19 21 17 13 5 3 2 7 5 3 3 2 5 3 2 7 5 9 10 8 7 5 6 7
20 21 21 22 22 24 28 33 36 29 20 6 3 4 10 11 10 21 24 13 12 17 20 18 9 6 1 3 4 2 6 6 10 7 7 6 7 4 8 10 11 8 7 6 6
19 20 22 24 21 23 27 35 27 11 3 3 3 2 8 6 5 14 11 20 5 4 3 6 2 3 2 3 5 6 4 3 6 4 3 4 8 1 7 10 13 9 8 7 7
21 22 21 21 22 21 25 15 4 2 1 7 7 6 12 7 16 8 9 10 4 3 8 3 3 9 11 10 5 5 7 11 16 11 4 8 6 8 6 5 9 10 10 9 8
20 19 21 21 22 19 19 4 2 5 10 15 20 22 32 12 8 14 6 7 7 9 6 4 14 15 9 8 8 8 10 15 10 5 7 5 11 1 4 4 8 12 13 12 7
20 18 17 18 20 18 11 12 14 19 4 9 18 14 15 15 13 19 5 7 5 7 8 13 6 14 11 13 9 13 12 10 7 4 2 6 6 3 4 6 7 13 14 13 16
20 17 15 14 13 7 7 9 27 16 4 9 7 10 11 9 7 25 12 8 4 15 7 9 15 14 10 11 10 13 13 6 6 3 3 5 4 4 8 11 8 16 14 16 16
18 16 15 11 12 6 11 26 32 3 4 6 6 5 9 14 6 7 26 5 15 6 9 9 9 10 15 19 10 9 6 9 5 3 2 4 2 6 12 9 14 16 18 17 18
18 16 13 14 15 18 22 27 9 2 9 6 5 7 9 9 3 3 6 6 2 6 6 14 5 5 9 10 9 9 2 5 5 2 3 6 6 4 7 19 18 17 17 20 20
20 17 16 17 3 6 17 11 3 6 4 5 5 8 8 9 9 1 7 16 8 7 11 15 18 14 8 7 4 4 5 2 3 3 6 5 3 8 16 15 20 23 20 21 21
19 16 19 22 19 14 8 3 12 6 11 4 4 3 8 6 6 7 3 7 11 3 5 9 6 14 6 15 8 7 8 5 5 3 4 5 5 5 6 7 17 21 22 20 21
18 17 21 23 18 9 1 9 6 5 4 8 13 5 4 4 5 8 9 7 8 14 7 7 8 8 12 8 9 5 3 8 6 2 2 4 7 9 2 2 8 15 15 17 22
16 11 17 21 15 8 5 16 10 4 8 5 3 3 6 7 3 4 9 7 12 13 11 4 5 8 18 3 7 10 6 4 2 5 3 4 4 6 3 6 5 8 16 18 20
15 4 10 22 17 4 11 12 14 20 17 6 5 4 2 2 4 4 2 5 12 13 16 13 4 7 2 6 8 2 3 2 5 5 6 2 5 7 9 6 6 6 9 15 17
6 5 17 29 7 5 16 13 8 14 10 12 4 6 5 2 4 2 4 4 9 7 7 12 11 15 17 9 9 4 8 9 5 5 3 4 8 5 9 9 7 7 8 8 14
3 3 17 24 11 16 11 16 8 4 6 5 5 10 6 3 5 4 4 9 7 7 6 7 6 2 7 8 2 5 9 11 5 4 8 6 5 2 5 7 8 9 8 8 9
4 5 4 10 7 10 14 19 18 8 17 13 9 7 6 9 5 8 11 8 9 5 10 6 7 15 15 5 4 4 10 13 9 4 5 7 6 6 8 8 10 6 7 9 7
5 5 5 8 17 14 12 9 23 18 13 4 8 19 6 6 9 12 6 7 5 6 7 5 8 6 13 17 16 18 11 8 9 7 9 8 11 12 10 10 12 10 9 8 11
5 5 5 2 12 22 23 22 20 17 10 19 19 9 15 18 17 6 9 6 5 5 5 8 5 4 8 13 9 12 16 15 8 4 8 7 9 8 12 7 5 11 10 9 9
14 8 4 10 11 15 29 20 15 17 11 18 14 17 17 10 6 7 9 8 6 3 3 5 5 9 15 8 12 12 16 7 6 6 6 6 9 8 9 8 9 11 11 10 10

GFSSW_925_spd_057.txt.gz
Wind_Speed
16 15 16 18 20 19 20 21 22 22 22 23 25 26 26 27 34 26 8 9 3 10 10 7 4 3 4 3 3 4 3 3 5 3 5 4 4 3 0 2 2 2 1 2 1
16 17 17 19 21 19 22 21 24 24 23 23 25 25 25 26 27 16 19 10 6 13 10 9 4 5 2 2 2 4 4 6 7 6 6 3 6 7 4 2 3 2 1 6 4
16 16 19 21 22 21 23 25 24 26 25 25 24 25 24 21 6 6 9 9 10 12 4 5 5 3 2 3 4 5 5 5 13 9 8 5 3 2 2 3 5 5 4 7 8
14 16 19 21 24 24 24 27 26 26 26 25 24 23 24 5 5 2 8 5 9 10 6 4 3 3 4 5 5 2 7 6 7 6 7 4 3 4 4 2 5 6 5 1 6
16 17 20 23 23 26 28 28 29 28 27 26 23 20 12 3 10 11 16 10 10 10 8 5 5 4 4 3 3 5 4 4 7 2 3 5 5 4 3 4 4 4 5 3 4
20 16 18 23 26 25 27 29 30 30 29 27 22 16 4 7 6 7 8 8 11 11 6 7 5 7 3 4 3 5 5 9 4 6 5 6 3 2 6 7 6 5 4 3 2
18 19 16 18 26 28 29 30 31 31 31 28 20 8 8 18 5 3 1 4 7 10 3 11 7 1 1 5 3 2 5 6 4 6 6 5 5 8 7 10 7 5 5 4 4
19 20 21 21 23 31 30 32 34 34 34 28 11 4 9 19 17 19 17 22 18 17 20 17 11 4 4 3 6 5 1 2 2 5 3 6 14 1 10 12 9 7 5 5 5
20 21 20 19 25 28 31 34 38 35 25 7 4 4 11 10 10 10 14 10 15 18 16 9 5 6 2 4 4 2 5 2 7 8 2 5 9 1 10 10 7 6 6 5 3
20 21 22 23 25 26 31 37 24 4 8 7 4 2 9 5 4 9 10 17 5 4 2 6 4 4 3 3 6 5 4 2 5 3 2 2 17 2 7 7 9 7 7 7 6
20 20 20 20 22 25 30 17 6 2 3 8 7 6 7 6 8 4 2 8 5 4 6 5 4 10 15 8 5 1 2 4 9 10 7 10 5 10 6 6 7 7 8 8 8
20 21 20 19 20 22 21 2 4 4 11 15 19 20 33 10 8 15 3 6 6 6 6 3 13 8 6 5 5 5 6 10 9 11 8 6 8 6 7 5 9 12 10 10 6
21 18 18 17 19 17 5 6 6 15 6 10 10 11 12 15 13 21 6 4 5 8 9 8 5 14 9 5 5 8 7 8 8 8 3 3 7 3 5 4 7 9 7 6 9
20 17 16 14 13 6 4 1 19 17 5 8 7 9 7 8 7 22 17 7 6 14 7 8 14 5 5 9 8 8 10 13 8 4 4 4 4 5 5 6 8 8 10 11 10
19 16 15 12 9 5 7 24 20 2 5 4 5 2 8 13 3 8 17 5 10 7 8 10 8 11 14 16 8 10 5 10 11 5 3 2 2 6 1 7 11 12 13 13 13
19 16 15 12 13 18 16 22 8 4 9 5 4 6 7 7 3 4 7 4 5 5 3 14 2 6 8 8 11 9 3 1 2 3 2 5 5 5 5 8 7 6 12 14 14
20 17 17 16 4 7 13 8 5 7 6 5 0 6 5 6 4 4 8 12 9 7 8 8 6 4 1 3 3 4 3 3 2 1 6 5 3 8 9 13 13 15 16 16 15
20 17 21 21 20 16 7 3 13 4 8 6 6 2 5 6 5 6 7 10 7 4 4 10 5 11 6 13 5 6 9 5 6 4 5 3 5 6 7 11 9 10 15 12 15
18 18 21 17 18 8 2 8 4 4 5 9 8 4 3 1 2 3 5 7 11 7 6 6 6 4 5 6 9 4 5 7 6 3 2 4 6 7 6 5 3 8 8 13 15
17 10 18 15 15 9 3 11 5 2 6 7 3 4 5 6 4 3 7 4 7 18 7 4 2 4 6 4 5 6 5 2 2 5 4 3 4 5 6 6 7 6 10 13 14
17 4 9 20 19 4 9 7 10 18 11 4 4 5 5 4 5 3 1 7 4 4 14 10 3 5 4 5 8 2 4 3 2 5 6 1 5 7 7 8 8 8 9 11 13
7 6 22 32 6 4 10 7 9 12 3 3 4 3 3 6 3 2 3 4 8 7 5 9 5 13 19 8 3 4 7 8 5 4 2 4 9 4 9 7 5 6 8 6 10
3 3 21 24 10 12 4 11 10 6 8 3 3 5 4 2 3 3 6 6 10 9 0 2 3 10 8 4 5 6 5 7 3 3 8 7 6 3 5 6 7 7 6 8 7
3 5 4 7 2 15 8 9 13 12 7 3 3 2 1 3 3 5 5 5 14 6 8 4 4 7 12 7 4 4 8 7 10 6 4 8 9 6 8 7 9 9 9 6 9
5 4 5 7 14 9 15 8 15 12 12 1 5 13 5 2 3 4 9 12 4 4 3 4 2 7 12 10 13 8 7 8 7 10 12 10 10 12 11 10 11 10 6 7 9
5 4 4 2 14 20 15 15 14 16 6 9 13 7 5 11 8 6 12 5 6 3 4 1 2 7 6 8 8 14 16 20 14 7 8 6 6 7 10 10 6 10 10 9 9
12 7 3 8 13 16 20 18 14 12 10 20 8 7 8 14 9 10 10 7 9 11 4 3 3 4 4 12 9 10 12 17 8 6 7 8 9 7 5 9 11 13 9 11 13

GFSSW_925_spd_060.txt.gz
Wind_Speed
16 16 16 17 19 20 24 26 26 26 27 27 29 29 28 26 30 21 9 10 4 12 11 14 8 7 4 2 2 4 3 3 4 5 6 4 3 4 1 2 1 3 1 1 4
15 15 15 16 19 21 22 25 31 28 29 29 29 31 30 27 22 15 15 11 7 19 14 12 6 7 2 3 1 4 4 7 7 6 7 9 5 3 2 3 3 3 0 2 2
18 19 19 19 18 20 24 27 27 34 28 31 31 29 30 23 6 6 10 8 14 20 6 6 11 5 3 2 4 5 6 5 6 10 8 6 2 4 3 5 7 5 3 4 2
18 18 20 19 21 22 22 25 27 29 33 29 29 29 25 7 4 2 11 7 12 16 9 8 4 4 4 5 4 3 8 5 7 4 3 3 3 2 6 5 0 4 4 3 2
18 18 19 19 21 22 25 24 28 29 31 29 28 26 12 4 10 8 11 8 9 13 9 6 5 5 5 4 4 4 5 4 7 10 4 4 5 4 7 6 4 6 6 5 3
19 20 19 21 22 24 27 29 28 29 30 30 25 20 4 6 6 7 6 6 11 14 8 8 6 6 4 4 6 5 5 7 7 6 4 5 1 2 5 7 5 6 6 4 5
19 21 22 22 21 23 27 32 29 30 31 31 24 11 6 18 9 6 5 3 7 8 5 7 4 3 1 2 4 3 4 6 5 3 5 4 6 10 5 8 7 7 5 6 5
20 23 23 24 25 27 28 32 33 34 36 30 16 5 9 15 16 16 21 21 18 10 5 5 4 4 4 3 4 2 3 3 4 5 2 7 10 2 6 11 8 7 7 7 7
22 23 24 25 27 28 31 35 35 24 24 11 7 6 10 8 9 10 16 11 18 15 9 5 7 5 2 3 4 5 4 4 7 6 4 5 9 3 5 5 6 7 7 7 5
22 23 24 24 26 27 30 34 18 7 10 7 4 1 10 5 3 2 4 9 4 8 4 4 3 4 2 4 7 5 4 4 6 2 4 5 15 4 7 9 9 7 7 7 7
20 21 22 23 23 25 28 14 5 2 4 8 4 5 6 7 4 4 3 6 3 4 8 5 5 11 12 5 4 4 2 3 7 5 2 8 9 15 6 7 8 8 9 8 7
20 20 21 21 20 21 19 3 2 6 12 15 21 17 36 14 8 9 7 6 6 7 6 3 13 8 8 7 6 3 2 7 10 7 6 8 10 8 5 6 9 10 9 8 7
19 21 20 18 18 12 6 5 6 18 6 12 10 9 12 16 15 23 6 5 5 7 13 8 5 13 9 6 7 6 6 5 8 8 4 2 7 6 4 4 5 7 5 6 11
21 22 19 14 10 5 6 5 19 14 5 9 6 8 7 9 8 19 21 8 5 13 6 7 6 5 5 12 9 7 10 10 7 2 4 3 5 6 4 7 7 8 10 9 10
22 22 18 10 8 3 7 20 22 2 5 2 4 4 6 12 3 4 13 3 9 7 7 8 9 13 6 6 8 9 6 8 5 5 1 3 2 7 3 7 8 10 11 12 11
24 22 18 11 9 14 16 16 6 4 8 6 2 3 6 6 4 4 5 1 5 5 1 7 2 8 11 6 11 4 4 2 3 3 2 7 5 5 4 9 5 4 12 13 13
25 22 18 13 2 4 8 8 3 6 5 4 5 3 6 4 5 5 8 9 8 7 8 1 6 2 3 5 4 4 4 1 2 0 5 3 2 10 9 9 10 9 10 11 13
22 21 21 18 14 12 6 2 10 4 6 7 5 14 6 6 5 5 9 7 5 5 6 9 3 8 5 8 7 7 7 5 6 3 4 1 5 6 6 9 8 8 8 9 12
20 21 16 15 14 8 2 6 3 2 3 9 11 4 3 2 2 3 6 7 7 6 6 6 5 3 5 6 12 5 5 6 6 2 2 4 6 9 8 9 4 4 6 8 11
16 11 16 13 16 12 3 8 5 3 5 5 4 6 5 7 5 1 6 5 4 11 0 6 1 4 3 4 3 7 7 3 1 5 4 3 3 5 8 9 9 5 7 8 7
11 4 6 20 20 4 6 6 6 16 6 4 4 5 4 5 4 5 3 6 12 6 7 3 3 4 3 4 7 3 3 2 4 4 5 3 5 7 10 7 8 9 9 8 8
6 6 10 30 6 2 3 7 6 10 3 4 3 5 3 6 6 7 6 6 13 6 5 5 3 5 10 6 2 4 7 9 4 4 3 3 8 4 9 6 7 9 8 6 9
4 4 10 21 9 5 6 4 4 6 3 2 3 3 4 4 4 4 6 7 13 15 6 4 2 2 7 4 3 4 6 5 2 3 7 6 5 3 7 6 7 8 9 6 6
2 6 3 5 3 12 8 7 7 7 15 4 3 1 3 4 3 5 8 6 15 7 7 1 1 1 2 2 2 3 7 10 8 4 3 5 5 5 7 8 8 8 9 10 7
5 4 4 5 7 11 14 9 12 8 8 5 4 5 2 3 4 3 3 5 6 6 4 2 2 2 4 4 6 12 9 6 9 6 8 5 8 9 12 11 12 9 8 7 9
4 4 4 2 11 16 15 16 14 13 6 5 9 4 3 4 6 5 5 2 5 5 6 4 1 1 3 10 12 6 9 10 8 5 6 7 8 10 10 7 7 11 9 9 9
14 7 3 6 10 13 10 13 17 9 5 11 3 5 6 13 9 12 9 8 9 5 4 4 2 2 1 5 11 4 3 6 9 10 7 12 8 9 6 8 10 11 10 11 12

GFSSW_925_spd_063.txt.gz
Wind_Speed
15 15 15 17 20 22 22 25 25 26 25 26 28 28 28 30 30 22 9 12 6 14 16 17 10 9 6 4 4 3 2 4 5 6 5 4 5 2 1 3 3 5 4 3 6
16 17 17 18 20 21 23 23 24 26 25 26 27 30 30 28 22 15 13 12 11 17 19 18 8 10 4 4 4 4 4 8 7 5 6 9 7 6 3 4 5 3 5 4 4
16 17 18 19 20 20 21 24 24 25 26 25 26 27 31 20 6 4 15 10 13 22 14 11 14 7 5 3 5 6 7 6 5 12 7 6 4 4 4 8 7 5 4 4 3
17 17 18 20 19 22 23 24 26 24 25 25 24 24 25 7 5 2 11 6 11 16 13 10 6 7 5 7 6 4 9 7 4 4 2 4 1 4 9 2 4 6 2 4 2
17 18 18 17 18 22 25 26 28 27 25 23 22 21 11 4 10 12 12 6 11 14 7 6 7 6 7 6 7 6 9 5 10 7 6 3 8 5 9 7 8 8 4 5 3
19 19 19 20 20 22 25 29 30 30 29 23 20 15 3 6 6 8 6 5 11 14 7 6 7 6 4 5 7 6 7 9 7 9 3 5 2 2 1 12 10 8 7 6 5
18 20 21 22 22 22 27 30 33 33 32 26 14 2 4 17 10 8 8 5 9 8 4 9 4 4 6 3 4 1 6 7 8 4 4 6 6 9 3 11 11 9 8 6 6
19 20 21 24 24 26 27 33 35 33 28 18 9 7 8 16 18 20 18 22 16 12 7 4 5 3 3 2 2 3 1 5 1 5 1 6 13 3 4 13 12 11 9 7 6
18 20 23 24 25 26 28 34 36 17 13 8 8 8 10 9 8 15 17 11 14 15 10 3 4 4 3 4 2 0 6 6 6 4 3 5 8 0 4 10 11 12 10 8 7
18 20 22 24 25 25 29 36 15 2 6 4 9 3 8 4 7 4 5 9 2 9 4 4 2 4 4 10 11 8 5 4 5 1 2 4 15 16 7 11 12 12 12 10 10
18 18 20 23 23 24 28 14 6 2 5 8 8 4 2 10 14 3 3 5 3 5 10 5 8 15 19 14 5 7 5 4 5 5 3 6 13 18 7 10 12 12 12 12 12
16 18 20 23 21 21 12 3 5 4 12 15 22 17 30 5 8 10 6 5 6 10 10 5 19 14 8 8 11 6 6 9 10 2 8 10 14 15 5 5 10 13 13 13 11
14 17 19 21 18 10 8 2 11 14 5 14 12 10 12 17 18 24 5 2 7 9 18 19 5 15 14 8 11 11 13 7 10 6 3 5 5 6 2 3 5 10 10 12 15
16 17 17 19 8 7 7 2 18 10 5 7 4 6 8 9 10 28 17 9 6 14 8 14 8 13 12 16 14 15 12 8 7 4 4 3 7 6 7 7 7 10 13 13 16
15 17 17 13 10 3 7 17 16 1 6 1 3 5 7 11 4 4 22 13 19 7 7 9 10 12 13 11 14 11 9 11 7 6 3 2 4 4 2 7 10 10 15 17 17
17 18 17 14 6 10 11 13 2 2 7 6 1 1 6 9 5 2 8 4 7 4 3 9 3 10 19 7 18 8 5 4 3 2 5 7 5 5 3 6 4 6 8 14 16
17 16 14 12 3 1 5 5 2 5 6 5 6 5 6 6 6 6 10 16 9 12 12 6 8 2 4 6 7 5 8 3 4 5 5 3 6 13 9 13 10 12 11 10 16
18 17 16 14 12 11 1 1 7 4 6 8 8 12 4 3 6 8 9 12 11 3 9 10 6 11 5 6 9 18 13 6 8 6 4 2 6 5 9 7 8 10 11 7 15
18 18 11 17 12 12 3 4 3 5 4 9 15 3 4 5 4 3 7 3 9 8 7 9 9 3 5 5 8 6 10 6 5 2 1 4 5 8 8 9 3 8 4 6 13
11 8 13 17 14 12 7 9 6 3 5 5 3 6 6 8 10 5 5 8 4 9 3 6 3 5 11 2 3 5 9 5 0 7 8 3 4 6 7 10 8 9 5 5 7
6 3 6 14 19 4 5 6 5 12 7 3 3 5 5 5 5 6 5 5 11 8 6 3 0 1 6 7 12 7 8 2 4 3 8 6 5 7 11 8 7 7 9 4 8
3 4 5 22 6 2 3 7 6 4 2 4 2 4 3 5 5 6 7 6 10 13 3 3 2 3 4 2 4 4 8 10 5 5 1 1 8 3 9 7 6 10 7 6 5
3 3 8 13 6 10 3 5 5 5 4 0 1 2 2 3 4 4 5 7 13 10 6 5 3 2 4 3 2 5 5 4 2 1 12 7 4 2 5 10 7 9 7 6 5
3 3 4 6 6 11 8 7 6 5 4 4 3 2 3 3 2 4 4 6 9 6 10 3 2 1 4 3 3 2 3 9 11 4 5 6 7 5 6 9 13 9 9 7 7
4 4 4 4 11 11 14 12 13 8 7 3 4 11 6 5 4 5 6 5 8 9 5 5 2 4 5 4 3 3 8 9 9 11 10 9 9 10 7 9 14 10 9 8 7
3 4 4 6 4 16 12 13 14 11 8 4 7 2 7 7 6 4 5 4 3 7 7 8 1 1 2 4 2 6 8 6 6 4 7 10 10 9 12 6 9 14 13 13 13
12 6 3 6 6 7 5 12 15 12 4 11 5 6 9 11 7 10 9 9 10 7 5 4 1 1 2 4 5 1 2 1 1 1 3 4 10 13 12 10 9 13 12 12 11

GFSSW_925_spd_066.txt.gz
Wind_Speed
14 14 15 16 17 18 19 20 22 21 19 22 25 28 30 31 31 16 15 11 9 14 15 15 13 13 14 10 8 5 9 11 12 14 10 3 6 3 5 11 7 6 7 2 2
15 15 15 16 17 18 19 21 22 24 25 22 22 27 31 29 24 21 15 14 13 15 18 22 17 16 13 13 8 12 12 15 6 10 7 8 9 9 6 10 11 10 10 6 2
16 16 16 16 17 19 20 22 23 24 25 25 22 23 27 23 14 1 7 12 15 16 16 20 15 16 17 11 14 13 18 12 8 11 7 11 11 2 9 13 11 11 5 6 2
16 16 16 16 18 19 20 21 25 26 27 25 24 23 24 8 8 4 9 11 10 17 12 16 15 17 16 15 16 13 18 15 11 7 10 11 10 11 12 15 6 4 3 5 3
15 16 17 17 18 20 22 23 25 26 28 26 22 21 13 7 12 14 16 8 5 14 17 16 17 18 17 13 12 19 18 13 15 13 13 12 15 15 15 11 7 4 5 5 3
17 17 19 19 19 22 24 26 27 28 28 28 21 15 9 14 7 8 11 8 6 15 13 15 11 16 9 13 15 6 18 18 14 15 14 13 18 3 12 5 10 9 7 5 4
18 17 17 20 21 24 26 29 30 30 33 27 19 9 12 19 16 14 16 13 9 15 16 16 15 10 8 11 16 13 15 15 16 16 17 9 18 17 13 8 10 11 8 6 5
18 18 19 19 21 24 27 30 32 34 27 17 9 8 9 15 16 18 14 20 19 13 13 12 15 13 9 3 5 14 14 15 12 11 8 10 17 3 5 9 11 10 9 9 7
19 17 18 19 21 24 27 31 32 17 10 3 7 8 10 5 6 9 4 14 12 18 13 7 10 14 12 13 12 13 15 16 12 8 4 12 11 7 5 9 10 10 11 10 8
19 18 16 19 21 24 27 29 10 1 3 3 2 6 12 10 6 1 4 10 8 13 12 13 10 12 15 15 18 17 15 15 14 7 10 13 15 14 7 9 10 11 11 12 11
18 17 16 19 21 22 22 10 3 5 6 9 11 14 19 9 7 6 4 6 9 15 18 20 15 22 25 23 19 13 14 15 7 4 5 14 15 13 6 8 11 12 12 13 12
17 15 16 17 20 17 10 5 5 5 12 21 25 24 32 17 8 6 8 9 12 15 20 13 23 21 17 19 19 17 16 14 8 5 11 15 15 14 11 8 9 11 13 13 13
16 14 15 16 17 5 7 4 6 12 7 13 10 11 11 17 15 9 11 9 12 15 19 24 7 20 16 17 19 21 19 16 13 3 11 11 16 18 12 6 6 9 10 13 15
14 14 14 16 4 8 4 5 12 8 5 4 3 3 4 7 8 28 10 11 12 14 17 17 25 8 20 24 19 20 20 17 14 8 9 3 13 14 9 16 10 8 12 13 16
13 13 13 9 10 4 7 12 11 3 6 4 2 2 6 8 5 8 28 11 23 18 7 13 12 22 18 21 19 20 10 12 16 11 11 15 9 14 5 12 11 10 11 14 16
14 14 12 8 5 5 5 9 4 3 6 3 2 2 4 11 5 4 8 18 16 18 19 25 4 14 22 14 16 7 7 8 9 10 12 13 11 9 3 4 2 4 2 10 16
14 13 10 7 3 0 6 5 4 6 4 1 3 8 15 15 8 9 11 21 15 19 20 25 21 12 14 21 15 15 12 6 8 8 11 7 9 15 5 8 10 7 6 7 15
14 14 11 10 6 6 3 3 9 2 9 9 8 16 6 10 6 13 12 15 23 18 8 15 14 20 13 16 14 24 21 8 10 10 8 9 7 4 4 2 4 9 8 5 13
13 13 12 12 10 9 3 7 4 9 3 7 13 7 2 8 7 6 10 7 15 23 17 18 18 13 13 12 15 16 17 14 6 2 4 9 8 9 11 10 5 7 4 4 12
10 9 14 13 12 12 4 9 10 8 4 5 6 3 5 8 7 5 4 6 5 19 16 5 11 16 21 12 16 11 12 11 10 13 10 7 10 6 8 5 3 3 9 1 8
7 4 4 12 15 5 6 10 12 16 8 4 3 5 5 6 8 3 1 6 16 11 15 9 8 6 13 16 19 13 10 9 8 13 11 7 5 6 11 5 0 7 9 3 5
5 4 4 17 7 5 9 13 5 14 14 15 7 7 8 7 6 0 1 4 14 20 9 14 5 6 16 5 16 17 20 18 9 11 8 10 10 6 5 5 4 8 7 4 3
4 6 7 12 7 11 7 14 12 12 13 9 10 6 4 5 4 3 4 9 11 15 12 4 7 10 9 7 4 11 12 12 17 13 12 9 3 1 3 9 6 7 11 6 2
3 3 7 6 9 10 16 16 15 13 17 13 7 6 8 10 7 7 6 2 10 8 19 8 5 11 9 5 1 7 10 13 12 11 13 15 16 13 9 12 14 11 10 8 7
4 5 6 5 10 15 12 7 15 15 14 12 11 16 15 11 12 13 14 13 5 3 4 8 0 1 2 0 1 1 3 9 13 13 13 10 11 11 11 9 10 14 12 11 12
4 4 3 9 6 15 16 14 20 20 13 12 13 9 11 18 17 16 7 7 3 6 3 5 3 4 1 1 5 7 7 6 10 9 7 8 10 8 10 13 12 14 15 16 13
8 9 4 10 13 12 10 15 14 14 13 14 11 7 12 12 7 10 10 10 12 7 5 3 2 3 2 2 4 7 13 5 5 4 4 5 4 7 8 10 13 14 10 16 15

GFSSW_925_spd_069.txt.gz
Wind_Speed
13 13 14 15 16 17 18 19 21 22 22 23 24 26 27 27 31 25 21 19 8 15 12 13 19 20 19 18 21 12 15 15 21 16 12 5 6 11 4 11 11 8 9 5 1
15 15 15 15 16 18 20 21 23 23 24 24 25 27 29 27 29 29 13 12 19 20 15 22 20 20 17 19 18 17 14 22 19 10 11 10 11 9 6 13 14 12 13 8 7
16 16 16 17 18 19 20 21 23 23 24 25 25 25 27 26 17 5 6 13 14 19 22 24 23 20 21 18 21 21 21 21 15 9 15 11 12 12 9 14 13 12 13 4 7
17 17 16 17 19 21 22 23 25 26 24 24 24 24 26 14 7 7 13 17 10 9 17 25 22 22 21 23 21 22 23 20 22 13 12 15 15 15 14 15 12 7 6 5 8
18 19 18 18 19 21 24 26 27 28 27 25 25 21 15 9 22 19 14 11 3 8 19 19 23 21 24 22 22 22 24 21 18 20 17 15 18 17 19 16 15 3 5 8 7
17 18 18 18 21 23 25 27 29 29 29 29 24 15 10 17 16 15 10 8 6 9 16 21 17 19 20 23 22 20 19 22 23 19 18 19 18 18 21 16 11 7 10 8 9
18 18 18 20 21 24 27 30 31 31 31 29 19 10 12 22 15 17 18 19 13 12 16 20 22 14 20 18 19 19 21 19 19 22 21 17 22 20 23 16 10 10 11 9 10
18 19 19 20 21 25 28 32 32 33 28 16 11 11 9 14 17 23 22 20 17 14 18 23 22 19 19 13 15 16 21 19 21 23 20 17 18 19 3 9 11 11 11 10 11
19 19 19 20 21 25 29 32 32 20 11 9 7 10 10 1 8 14 21 18 10 11 17 18 20 18 19 17 16 20 16 22 21 11 10 12 16 10 6 6 11 11 11 11 11
18 18 18 19 22 24 29 26 20 11 7 8 11 7 7 7 8 4 5 2 8 2 15 16 12 17 19 17 18 19 20 19 19 12 13 16 18 15 12 10 10 12 11 12 12
18 17 17 19 21 24 23 25 3 7 8 13 12 13 26 15 10 11 8 8 4 2 16 21 17 22 25 24 22 22 18 16 11 12 10 15 17 15 13 13 11 12 11 12 12
18 17 16 18 20 19 16 6 4 7 14 19 22 23 28 24 22 15 3 10 6 16 16 22 25 23 23 23 25 25 23 18 17 6 8 15 17 18 16 15 12 13 12 10 13
16 16 15 17 18 12 9 5 8 11 8 10 5 7 6 9 21 21 12 7 10 13 19 24 22 23 22 22 26 23 23 20 19 7 10 15 18 18 16 18 8 10 11 11 14
16 14 14 16 11 7 10 5 11 10 6 7 3 2 3 4 4 19 21 11 6 10 13 18 29 11 22 27 22 22 20 20 18 14 13 13 14 14 17 20 17 16 13 12 13
14 13 12 10 14 12 8 10 10 6 6 4 7 4 3 6 9 5 18 16 14 8 5 9 17 20 23 24 23 21 17 16 18 16 16 18 10 14 14 14 10 13 16 14 13
15 13 11 13 12 11 10 10 9 6 7 3 3 1 7 10 7 3 16 15 4 9 19 23 27 16 19 23 17 17 18 17 11 14 15 18 15 11 10 7 2 7 7 15 14
16 14 11 11 11 3 6 11 6 7 3 3 1 6 13 17 5 12 11 19 10 4 14 19 23 23 25 18 21 25 14 9 11 13 14 16 12 14 6 8 5 7 9 11 14
15 14 14 15 14 12 9 8 10 8 10 3 8 12 17 10 6 13 11 14 18 12 7 9 13 20 17 19 18 20 21 12 11 11 13 17 7 8 5 3 6 4 7 5 13
14 16 18 17 15 12 5 11 7 10 11 4 11 15 14 3 4 7 15 13 11 19 9 8 12 16 20 13 17 21 21 20 14 6 9 9 10 3 7 8 8 6 3 6 12
14 14 18 16 17 13 6 15 14 9 5 5 11 7 11 5 6 5 6 3 4 5 16 16 18 13 18 15 18 20 15 20 15 9 8 9 15 6 6 9 8 6 5 1 7
12 4 8 18 17 6 11 17 15 16 10 9 12 12 11 11 7 4 1 4 10 11 17 22 17 8 22 15 21 17 18 14 14 13 8 7 5 1 11 7 4 6 5 3 5
13 5 5 17 9 8 10 18 18 11 13 17 16 15 15 15 11 7 1 4 5 12 12 15 6 13 15 25 23 21 19 17 10 16 15 10 5 1 4 5 3 5 1 6 2
5 8 7 16 9 13 15 17 19 15 17 17 18 20 16 16 8 10 4 4 4 13 10 9 8 13 6 9 18 24 23 20 14 10 9 8 7 13 6 3 7 4 5 4 4
3 4 8 8 10 15 17 16 18 18 20 16 16 15 16 14 16 8 5 7 7 4 16 12 11 13 13 7 12 17 18 19 18 12 15 14 11 11 5 5 7 13 10 9 4
4 5 6 8 14 17 17 8 20 18 14 16 18 19 14 13 17 18 16 14 6 7 5 10 6 10 15 8 5 8 10 14 16 15 13 13 15 14 6 5 6 6 9 12 11
5 6 8 12 13 16 19 19 16 14 15 15 17 18 17 18 17 18 12 8 8 3 0 6 3 10 13 10 5 8 10 11 13 10 10 13 11 7 7 6 6 9 11 10 12
14 17 7 7 15 11 11 19 17 18 18 15 21 15 15 12 12 13 11 10 10 8 2 4 3 6 2 1 4 8 12 8 10 14 13 11 5 2 2 7 7 9 11 14 14

GFSSW_925_spd_072.txt.gz
Wind_Speed
13 14 15 16 17 17 18 19 20 22 24 25 28 29 31 32 35 28 20 20 11 17 15 14 12 21 24 19 22 20 14 16 22 23 21 9 6 4 8 8 10 11 9 5 11
15 14 14 14 16 18 18 19 20 22 22 25 27 29 31 33 34 34 22 11 12 16 14 15 17 19 16 21 19 19 16 23 21 23 20 13 11 10 13 10 12 12 5 16 8
17 16 16 15 16 18 20 21 22 23 24 25 27 28 31 30 19 5 4 6 15 15 18 21 25 19 22 21 23 23 23 21 22 23 16 10 20 7 9 13 11 9 1 3 10
18 20 21 19 19 19 21 23 24 25 25 25 26 27 30 15 7 1 8 13 15 5 9 16 20 23 23 24 24 24 27 23 23 22 23 13 18 11 15 11 10 13 3 1 5
18 19 20 20 21 23 24 25 26 26 27 26 24 23 16 7 17 19 20 10 7 4 11 14 19 21 24 23 24 27 25 24 23 22 19 20 16 16 18 14 15 13 8 3 6
19 20 21 22 23 24 26 27 29 29 29 27 25 17 10 16 14 12 12 10 13 12 11 15 18 19 24 25 23 25 25 25 23 21 20 21 17 17 17 17 20 15 10 9 10
21 21 21 22 24 26 27 29 31 31 31 29 20 10 15 25 16 25 23 19 15 15 13 15 20 20 18 24 24 25 26 22 22 20 21 22 22 21 19 20 19 16 9 9 11
22 22 23 23 26 29 30 32 33 31 27 20 10 8 9 18 17 20 18 21 22 17 18 17 22 18 17 21 22 25 22 21 22 22 22 19 20 20 19 21 18 9 9 11 10
22 23 24 24 25 29 33 34 32 21 20 13 7 9 10 5 12 9 9 13 14 19 12 13 15 12 16 17 16 17 19 23 24 23 21 24 23 19 20 5 7 11 12 11 10
18 23 23 25 26 28 33 35 25 27 16 11 14 9 12 10 6 11 7 7 8 10 9 11 8 12 17 15 17 19 21 21 22 20 24 16 15 13 16 14 13 12 12 12 12
17 20 20 24 26 26 32 21 5 5 13 14 9 13 27 24 25 15 15 7 8 8 14 8 12 18 23 21 22 20 22 23 21 20 18 18 16 16 16 15 14 12 11 11 14
19 20 21 21 24 26 26 8 5 9 13 20 24 24 26 27 20 20 12 6 12 13 14 9 21 19 21 21 22 22 24 25 23 12 8 11 13 15 16 15 14 15 13 13 15
20 20 20 21 22 20 13 13 11 12 7 15 10 9 7 6 12 16 17 11 14 13 13 19 16 17 22 28 24 22 23 22 24 20 18 9 16 17 20 18 16 13 10 12 16
19 18 17 20 15 15 13 4 11 8 5 7 10 6 8 4 5 3 16 13 2 8 10 8 15 18 18 29 23 22 21 25 24 18 14 15 13 16 19 18 16 15 12 9 9
18 16 15 14 18 14 15 14 11 3 5 11 10 8 5 6 6 7 12 14 11 7 5 4 10 21 24 25 21 23 15 23 21 18 17 19 11 13 13 14 17 18 15 15 10
18 16 15 16 16 17 14 13 11 4 8 9 9 9 11 15 12 9 10 7 1 10 14 15 12 9 13 22 20 17 18 23 21 15 16 18 16 14 14 13 15 13 9 16 13
17 16 14 15 18 15 12 8 5 6 3 9 7 3 6 10 12 12 11 14 8 4 10 14 25 18 18 20 16 22 10 8 8 13 12 15 13 14 16 6 7 4 5 12 13
19 17 16 18 19 15 13 5 10 8 15 0 5 7 13 15 13 5 11 12 16 10 8 5 4 18 11 19 11 17 20 9 7 8 12 18 10 18 18 13 9 4 5 11 10
18 19 22 20 19 16 5 10 6 15 16 14 9 7 16 15 5 9 16 13 9 15 7 4 5 6 17 10 8 12 19 25 13 9 6 9 17 3 6 6 8 9 10 10 10
18 17 23 20 21 17 8 17 18 14 10 6 7 7 12 12 3 1 1 2 3 4 12 4 8 12 17 14 19 23 19 15 10 7 6 5 16 8 15 12 11 5 4 2 6
10 5 14 26 21 6 11 18 18 22 16 8 9 14 16 11 11 7 2 6 4 3 5 7 7 3 7 7 18 11 15 14 12 13 6 4 6 8 11 7 11 9 7 4 3
7 5 12 31 8 4 10 18 21 17 11 12 12 13 15 16 12 9 9 6 7 5 3 5 5 9 19 16 20 17 20 18 9 19 12 6 1 8 5 6 9 8 6 7 3
4 9 19 12 8 13 15 22 22 21 19 13 16 15 16 16 15 9 14 10 7 4 5 6 5 6 9 10 16 16 19 19 12 10 8 4 5 4 7 6 4 2 7 3 7
3 4 9 7 10 14 18 18 19 21 20 17 16 16 13 16 17 7 5 7 7 4 7 5 6 9 10 9 8 14 22 22 17 4 7 7 7 5 9 2 0 1 8 11 9
3 5 5 8 11 16 18 7 16 18 17 16 15 19 16 15 14 16 18 11 11 8 3 3 5 8 13 16 16 14 16 21 22 19 15 11 16 12 15 14 5 10 9 8 10
3 4 8 6 11 16 17 18 19 14 17 16 16 18 19 17 14 14 15 11 6 8 3 3 4 11 10 15 15 16 12 14 11 15 15 11 6 8 5 7 12 15 15 15 15
10 19 6 7 10 11 10 19 19 18 14 18 10 16 12 12 6 7 13 2 13 7 5 3 1 4 4 13 7 9 12 10 10 10 8 9 4 7 4 6 13 13 13 12 12

GFSSW_925_spd_075.txt.gz
Wind_Speed
12 14 15 15 16 19 20 22 22 23 24 25 27 28 31 32 35 27 11 17 8 8 13 13 10 11 14 5 9 4 10 12 16 15 20 15 3 3 6 4 4 5 8 11 26
13 13 15 18 19 20 20 21 24 25 25 26 28 29 30 33 33 19 10 8 11 9 11 12 8 9 5 5 5 9 10 15 12 17 18 12 5 7 4 6 5 1 10 22 25
15 16 16 17 19 21 22 22 24 25 27 27 27 29 31 28 8 4 8 2 4 9 13 15 15 9 9 9 9 10 19 15 16 21 18 11 12 6 3 4 4 6 10 13 9
19 18 18 18 19 21 24 25 26 26 28 27 26 27 30 8 4 2 2 11 5 6 2 4 5 4 5 12 14 17 20 20 20 22 23 17 7 9 4 6 3 4 6 12 8
18 20 21 22 21 21 24 26 28 28 28 28 25 22 14 4 11 13 18 22 6 5 8 8 7 7 9 9 11 17 18 20 21 21 23 17 16 9 9 8 6 5 9 9 9
21 23 22 23 24 25 27 29 29 30 30 28 24 15 6 10 11 10 15 13 13 13 10 8 6 10 12 14 16 16 18 20 19 20 15 18 18 4 10 7 9 9 11 10 10
22 21 24 25 26 29 31 32 33 33 30 27 17 8 8 21 10 17 16 16 19 21 5 18 11 5 9 11 14 18 17 17 18 17 12 16 15 15 11 10 12 12 10 12 11
21 21 25 27 28 30 32 34 36 34 27 19 9 4 8 23 19 22 19 19 16 20 18 19 21 6 4 7 11 10 13 15 13 11 15 7 18 12 12 9 13 12 9 13 11
23 21 24 26 28 31 34 38 36 31 19 15 4 7 9 16 7 12 17 8 10 12 15 18 9 5 4 4 5 6 9 12 17 14 16 18 20 17 13 13 9 5 10 11 11
22 21 23 25 28 31 34 40 23 7 3 6 8 5 9 7 2 12 9 5 3 4 4 2 3 4 2 2 8 4 7 9 14 22 17 21 23 18 12 9 11 9 9 9 13
19 21 24 26 28 30 33 18 6 3 7 7 6 9 16 16 28 6 18 8 5 3 4 6 5 8 8 10 14 13 15 19 18 17 16 21 21 19 10 7 10 10 10 10 15
18 21 23 25 27 28 23 4 8 9 10 14 22 24 30 23 13 12 16 4 3 6 6 4 6 7 11 15 14 13 18 23 23 20 16 14 25 10 9 8 11 15 11 11 11
17 21 21 23 26 14 19 18 18 15 4 16 12 11 10 14 12 13 9 6 6 5 7 10 7 5 12 18 15 14 17 19 19 20 24 18 17 5 7 6 9 12 16 10 19
18 20 21 22 12 20 11 29 24 11 4 8 6 6 10 4 6 12 12 8 3 0 3 3 4 10 15 17 13 11 11 23 17 12 9 19 13 7 10 16 15 13 13 12 18
19 19 19 15 19 8 15 30 22 4 5 8 8 16 10 8 4 5 9 5 8 7 5 6 4 5 14 17 16 9 15 22 7 9 13 22 12 8 9 10 13 16 13 13 21
19 17 16 17 13 21 22 28 10 1 8 8 9 10 10 11 4 5 5 3 1 5 9 11 7 5 2 11 8 8 15 6 7 4 8 18 14 8 10 9 9 16 16 14 19
18 15 14 15 9 20 19 12 2 6 10 10 8 16 17 7 12 10 10 7 5 3 5 6 13 12 7 7 8 9 9 1 3 4 6 9 14 14 9 17 13 4 12 12 19
15 15 20 16 18 16 16 3 9 9 13 9 6 5 3 4 10 8 12 6 7 5 2 2 5 5 11 11 5 12 6 4 5 3 3 13 7 12 13 19 10 7 10 15 19
15 17 20 20 15 16 2 6 5 8 7 13 11 6 1 11 10 5 10 4 4 11 6 3 3 2 5 9 14 5 8 5 8 5 4 4 6 12 14 19 7 8 9 10 16
10 10 17 22 16 13 5 14 12 11 17 17 7 5 3 6 4 3 4 4 3 7 3 0 5 5 1 11 10 8 3 3 3 3 3 6 7 6 6 8 8 6 6 6 11
7 4 9 14 18 4 10 10 11 20 20 7 12 9 9 10 9 6 6 2 1 5 6 5 2 1 3 6 6 7 4 6 2 4 3 3 4 4 5 5 9 9 8 8 10
4 4 11 12 6 3 14 7 9 24 24 17 11 8 8 9 8 7 4 5 5 4 6 1 3 5 11 11 14 13 11 11 4 4 5 4 6 15 4 8 9 9 8 7 7
2 4 18 8 8 12 8 15 21 20 20 12 10 9 8 7 4 6 7 7 7 4 4 3 3 4 6 5 9 4 12 15 9 4 6 2 4 11 5 7 10 13 10 8 7
1 3 4 3 1 7 12 15 17 17 23 19 16 14 11 8 6 5 2 5 4 4 6 2 4 6 6 11 3 4 8 16 17 3 5 10 5 6 16 14 16 12 14 16 15
3 4 3 3 5 12 10 1 10 17 17 16 16 12 12 8 7 5 5 8 4 10 4 3 4 6 11 14 11 12 14 15 22 17 5 6 7 6 7 18 10 12 15 17 16
3 2 3 3 7 5 9 7 15 15 8 9 11 8 7 7 7 9 1 4 3 3 4 4 3 3 8 9 7 15 17 15 17 20 17 18 18 2 5 5 6 12 15 16 15
6 9 3 4 5 5 3 4 9 10 8 8 4 9 6 9 6 3 2 4 5 4 5 3 2 3 3 7 12 8 7 12 10 9 14 10 7 5 7 7 8 9 12 13 13

GFSSW_925_spd_078.txt.gz
Wind_Speed
16 16 17 17 19 21 20 20 21 23 23 25 27 30 32 34 39 27 9 16 9 10 6 8 9 7 6 3 4 3 1 4 6 10 11 11 8 9 7 2 4 7 8 8 27
14 16 15 18 18 19 21 23 24 24 23 25 27 29 32 34 31 17 9 5 6 8 9 11 6 7 3 5 4 6 5 9 9 6 12 17 6 12 7 11 5 3 6 20 28
13 15 17 17 19 19 20 23 26 25 25 25 26 27 30 27 6 7 7 5 7 12 12 7 9 5 6 3 6 6 13 8 8 10 13 18 11 19 9 8 9 6 8 14 13
17 18 19 19 20 21 23 25 27 27 27 26 25 24 28 8 4 3 2 5 5 8 5 4 4 4 5 8 8 7 8 8 13 14 15 20 19 18 8 12 9 9 16 13 12
18 22 20 20 21 23 25 27 29 29 28 27 24 21 13 3 11 11 9 10 12 8 6 4 5 5 5 5 5 10 16 15 15 16 20 19 22 21 23 16 10 7 15 15 11
18 22 20 21 23 25 28 32 31 31 30 26 22 15 4 7 8 4 8 18 7 8 6 5 5 5 6 6 8 4 11 16 14 17 18 18 20 9 20 12 9 9 15 18 14
17 21 23 24 27 26 30 33 35 33 33 28 19 9 9 21 12 15 21 13 16 12 4 6 5 1 2 5 4 4 12 16 17 12 11 9 16 20 14 12 10 10 10 12 14
17 22 23 25 29 30 33 36 36 33 31 25 10 6 9 17 18 22 14 13 8 12 15 17 13 4 4 5 6 5 5 8 8 11 11 8 22 16 10 10 13 12 9 10 11
17 21 23 26 30 32 36 38 34 27 14 5 7 7 10 11 6 7 8 7 6 8 6 13 2 5 3 1 4 4 13 12 9 6 8 8 22 10 10 10 14 12 9 12 12
18 19 23 27 29 31 35 36 14 9 9 8 2 5 9 4 2 9 4 3 5 2 3 3 2 2 2 3 11 5 7 7 9 2 7 17 21 18 16 13 17 13 9 11 15
18 18 23 26 30 30 31 13 7 4 4 8 6 6 11 7 13 4 12 9 3 2 3 3 2 7 7 8 6 8 12 14 11 11 6 17 19 18 20 12 17 15 10 13 18
15 17 22 25 27 30 15 5 14 17 13 13 20 24 35 19 10 17 7 3 5 5 3 2 6 10 8 6 8 12 15 17 12 12 13 15 20 18 21 13 18 19 11 15 9
16 18 22 24 27 10 24 7 29 29 5 12 12 9 10 19 14 22 8 6 4 4 5 8 5 5 5 4 9 13 12 8 8 15 21 16 20 9 17 17 9 10 9 11 19
19 19 20 21 10 25 10 31 30 22 4 8 8 8 8 7 6 14 15 6 5 7 5 5 3 1 2 5 9 14 8 8 10 12 9 3 7 12 15 19 14 7 9 11 18
20 19 17 12 17 6 17 31 29 2 4 2 6 11 10 9 4 4 9 4 9 6 6 5 2 2 4 6 8 11 7 8 8 10 5 10 3 11 6 16 17 9 9 13 20
16 17 14 12 10 15 20 26 8 0 9 6 4 8 8 6 2 4 4 5 4 5 3 6 3 5 7 2 7 8 4 12 6 3 7 13 5 12 8 10 14 10 5 14 20
16 15 10 8 6 18 19 10 2 6 8 4 3 9 12 7 8 7 7 6 6 5 4 3 6 4 4 2 4 3 4 4 4 5 9 3 9 16 10 14 14 17 19 16 20
17 15 13 16 18 14 10 2 8 7 9 15 14 11 12 7 6 10 9 5 4 3 3 4 4 4 3 7 3 11 7 3 5 4 7 11 8 10 13 19 16 15 5 15 21
15 14 11 19 14 10 2 5 6 5 4 14 16 2 6 5 1 6 9 6 6 7 6 4 4 1 6 4 8 4 7 3 3 3 3 4 6 9 11 17 13 9 11 15 17
9 8 12 18 11 7 4 8 7 6 11 9 7 11 8 8 6 3 9 2 3 3 4 2 2 2 5 4 6 9 3 4 3 3 3 4 4 4 7 12 15 7 12 16 17
4 3 13 13 10 3 9 8 7 10 13 7 8 10 9 6 7 6 2 1 2 2 7 3 2 2 1 7 9 5 4 4 1 3 2 3 3 10 18 21 10 7 9 13 15
3 2 3 6 4 3 10 7 6 14 14 13 7 13 5 8 4 4 3 1 3 3 5 3 3 4 9 7 10 5 2 6 3 4 4 1 5 15 18 16 18 7 6 4 16
2 3 12 8 3 7 4 10 12 18 17 5 6 5 11 6 4 2 5 5 5 3 3 4 1 3 6 2 7 3 8 9 4 0 5 4 2 9 15 19 20 13 13 10 8
2 3 3 2 3 5 6 11 13 12 15 16 16 15 15 7 3 4 3 4 4 3 6 4 1 4 3 4 2 4 5 5 8 4 7 7 4 4 12 15 17 14 15 19 18
3 4 3 3 3 8 7 6 13 12 13 16 7 15 14 4 5 5 1 3 2 8 3 3 2 2 7 12 14 15 16 14 10 12 7 7 5 4 4 10 10 9 14 20 19
2 2 3 2 7 1 9 9 14 7 4 6 3 6 1 2 2 3 2 1 3 2 3 1 3 2 5 7 7 14 16 17 17 19 14 20 7 3 5 1 9 4 13 19 17
4 5 1 4 5 6 3 9 5 5 9 12 6 6 3 1 2 4 4 4 2 6 7 4 1 1 4 7 12 11 10 14 13 15 18 17 13 1 9 8 9 9 13 17 16

GFSSW_925_spd_081.txt.gz
Wind_Speed
16 18 20 20 21 22 23 24 25 25 24 24 26 28 30 34 36 28 7 13 7 18 9 6 5 5 5 3 4 4 1 5 9 10 11 4 4 2 4 5 7 5 4 4 22
15 17 19 20 23 24 24 26 27 26 25 24 26 27 31 32 30 17 7 5 7 5 13 9 5 6 2 3 4 5 5 11 8 13 10 5 0 13 6 16 14 6 3 1 27
15 17 19 21 22 23 25 27 28 28 26 25 26 26 30 27 6 7 1 4 4 10 10 4 6 6 5 4 5 6 11 5 7 15 7 10 4 5 6 15 13 9 7 7 10
17 18 21 21 21 22 25 28 29 28 27 25 24 24 26 8 5 1 7 3 2 5 8 3 4 5 5 7 6 6 8 13 5 6 3 9 7 6 7 13 16 12 7 7 13
17 19 20 22 22 24 29 30 29 30 28 25 22 20 12 3 11 9 8 6 6 7 8 4 4 4 5 5 5 9 8 6 8 8 9 10 15 12 19 14 19 10 8 15 14
16 18 21 22 24 26 30 33 34 34 31 25 20 13 5 8 7 4 5 8 7 7 5 6 4 6 5 4 6 5 6 10 8 12 8 12 20 4 14 13 16 8 12 17 16
15 18 23 24 26 30 34 37 38 38 34 27 18 8 10 22 10 13 19 21 10 9 3 8 4 1 1 5 5 6 9 8 7 3 7 8 21 10 14 11 16 13 11 15 17
15 19 23 25 31 32 35 39 37 33 29 21 12 7 9 16 19 23 16 14 14 14 18 14 9 4 4 5 6 4 4 6 1 8 7 10 29 17 11 10 13 13 9 12 13
17 19 22 27 32 35 38 36 30 16 10 5 9 6 11 10 8 8 11 5 7 7 11 11 6 6 2 2 4 2 11 11 7 7 7 8 18 8 5 6 10 10 11 10 13
19 19 20 29 33 34 37 30 11 6 11 9 5 3 9 3 3 8 3 4 4 2 1 4 3 3 2 4 7 4 7 6 4 4 5 7 15 9 6 6 10 12 12 9 10
17 17 20 26 32 34 28 11 7 3 7 7 7 9 11 7 9 2 1 4 3 3 5 2 3 6 8 6 4 5 9 16 8 8 9 13 16 15 12 7 10 17 16 13 12
18 18 20 25 29 28 23 4 8 10 14 16 22 26 39 22 9 16 3 3 3 6 4 1 6 8 6 6 7 7 9 11 11 9 8 6 19 18 16 14 13 12 14 15 6
19 20 22 25 27 10 20 2 24 23 6 11 15 13 11 20 16 24 6 4 5 6 6 6 4 3 5 6 7 10 8 10 13 6 10 12 23 15 17 9 8 10 10 9 15
19 19 20 21 9 23 11 26 28 15 5 7 6 8 9 9 7 22 20 7 5 11 6 5 3 3 3 4 5 9 6 11 11 5 6 4 12 14 10 14 12 12 7 9 11
16 17 16 13 15 7 16 27 26 1 5 3 4 5 10 9 3 4 11 4 9 6 7 5 5 3 4 5 4 5 9 13 3 4 7 6 7 3 9 10 13 7 10 7 13
14 15 16 11 10 12 20 23 6 2 9 7 0 3 5 7 2 5 4 5 4 5 2 4 2 5 6 4 4 4 7 4 2 2 7 9 9 4 7 13 15 10 6 9 13
15 13 13 10 5 13 18 7 1 5 8 7 9 9 11 4 3 4 6 6 6 5 5 2 4 2 3 1 4 4 3 2 2 3 7 0 10 14 10 6 9 11 15 8 11
14 13 14 18 17 14 8 1 9 9 6 11 12 17 9 5 6 6 7 4 1 4 3 5 2 7 4 6 4 6 5 3 5 3 3 12 7 6 8 12 15 13 14 5 11
13 10 14 21 10 6 3 7 4 3 4 11 12 7 9 11 14 5 8 8 6 6 5 4 3 2 5 5 5 3 8 3 6 3 3 4 7 6 17 7 10 12 11 10 10
8 6 11 15 3 8 2 11 3 4 7 5 5 7 6 11 13 5 8 0 4 4 3 3 1 1 2 3 5 5 5 2 4 4 3 4 5 4 16 17 18 15 12 10 11
4 3 5 7 8 2 4 6 6 8 10 6 5 6 6 8 16 5 2 1 4 3 7 3 2 1 1 6 6 4 3 4 4 3 2 4 2 4 7 13 18 19 21 8 14
1 2 3 8 1 2 6 4 3 9 5 5 5 8 4 8 11 7 4 4 3 1 4 3 3 4 9 3 5 3 2 5 3 3 4 3 5 4 5 16 20 22 21 3 5
1 2 7 6 3 1 4 9 6 10 11 4 5 2 4 5 6 4 4 1 3 4 4 3 3 3 6 4 2 1 1 5 6 3 6 3 5 8 11 16 22 22 21 7 12
1 3 3 1 2 3 5 8 7 10 13 11 10 11 13 7 17 4 2 2 4 5 7 3 3 4 3 4 1 6 8 7 5 4 4 8 10 5 4 15 20 21 15 15 15
2 4 4 3 2 10 4 4 9 9 10 11 4 12 8 4 11 4 3 3 5 6 3 3 3 3 6 10 11 14 15 14 15 14 7 12 12 7 5 4 11 17 12 14 15
2 2 2 3 4 3 1 3 11 16 5 5 12 7 6 8 7 2 2 3 3 1 3 0 1 1 4 7 7 12 18 15 14 18 16 16 18 6 2 8 5 12 12 15 14
5 4 2 3 4 1 2 5 11 12 9 9 2 4 4 3 3 3 3 2 2 4 3 2 2 2 4 6 11 8 4 6 9 17 15 16 16 8 2 7 6 4 14 13 13

GFSSW_925_spd_087.txt.gz
Wind_Speed
13 14 16 19 20 20 20 21 22 23 22 21 22 23 24 28 32 21 8 9 6 13 12 11 12 7 6 4 3 3 5 7 9 8 8 1 4 2 1 3 2 2 3 2 6
14 15 17 19 21 22 23 24 25 24 23 22 23 23 24 26 26 14 10 11 10 5 15 14 7 8 4 5 4 5 7 10 7 11 9 6 10 7 3 5 9 11 11 6 3
14 15 17 18 21 22 23 27 26 25 25 23 22 22 23 21 6 3 8 7 5 7 5 9 9 6 4 2 6 5 11 6 4 13 5 11 11 10 12 14 16 15 11 5 7
13 13 16 19 21 22 25 31 28 27 27 24 22 19 19 7 7 0 2 7 2 10 5 5 4 8 6 7 6 5 7 11 8 8 7 12 16 15 16 14 15 14 17 11 12
15 15 17 19 22 24 27 33 33 30 27 26 19 15 8 3 10 10 11 5 3 5 6 6 5 5 6 5 5 7 6 8 8 12 11 13 17 18 10 14 17 16 11 14 15
14 16 18 20 22 25 30 33 33 28 29 24 17 8 2 5 6 7 7 7 5 5 4 6 6 6 4 4 6 5 4 6 8 13 12 17 23 15 17 12 16 15 15 14 17
16 17 19 20 22 28 33 35 29 29 21 17 10 7 5 16 10 13 19 15 13 8 4 9 6 4 3 2 2 3 7 7 7 10 10 5 20 16 22 17 16 19 19 16 18
16 17 19 21 25 29 33 31 27 19 14 11 3 7 8 10 14 19 17 18 18 20 18 12 7 5 3 3 2 3 4 5 2 3 5 8 15 12 9 9 13 14 15 16 18
15 18 20 23 27 30 29 27 21 5 10 8 5 2 9 11 5 10 7 6 4 9 12 4 3 3 2 3 5 1 8 6 6 2 3 8 11 3 17 15 15 15 12 12 13
14 18 21 24 28 28 28 22 8 2 7 3 5 3 7 6 8 18 7 7 3 5 4 5 3 5 4 7 10 6 6 5 7 2 12 18 26 17 14 18 18 16 18 14 15
15 18 21 24 28 23 24 7 8 4 9 6 15 10 22 28 23 10 3 9 4 4 9 5 7 14 18 16 13 3 4 8 6 8 12 18 25 16 15 17 19 19 19 17 18
15 17 20 23 23 21 15 7 6 7 12 19 24 22 32 22 12 16 11 2 4 10 5 4 16 11 9 10 11 13 14 14 8 9 7 14 29 22 22 24 23 22 23 21 20
14 15 18 23 10 20 11 9 18 9 5 10 6 5 6 8 7 14 10 11 8 12 12 13 5 10 11 7 10 11 13 8 9 8 11 14 18 7 6 12 19 22 25 23 22
13 13 17 23 3 16 3 19 23 3 4 7 3 3 2 3 6 10 16 9 10 16 11 11 7 5 9 11 12 13 9 9 6 4 4 6 10 8 2 8 12 15 15 18 21
12 13 14 14 8 6 13 24 20 3 6 2 3 2 4 4 13 1 6 16 12 9 9 6 7 8 12 8 9 4 4 4 4 5 4 4 5 4 12 8 10 15 14 17 19
12 13 14 9 11 7 20 24 1 1 7 7 4 13 18 17 5 1 2 4 6 4 1 6 2 4 4 4 7 5 2 3 3 4 5 9 9 3 5 9 22 18 17 14 14
14 14 13 10 5 15 18 6 1 4 7 5 8 13 18 10 9 12 4 12 5 11 10 3 3 2 2 5 2 4 3 2 2 4 5 4 9 12 15 8 12 15 17 16 16
14 15 12 7 10 10 6 2 5 2 5 10 12 17 9 11 7 9 10 9 6 3 8 10 5 9 5 4 5 9 5 3 3 3 2 3 7 2 3 5 8 13 15 16 15
13 11 6 9 7 1 3 1 3 2 3 10 13 6 4 9 11 9 7 12 6 7 4 7 2 2 3 3 5 5 4 0 2 4 4 4 5 5 6 9 12 13 17 21 20
9 5 4 9 4 3 3 4 4 4 8 8 5 5 6 12 14 12 5 5 5 7 2 5 6 0 3 3 2 2 4 3 2 2 3 4 6 6 7 13 16 19 19 19 22
3 2 8 8 3 1 1 4 5 8 7 4 6 9 10 12 8 6 6 12 8 4 3 4 3 4 5 4 7 4 2 2 1 2 2 2 2 2 8 13 13 16 18 17 20
2 2 1 9 2 0 2 3 6 11 7 7 6 10 13 11 7 4 7 7 16 19 5 2 3 4 3 1 4 2 4 4 2 2 2 4 6 4 12 14 12 14 14 15 20
2 1 3 1 2 1 4 6 6 8 6 3 5 7 10 6 6 8 6 5 16 6 5 4 1 5 3 3 2 3 4 2 3 2 5 4 3 3 17 16 16 13 13 13 18
2 2 2 0 1 2 3 6 5 6 11 8 11 10 15 9 10 7 7 8 10 6 7 2 3 1 3 5 3 2 3 2 3 3 5 10 17 21 17 19 16 11 12 13 15
2 1 1 2 1 3 2 3 9 8 4 9 6 15 13 4 5 6 5 7 6 10 3 3 4 4 2 4 3 3 6 6 7 12 7 16 16 22 19 18 7 7 10 14 17
3 1 2 4 4 0 3 3 9 8 5 9 9 17 12 9 9 6 2 4 4 5 5 4 2 2 2 1 4 6 11 10 10 10 13 17 20 14 11 12 6 8 11 13 14
3 3 1 3 2 1 2 4 10 14 11 13 18 16 12 12 8 12 8 10 7 6 2 2 3 2 3 2 7 4 1 4 7 8 9 13 14 16 9 12 9 9 11 13 13

GFSSW_925_spd_090.txt.gz
Wind_Speed
8 10 11 13 14 15 15 16 18 18 18 18 19 19 21 24 27 18 12 8 5 8 11 6 10 16 17 13 11 10 11 17 20 16 14 6 9 13 6 11 9 6 7 2 6
7 7 10 12 15 16 16 18 20 20 20 20 19 19 20 21 22 16 8 11 14 5 10 15 12 14 12 16 10 15 15 24 17 12 14 14 11 12 9 13 13 13 13 11 8
9 8 10 12 15 17 19 21 22 23 22 21 19 18 19 18 9 3 0 7 3 9 8 13 12 14 16 12 16 14 24 16 11 16 19 18 18 16 16 18 15 18 17 11 10
9 10 12 15 17 19 21 24 26 25 23 21 18 15 15 8 8 4 1 4 2 5 5 12 11 15 15 16 15 15 16 17 16 17 17 18 19 22 19 19 17 18 16 15 16
9 11 12 15 18 21 24 26 27 25 23 23 17 10 6 5 9 4 6 5 2 6 9 9 12 13 16 12 17 19 20 15 16 17 18 18 23 24 23 13 17 18 17 18 17
10 12 13 15 19 22 25 29 26 23 23 17 11 3 3 9 2 3 4 5 8 9 8 11 7 10 13 14 15 9 12 17 13 16 17 18 22 23 17 16 19 20 21 19 18
10 11 14 16 20 24 28 26 25 26 16 13 8 8 7 14 5 10 14 14 10 12 12 11 13 9 3 12 12 12 16 17 18 18 18 15 23 27 22 19 19 20 18 19 20
10 12 16 18 21 25 24 23 25 13 7 8 2 6 8 6 8 11 7 11 14 18 16 11 5 13 15 11 11 10 14 14 10 11 11 12 21 9 4 6 7 11 11 13 16
10 13 16 18 23 23 25 24 10 1 4 3 2 6 7 4 3 3 5 8 5 9 14 7 5 13 10 15 15 14 16 14 11 11 7 12 11 2 5 10 12 13 14 15 13
11 14 16 19 22 22 22 10 4 2 5 6 2 7 6 4 13 11 11 7 6 6 7 11 9 12 13 14 16 15 19 12 14 6 10 17 20 18 17 19 20 20 19 19 19
11 13 15 18 18 19 22 4 4 4 7 8 16 16 22 17 19 14 13 12 12 9 13 16 14 19 22 20 17 12 14 15 9 8 17 21 21 19 16 21 20 21 21 22 23
10 12 15 19 11 15 16 7 5 6 11 18 17 16 23 12 7 9 8 9 18 18 14 11 22 20 15 14 17 20 21 20 17 13 14 19 21 21 23 20 24 23 22 22 22
10 12 15 18 5 11 9 10 7 5 6 8 3 6 3 5 4 6 4 9 21 19 19 19 4 17 17 16 17 18 18 14 15 14 19 21 22 14 4 11 12 14 15 18 21
10 12 14 12 2 9 3 12 11 3 5 3 3 4 1 6 6 14 6 10 13 26 21 18 20 7 15 19 16 17 14 14 14 10 7 1 6 11 6 5 7 3 9 12 17
10 11 12 11 5 4 8 15 11 4 6 3 4 5 11 4 14 2 5 8 19 21 15 17 10 18 16 13 14 13 5 10 9 10 12 16 8 5 7 9 6 11 11 13 14
9 10 11 6 4 6 13 15 2 5 8 2 2 6 13 15 11 9 5 7 9 16 20 21 3 10 14 14 12 5 7 8 8 8 10 17 13 4 2 8 11 12 13 13 13
9 10 6 4 5 11 12 4 5 6 5 3 7 12 17 16 12 7 8 8 9 13 19 19 13 5 8 11 9 14 11 5 7 5 6 4 8 9 8 4 8 12 15 15 14
9 8 4 5 7 7 4 4 8 4 7 14 16 21 17 9 8 10 5 9 12 15 12 17 15 14 10 12 8 16 13 6 8 6 3 8 7 3 3 1 7 12 16 17 19
7 3 6 9 7 3 3 5 6 7 5 10 18 14 9 3 11 9 10 10 9 17 14 16 17 10 11 10 11 9 9 5 4 5 5 7 8 7 4 5 10 14 17 19 20
3 3 9 7 5 2 2 4 4 6 11 10 14 9 11 16 16 12 10 5 11 10 10 6 11 12 10 11 6 7 9 4 5 5 6 5 8 3 6 11 15 17 18 19 19
1 2 3 6 4 1 1 3 8 6 8 6 9 14 16 17 14 15 8 8 3 13 11 9 8 12 12 11 15 7 7 5 2 3 3 2 3 7 8 12 15 16 16 17 18
2 2 1 7 2 0 2 5 8 9 7 10 9 12 12 11 11 9 9 7 8 11 10 11 4 10 12 5 6 6 7 9 5 5 1 3 5 6 7 14 15 14 14 14 15
2 2 1 2 1 2 3 7 7 12 9 5 9 10 11 12 7 9 9 8 13 5 7 6 6 8 8 5 4 7 3 5 4 0 7 3 1 2 15 17 16 13 13 11 13
2 1 2 1 3 4 7 5 8 8 13 8 11 14 14 12 9 11 13 11 14 13 21 15 2 4 7 7 8 6 9 8 6 4 4 8 14 14 17 18 15 11 9 8 10
2 2 3 1 2 6 5 5 11 9 4 14 6 8 12 6 11 13 9 10 9 11 3 2 9 10 9 8 5 5 7 9 9 7 5 9 13 15 15 16 20 8 6 7 10
3 1 2 2 3 4 2 4 9 12 7 13 10 19 19 14 14 16 14 13 4 11 9 11 5 5 6 4 3 3 5 8 8 8 8 13 12 11 18 16 9 7 8 7 8
3 3 1 2 2 3 2 6 15 12 9 11 18 17 13 13 10 13 13 17 13 8 7 5 1 2 3 2 5 4 2 1 1 5 9 13 15 16 15 7 9 7 7 7 8

GFSSW_925_spd_093.txt.gz
Wind_Speed
4 5 7 9 11 12 13 14 16 17 18 18 19 20 21 20 25 19 17 10 4 14 10 13 13 16 22 21 23 18 17 23 28 25 23 10 16 20 13 17 14 11 15 3 3
4 4 6 9 11 13 14 16 17 17 17 19 18 19 23 21 25 22 9 12 15 15 10 17 15 15 15 18 20 19 17 29 22 21 17 10 22 18 12 14 18 14 11 17 10
5 5 8 10 12 14 16 18 19 20 18 17 18 19 20 18 14 5 7 2 2 10 11 12 17 15 19 19 22 23 26 24 25 20 16 18 21 21 18 20 16 16 17 18 13
5 7 10 12 14 15 18 19 20 20 18 17 18 17 15 9 6 7 3 2 1 7 11 12 15 17 20 23 22 26 27 22 24 27 14 22 23 25 23 22 16 18 18 18 17
7 9 11 12 14 17 19 21 20 20 17 16 15 13 9 8 15 3 3 5 6 9 12 10 13 17 21 21 22 24 24 21 24 19 23 21 24 26 26 23 21 19 22 20 17
7 9 11 14 17 18 23 21 19 21 20 12 9 5 7 13 2 0 2 5 9 13 15 14 13 13 19 19 21 20 21 21 20 26 23 23 26 26 28 24 22 22 22 20 20
7 9 13 16 18 21 20 20 19 22 13 8 7 8 10 17 8 10 10 14 14 14 16 17 16 14 8 17 21 19 22 20 21 21 21 21 28 29 27 26 25 24 22 22 22
7 11 14 16 19 20 21 21 20 9 5 4 1 7 7 6 8 10 8 10 11 17 19 17 13 17 20 18 22 15 20 20 18 21 24 22 30 24 22 16 26 24 21 22 21
8 11 13 16 19 20 21 21 7 5 5 2 4 6 7 2 6 5 6 8 9 10 17 17 15 18 17 19 18 20 20 23 22 18 11 17 20 16 2 7 10 12 14 15 16
9 9 11 15 17 17 18 10 7 3 4 6 8 6 8 3 14 17 18 14 11 8 10 15 10 17 19 18 21 20 22 19 20 18 15 18 23 19 18 15 19 19 19 18 18
8 10 11 14 12 16 20 5 4 6 5 10 16 17 20 11 17 11 13 19 16 12 16 16 17 24 26 24 24 18 21 17 17 16 11 15 21 23 22 22 22 22 20 20 20
7 9 11 13 4 12 12 4 5 4 12 17 18 16 17 8 7 3 2 9 17 21 20 19 24 23 22 22 20 21 23 23 21 20 19 20 24 24 22 19 23 22 20 19 18
7 9 10 9 2 5 9 9 6 7 8 8 6 6 4 4 6 9 4 7 16 22 23 25 23 21 26 20 20 21 23 19 20 17 17 20 25 27 27 21 23 19 16 13 13
6 8 9 2 3 6 4 8 8 5 6 10 7 6 6 5 11 12 20 12 14 19 22 25 23 24 16 26 22 22 20 20 18 16 11 6 9 14 5 9 8 5 4 7 10
5 7 8 8 5 4 7 9 7 4 6 5 7 6 4 10 13 6 5 15 20 20 17 25 29 23 20 18 20 20 15 16 16 13 16 18 10 16 13 10 11 2 5 8 8
5 7 6 3 2 6 10 11 6 7 4 3 3 6 13 16 18 17 19 13 14 20 20 24 25 20 20 23 16 14 11 12 11 11 14 17 15 10 11 7 5 6 6 7 9
4 5 5 4 5 10 10 8 7 6 5 3 7 14 18 22 22 19 14 17 15 16 17 20 27 10 12 16 20 16 14 9 10 11 13 12 11 14 12 8 3 5 9 11 12
4 4 4 5 7 7 9 8 7 4 7 15 12 20 23 23 19 11 16 20 18 19 15 16 17 23 14 14 13 20 17 9 11 10 13 14 7 7 14 6 1 7 8 11 15
3 3 2 6 6 5 7 6 7 11 11 11 17 17 14 8 7 15 16 17 16 18 12 16 23 26 19 17 14 13 18 20 13 13 6 6 10 7 9 10 5 10 11 13 16
3 6 4 5 5 9 1 4 5 6 9 11 15 10 16 16 18 13 16 4 8 10 18 9 11 8 19 15 18 12 12 9 8 5 8 11 14 9 10 5 8 10 12 14 17
6 4 3 5 6 2 1 4 7 8 9 9 16 18 17 17 16 16 13 17 5 8 14 18 12 21 17 16 19 12 12 8 6 9 6 7 6 14 9 10 11 12 12 15 16
3 1 1 4 3 1 3 5 7 8 12 12 13 15 16 15 14 16 16 8 3 8 16 15 7 11 21 20 21 19 16 16 6 10 5 4 2 4 13 13 13 13 13 13 15
1 2 1 5 1 2 4 8 4 9 11 11 11 17 16 16 10 11 12 9 13 7 6 8 5 10 9 9 12 19 12 11 3 1 8 4 1 9 12 14 12 16 12 13 14
1 2 4 3 3 4 6 4 7 9 10 7 14 17 17 14 13 10 13 9 4 15 21 11 9 5 3 13 12 10 11 10 7 5 6 8 11 12 16 13 16 16 13 13 13
2 1 3 1 4 5 3 4 10 11 9 17 9 10 12 8 16 11 12 12 10 10 6 5 4 9 12 10 13 10 10 9 7 6 5 9 10 12 14 16 18 13 14 13 13
2 3 3 3 3 1 5 4 9 12 12 13 13 19 19 16 17 15 14 13 5 8 7 7 4 11 13 11 10 9 4 2 4 5 10 9 9 18 15 15 13 14 13 13 14
1 2 3 6 5 4 2 5 10 9 10 9 15 17 15 8 13 14 13 16 13 10 5 8 4 7 9 8 4 5 4 1 1 8 13 9 16 19 19 14 11 12 12 13 14

GFSSW_925_spd_096.txt.gz
Wind_Speed
7 7 7 9 11 13 14 16 17 19 19 20 21 21 22 24 26 19 17 12 7 15 15 12 16 15 15 16 19 18 15 20 27 26 24 22 21 16 9 15 11 14 17 2 13
6 6 7 10 12 14 16 17 18 20 21 21 21 22 23 23 24 23 16 12 14 16 9 12 13 15 13 14 15 19 17 29 23 23 22 22 21 18 12 17 15 14 10 14 14
7 8 8 10 12 15 17 17 18 20 21 21 20 22 22 19 13 4 10 9 7 9 12 12 14 16 18 18 20 23 27 23 24 22 23 23 23 19 17 23 11 14 17 12 11
8 9 11 11 12 14 16 19 18 18 19 19 20 20 19 11 5 4 8 5 4 5 11 15 12 15 19 20 20 25 27 26 26 24 23 24 25 21 21 17 18 17 11 9 15
10 11 11 12 14 16 18 19 19 19 19 20 19 15 10 8 14 4 3 5 4 8 15 14 14 15 19 19 21 26 25 25 24 23 23 24 23 22 23 20 20 20 19 15 14
9 10 11 13 16 17 19 17 20 22 21 19 12 9 6 13 3 4 4 6 10 14 15 16 13 15 19 19 20 20 24 24 24 23 23 23 26 22 21 21 22 23 23 19 15
9 11 13 15 17 18 18 19 21 22 17 10 8 8 12 21 9 12 12 12 13 16 16 20 18 16 14 16 22 21 23 22 23 21 23 19 27 29 19 20 26 27 23 23 21
9 12 15 15 16 19 17 18 22 15 9 5 8 9 8 8 7 12 13 14 13 14 19 20 20 19 20 19 22 22 19 19 22 23 24 23 32 25 20 24 27 27 24 21 19
11 12 15 15 17 17 19 17 17 11 7 4 4 8 9 3 9 6 7 10 11 10 12 15 18 17 17 17 18 20 20 25 27 22 23 21 29 23 22 21 27 19 14 21 21
11 12 13 15 17 16 23 20 14 11 7 8 13 7 9 8 7 14 16 20 17 15 15 11 9 17 18 16 20 21 23 24 25 21 22 20 23 19 22 20 14 9 11 12 12
11 12 13 14 15 13 25 9 3 6 12 11 10 12 19 21 14 18 13 14 15 18 18 16 13 22 23 23 27 24 26 25 23 18 19 18 21 23 16 17 19 16 13 15 15
10 11 12 12 8 11 12 6 7 5 12 19 22 22 23 16 10 16 3 6 11 18 19 18 23 24 22 25 26 27 27 27 22 22 17 20 25 18 18 21 21 22 17 15 17
10 11 10 10 5 7 4 9 7 9 6 13 9 8 4 9 11 14 6 10 13 17 18 21 27 24 26 24 26 26 26 21 20 19 18 21 24 22 27 25 21 22 15 17 17
8 10 10 8 4 6 2 7 7 6 5 5 6 5 5 6 12 9 12 17 19 20 21 23 21 26 28 26 24 25 23 18 19 16 16 18 15 22 17 14 23 23 22 12 3
7 7 9 6 10 4 9 9 6 2 5 5 8 5 3 5 13 14 17 20 19 22 22 25 25 24 27 30 24 19 22 16 18 18 17 20 12 17 17 18 11 9 5 2 3
5 6 6 5 5 6 9 8 4 3 6 4 3 2 9 13 18 22 21 19 22 26 24 26 28 28 26 27 26 12 16 15 17 13 15 19 17 14 15 14 13 11 4 7 9
4 5 4 6 7 10 9 6 5 5 5 3 6 12 16 21 22 19 20 19 17 20 19 26 25 27 27 26 11 14 10 8 7 10 13 18 16 12 13 6 10 8 9 11 11
3 2 3 4 8 8 7 5 6 6 8 16 14 18 19 18 13 11 14 15 18 9 9 16 21 15 19 18 9 23 18 7 7 7 13 19 9 10 11 16 9 10 11 13 14
3 3 4 4 7 7 6 5 6 11 12 12 16 15 11 17 13 8 13 15 14 10 5 9 14 17 22 8 6 17 23 20 12 14 6 6 11 17 18 6 12 10 13 15 15
5 7 4 3 7 10 4 5 5 9 9 11 14 11 18 18 18 16 16 14 14 7 3 4 11 17 9 14 20 12 12 13 7 4 4 2 5 7 9 10 9 10 13 16 16
5 4 3 1 5 6 3 2 6 10 7 7 14 17 17 18 17 16 7 16 5 8 9 13 7 13 12 7 15 11 4 4 7 10 2 2 4 10 13 8 9 12 14 16 14
5 2 2 3 3 3 3 4 2 6 9 11 9 12 12 14 16 17 18 14 1 9 11 9 5 7 15 19 28 19 14 17 4 5 7 2 3 6 11 9 16 16 17 16 16
4 3 2 3 2 2 5 6 3 6 10 12 11 11 15 15 15 13 15 16 4 5 5 6 4 5 4 13 21 19 16 11 14 2 6 5 4 6 13 19 18 18 17 17 16
1 0 4 6 2 5 3 3 7 9 12 12 16 18 12 12 14 8 17 9 12 9 19 11 6 10 10 10 12 16 15 3 2 4 4 6 13 7 16 16 16 17 17 17 16
1 3 2 2 4 3 2 3 8 12 8 16 7 13 15 17 17 17 10 14 13 15 6 3 7 9 23 29 13 10 11 7 7 5 3 4 15 17 18 16 17 16 16 17 18
2 2 2 2 5 4 6 3 8 11 10 10 10 17 16 16 16 17 14 13 8 7 4 3 3 10 9 4 21 12 8 16 9 9 9 11 7 21 19 17 17 17 17 16 17
2 0 4 6 8 6 4 5 8 4 8 11 13 15 15 10 15 18 16 19 17 14 6 4 1 2 11 15 19 15 10 11 19 20 15 12 18 21 17 16 16 15 15 15 16

GFSSW_925_spd_099.txt.gz
Wind_Speed
9 9 10 11 13 15 17 19 20 20 20 20 20 20 22 24 27 23 9 12 5 13 16 12 12 14 11 4 3 4 10 17 14 15 18 15 20 20 6 6 2 2 2 11 20
9 10 11 11 14 16 17 19 20 21 21 20 21 20 21 23 24 17 17 13 18 12 10 7 6 10 5 5 3 4 9 14 9 12 13 16 13 12 11 13 5 2 3 19 23
9 10 11 13 15 17 18 19 21 21 21 21 19 20 19 19 6 5 2 10 13 10 10 10 14 6 8 7 9 7 16 11 15 16 16 12 19 8 12 9 7 5 7 6 9
10 11 13 14 15 17 18 20 21 20 21 22 20 19 16 4 0 1 6 7 6 7 3 5 6 5 4 8 9 15 17 19 19 21 23 22 12 15 11 9 10 9 6 5 7
12 12 13 14 15 18 19 21 21 21 22 20 21 15 7 3 9 11 6 6 4 3 6 9 11 7 10 7 13 17 16 16 16 18 19 16 19 18 20 8 14 13 10 9 7
12 11 13 15 18 19 19 21 20 22 23 22 14 7 4 4 8 8 3 5 7 12 15 14 8 10 10 12 11 8 14 16 18 18 11 13 13 7 12 9 18 22 15 11 11
11 12 14 16 18 19 22 21 20 20 22 13 6 3 6 16 9 12 10 12 10 13 6 19 17 6 9 12 10 14 14 17 19 9 9 8 18 15 7 9 18 23 20 16 18
11 12 14 17 18 19 20 21 21 19 16 7 4 4 8 10 7 13 12 16 18 19 18 16 23 9 4 8 12 15 8 9 12 15 17 6 22 19 9 14 23 20 17 19 24
12 14 15 16 17 18 19 23 23 19 12 5 3 5 7 6 7 13 4 8 18 11 10 12 10 8 5 5 9 7 15 16 20 11 15 10 20 15 10 20 21 19 19 19 22
12 14 16 15 16 15 21 27 13 8 6 7 10 4 8 5 6 9 14 14 7 6 8 6 5 7 2 6 16 4 10 14 18 22 15 18 22 18 10 12 11 11 14 15 11
12 12 14 16 14 12 22 9 5 1 7 8 10 6 7 17 22 7 14 13 5 3 6 8 10 14 9 14 19 17 19 21 19 13 13 18 11 16 12 15 18 13 9 9 11
11 12 10 11 9 9 9 2 4 3 10 12 21 18 26 17 9 10 19 4 5 6 7 6 20 14 12 17 19 22 25 25 22 21 17 14 12 9 9 9 14 11 10 11 9
10 11 8 9 5 4 3 8 7 7 3 11 11 10 4 10 6 8 5 5 7 9 8 13 11 12 16 20 23 22 20 19 19 16 8 8 15 9 16 15 24 20 17 21 18
8 6 8 6 6 6 3 8 7 5 3 4 4 2 5 2 3 8 9 5 11 15 12 13 12 17 20 21 19 21 17 21 21 19 8 3 15 14 11 21 24 24 28 19 11
5 4 6 2 8 6 7 6 7 0 3 8 5 3 3 5 6 3 24 11 13 15 13 20 15 19 23 23 20 23 19 19 21 17 3 9 6 16 11 19 22 20 11 18 8
3 3 6 2 1 8 10 5 4 1 6 4 6 2 4 9 13 14 18 15 15 17 18 19 17 6 10 20 24 23 18 7 15 3 9 14 9 13 15 14 13 6 12 13 13
3 3 4 3 2 7 4 2 2 3 2 6 9 9 13 13 14 15 8 8 6 6 8 11 13 14 18 23 22 16 16 4 4 3 11 9 11 19 13 20 1 3 16 15 16
2 3 2 2 4 6 4 1 3 3 6 8 11 11 6 9 8 14 13 9 12 6 4 5 11 2 9 13 15 18 10 5 5 5 8 12 9 10 11 5 16 10 17 18 18
3 4 5 3 3 3 2 2 3 6 9 11 11 6 7 18 14 13 14 13 8 4 1 4 10 19 20 15 17 6 6 18 11 7 3 4 7 7 21 15 16 17 18 16 16
2 3 5 1 2 3 3 3 3 9 8 7 4 5 11 12 10 9 7 9 14 5 4 4 14 7 12 14 7 1 3 2 6 2 4 1 3 4 12 17 6 17 17 17 18
2 2 1 1 3 2 2 2 4 8 3 3 7 9 10 11 8 8 6 14 9 5 4 6 6 13 13 4 7 2 1 6 8 4 2 2 4 3 9 12 16 18 18 17 17
3 3 5 2 2 3 2 2 1 2 5 7 4 7 7 9 13 12 13 11 10 3 5 6 5 7 17 18 7 13 10 12 3 2 4 5 2 7 8 6 17 19 18 16 18
1 3 4 2 1 2 3 3 2 3 5 7 5 8 13 10 9 6 11 9 8 3 4 3 3 5 9 2 3 4 9 6 4 6 3 2 2 8 11 19 19 19 17 19 19
1 2 1 1 2 2 4 4 6 8 7 10 12 10 8 10 10 7 11 6 3 5 10 2 6 10 7 6 8 6 17 11 5 4 1 4 9 16 17 18 20 20 18 16 16
2 2 1 2 1 6 2 1 5 4 3 7 4 10 11 5 14 6 9 6 5 9 2 3 7 12 19 21 15 15 20 15 10 4 3 11 20 13 16 16 17 15 16 18 19
3 1 2 3 5 3 1 3 5 3 2 6 6 11 11 11 13 12 10 7 6 4 6 3 5 7 20 18 15 6 12 19 12 15 10 12 15 11 14 14 16 16 17 18 17
4 1 3 5 5 4 4 5 4 6 4 5 7 11 11 10 9 13 11 13 15 14 12 4 3 4 8 20 15 11 17 20 19 20 13 14 8 8 12 15 16 16 16 16 16

GFSSW_925_spd_102.txt.gz
Wind_Speed
12 11 11 11 13 17 18 18 20 20 21 21 22 22 23 25 27 22 8 12 5 2 9 11 11 10 7 4 5 4 2 7 7 9 6 10 14 13 3 5 5 9 3 6 21
12 12 12 12 14 17 19 20 20 19 20 21 21 22 23 24 26 15 10 10 9 5 4 5 4 2 2 4 4 5 6 8 7 6 12 10 12 15 6 9 6 6 17 7 19
12 12 13 14 15 16 18 19 19 20 20 20 20 20 20 20 6 6 2 11 7 5 6 5 6 1 4 2 5 4 13 9 8 9 10 8 11 8 15 11 3 6 5 8 10
13 13 14 15 16 16 18 20 20 20 20 20 20 19 15 5 5 2 3 7 4 2 2 1 2 2 2 6 5 9 15 8 8 10 9 15 16 16 13 11 8 8 6 5 5
13 14 15 16 16 18 19 20 20 20 20 20 19 13 5 2 10 7 5 5 2 2 4 3 2 1 4 5 5 9 14 12 14 16 19 20 22 19 24 12 10 8 7 8 9
14 14 15 16 17 19 20 20 21 20 19 18 12 6 1 5 5 7 7 6 4 5 4 3 5 4 7 5 5 7 10 12 11 14 14 14 18 6 17 9 10 9 10 9 11
14 12 15 17 19 20 19 21 20 20 18 14 6 1 4 15 4 8 11 13 9 10 4 11 6 2 6 10 4 9 12 15 17 7 9 2 17 19 7 9 15 11 9 11 11
14 13 15 17 19 20 20 21 20 20 17 9 3 1 8 9 15 14 8 10 11 12 17 17 15 3 4 4 8 7 6 5 3 3 6 9 22 25 7 8 12 13 17 17 18
16 14 15 16 18 18 18 19 24 23 12 4 2 3 10 14 5 10 7 2 5 3 8 9 6 5 1 3 6 2 13 11 23 2 6 8 14 19 8 11 17 17 17 18 20
16 15 14 16 16 17 18 20 4 2 5 3 2 2 8 3 3 3 2 7 4 4 6 4 4 1 3 4 9 1 6 7 14 12 8 18 20 21 21 14 17 15 17 16 16
16 14 14 13 13 11 18 2 4 1 4 8 6 5 4 5 5 4 9 7 3 2 4 4 3 5 6 9 13 13 16 19 24 25 19 21 24 20 21 10 14 16 13 11 12
15 12 13 12 8 7 8 1 2 1 7 11 18 17 24 16 9 14 8 4 5 5 2 3 8 10 10 8 12 15 18 23 21 22 20 22 25 23 14 13 13 11 10 10 8
12 11 9 9 6 4 5 4 3 4 1 7 6 6 6 11 5 5 2 1 4 4 6 8 4 8 8 9 9 13 19 20 22 24 22 16 22 18 18 7 11 14 13 11 14
11 9 6 7 3 3 4 4 1 1 1 4 3 3 2 3 3 2 4 1 3 3 7 12 7 8 10 15 11 16 13 13 18 18 16 6 18 22 10 14 17 17 15 19 17
10 7 5 2 3 2 3 8 4 1 4 7 6 2 2 5 6 4 15 3 3 11 3 14 15 12 16 16 17 20 10 15 19 19 8 20 12 18 8 16 14 11 14 18 8
10 8 5 4 3 2 5 3 0 1 5 2 6 7 5 5 7 3 7 8 5 6 7 17 5 6 9 8 9 11 12 15 14 2 8 15 15 25 15 16 16 6 16 17 12
10 8 6 6 5 3 3 2 1 3 6 5 6 5 4 6 5 7 7 6 3 7 7 10 7 6 7 5 5 2 4 7 4 5 12 12 12 15 13 17 12 12 19 16 12
10 9 7 5 1 4 3 2 3 4 4 5 3 3 2 9 5 10 9 6 8 4 4 4 7 4 6 1 7 11 5 5 8 4 5 9 5 2 12 15 16 15 16 17 18
10 8 5 6 3 2 4 2 1 1 3 4 2 2 3 9 3 5 5 6 1 2 3 4 5 15 17 16 3 2 9 15 10 8 7 5 5 5 12 19 20 19 18 17 16
10 6 5 4 4 3 3 2 3 4 1 3 3 3 4 5 4 5 2 6 8 5 4 3 12 8 12 9 10 10 5 3 1 4 7 7 2 3 13 15 13 17 18 16 17
7 3 6 6 4 3 3 3 6 3 3 2 1 3 5 5 3 2 5 10 9 5 4 3 5 8 9 6 4 3 1 4 3 3 4 3 3 5 6 14 14 17 17 17 18
5 3 8 6 2 2 3 4 2 2 1 3 2 2 2 5 4 5 7 5 5 2 5 1 4 7 14 23 16 13 6 4 3 4 6 2 4 6 14 15 14 16 18 15 14
4 3 3 2 3 0 1 2 3 5 4 4 3 5 3 3 3 4 4 5 4 1 3 2 3 6 12 2 8 4 2 2 6 2 2 2 4 10 12 15 16 18 16 14 16
3 3 2 1 1 4 3 2 3 4 2 4 3 2 2 2 4 5 10 8 1 6 10 6 6 10 10 10 7 6 12 11 4 2 5 5 6 14 16 17 19 19 18 17 18
2 3 4 2 1 5 4 2 2 2 3 4 3 3 3 4 8 6 4 5 5 6 4 4 7 12 19 21 15 14 13 13 16 7 5 4 10 13 14 15 17 16 17 19 20
3 3 3 3 4 5 3 2 4 2 3 2 3 6 6 5 8 11 10 2 6 2 2 4 5 9 19 20 11 5 12 9 18 15 10 9 10 13 14 15 17 17 18 18 19
2 2 4 5 4 4 3 5 5 6 3 5 5 3 10 12 11 14 13 12 13 6 4 5 4 5 13 14 11 11 11 14 22 20 7 8 6 11 13 16 16 16 16 17 17

GFSSW_925_spd_105.txt.gz
Wind_Speed
11 13 13 13 13 14 16 16 17 17 18 19 21 23 23 26 28 21 7 8 2 4 7 5 4 4 3 2 4 4 2 3 4 5 4 6 5 4 3 4 5 5 4 7 7
14 13 13 14 15 15 17 17 17 18 17 19 20 21 22 24 25 15 5 6 10 2 2 2 2 2 1 3 3 5 4 8 6 4 4 5 4 11 4 5 4 8 8 17 13
14 14 14 14 16 17 19 17 18 17 18 19 21 22 21 18 6 5 5 9 9 5 3 2 2 1 2 2 3 4 7 5 4 6 6 4 9 6 8 15 7 10 6 9 5
17 15 16 16 16 17 18 19 19 18 17 17 19 19 15 7 4 4 3 5 5 3 2 2 2 3 2 4 4 5 8 7 3 5 6 11 8 13 12 10 8 11 8 5 9
19 17 17 17 16 16 17 17 16 18 18 16 17 13 5 2 9 5 2 5 3 2 2 1 1 2 3 3 5 5 7 9 12 12 12 13 17 18 18 16 10 12 9 9 9
21 18 17 17 16 16 18 17 16 16 16 14 12 7 1 4 4 7 6 5 5 5 4 4 3 1 4 3 1 5 8 9 7 8 5 10 18 6 5 10 10 9 11 10 11
20 18 17 17 16 17 19 17 16 17 14 13 8 1 4 15 3 8 3 10 11 8 3 5 4 2 1 7 2 5 10 14 11 4 6 7 22 14 7 9 11 10 11 11 12
21 19 17 16 18 20 20 20 17 17 16 13 3 3 7 8 11 14 15 10 9 13 12 13 4 3 3 3 8 7 5 6 4 8 5 1 17 8 8 7 12 13 15 13 13
21 19 17 15 16 20 19 20 20 21 15 6 5 2 10 8 7 5 10 6 6 8 3 3 3 5 2 2 4 4 8 10 7 6 4 3 15 10 13 16 21 19 14 13 17
23 19 17 14 16 17 17 18 7 4 10 9 1 1 7 1 2 2 3 3 3 1 4 3 4 3 3 3 5 3 5 7 9 5 14 17 17 27 21 18 20 19 19 18 18
21 19 17 15 12 10 13 2 3 2 5 9 6 4 5 8 2 2 8 7 1 4 3 2 2 5 8 8 7 5 9 17 17 14 14 14 20 20 25 22 21 16 17 18 16
22 21 16 14 8 5 5 1 2 2 6 9 11 12 17 8 6 12 3 5 5 6 2 2 5 10 6 5 7 9 12 14 17 10 10 19 24 23 20 19 23 22 19 17 12
25 20 14 11 7 3 4 3 1 3 1 6 5 5 5 11 6 5 2 4 4 2 4 6 4 2 5 5 5 7 6 7 11 17 13 15 21 19 17 15 15 22 13 9 10
23 18 12 8 3 5 3 3 2 3 3 4 4 5 5 2 1 2 2 3 1 5 3 4 3 2 5 5 4 16 5 10 13 9 15 1 22 18 19 22 19 21 5 8 13
21 15 13 10 5 8 4 1 1 2 3 4 4 3 5 5 2 3 9 4 3 5 2 5 5 6 7 7 8 18 8 8 8 13 16 20 13 23 15 19 18 1 7 9 12
18 15 10 8 6 7 5 5 4 3 6 3 4 5 2 5 4 8 5 5 3 2 2 3 3 2 4 4 5 9 8 14 10 9 14 21 10 26 9 14 9 7 10 10 14
17 15 12 9 4 7 5 4 3 4 4 2 3 2 4 5 4 5 5 5 3 7 4 6 3 4 2 4 4 2 3 3 3 6 14 11 10 18 14 9 10 10 9 9 15
20 14 9 9 7 8 7 3 4 3 4 3 2 3 4 5 3 6 3 5 3 2 4 4 6 1 5 2 6 11 6 4 7 5 6 5 5 4 13 13 15 15 14 15 16
17 13 6 10 8 8 3 3 3 2 3 2 2 3 2 1 1 4 2 2 2 3 2 4 4 13 13 13 4 3 5 8 9 13 8 5 10 1 17 15 18 19 19 18 18
15 9 6 10 7 5 4 2 3 3 4 2 1 2 2 2 1 3 2 3 3 4 3 4 13 8 11 3 7 12 6 1 4 3 4 4 6 9 14 17 16 16 13 15 16
9 3 8 9 7 3 3 4 3 4 3 2 2 1 2 2 2 1 3 5 3 3 3 2 4 6 6 7 7 2 5 7 4 3 2 1 4 4 8 12 15 15 16 14 17
6 3 11 10 2 2 3 4 4 4 3 2 2 1 2 2 3 4 6 6 4 1 4 3 2 6 11 18 16 11 8 6 3 4 4 1 3 5 8 13 14 16 17 17 16
3 3 3 4 3 1 2 4 4 3 2 2 2 3 2 2 2 5 5 4 4 3 4 3 2 5 10 5 7 3 2 11 3 2 3 3 3 7 10 13 14 14 15 15 18
3 3 1 1 1 4 5 3 4 2 3 2 0 2 0 3 5 4 3 4 2 4 15 4 4 8 9 12 9 9 14 19 11 3 5 4 3 11 13 14 14 16 16 17 17
2 2 4 3 2 4 4 2 4 3 2 2 2 3 3 3 3 5 6 3 4 6 2 5 7 11 17 19 18 13 11 14 5 5 4 5 6 8 12 12 13 13 15 16 19
3 4 3 2 4 6 3 5 5 2 4 3 3 4 3 5 6 5 6 3 5 3 4 2 4 6 18 15 2 14 19 17 11 12 10 12 8 8 10 12 16 16 16 17 17
2 3 4 5 4 4 4 6 7 5 3 5 5 1 4 10 13 16 14 10 11 5 4 4 3 3 5 14 11 10 10 14 11 16 9 5 6 7 12 15 15 15 15 15 15

GFSSW_925_spd_108.txt.gz
Wind_Speed
15 14 13 12 11 11 12 12 14 15 15 17 19 21 22 23 25 17 6 5 2 5 10 3 1 2 3 2 3 4 1 2 4 5 4 3 4 3 1 4 4 5 5 7 13
18 16 15 14 14 12 14 14 15 15 15 16 18 21 22 22 21 10 3 6 9 6 5 4 2 5 2 2 1 4 3 8 6 4 4 3 4 8 4 5 5 10 7 17 4
20 18 16 15 15 14 15 15 16 16 15 16 18 21 20 17 5 3 6 6 11 5 2 2 2 2 3 3 4 4 5 5 4 5 4 4 7 4 5 8 7 13 10 11 2
21 19 18 17 16 14 15 17 16 16 16 15 17 18 15 8 5 2 3 9 8 6 4 4 3 2 3 4 1 2 6 4 4 4 6 10 4 7 7 9 10 11 10 7 16
23 21 20 18 16 16 15 16 18 16 15 15 15 15 6 3 9 3 1 5 5 3 3 4 3 3 2 2 3 5 4 3 6 9 7 9 8 9 9 13 10 10 12 11 12
25 22 20 19 16 16 15 17 17 16 15 13 13 11 2 4 4 5 5 5 4 4 3 4 4 4 2 3 2 2 4 7 6 8 7 9 10 5 8 6 10 8 11 10 10
25 23 21 19 15 16 18 17 16 15 15 10 9 5 2 14 3 6 7 2 6 6 2 4 2 2 1 6 2 4 6 5 5 1 4 5 2 6 5 8 8 10 10 10 10
26 26 21 19 16 15 19 20 16 16 16 15 5 2 7 7 7 11 15 11 9 11 11 9 6 4 3 3 8 5 1 1 1 8 5 1 6 6 4 16 16 10 10 14 11
28 27 21 19 16 15 18 17 17 14 9 5 6 3 9 8 6 5 13 6 7 5 7 3 6 3 3 3 5 4 4 2 4 3 5 7 20 4 18 11 14 13 9 10 15
31 27 20 17 15 15 16 12 3 4 9 10 3 2 6 2 3 3 8 1 2 3 1 4 4 3 3 3 4 4 5 4 2 5 7 8 24 21 4 8 18 17 13 12 13
34 27 19 15 13 13 12 1 1 1 5 8 5 4 4 9 3 3 1 3 3 4 5 2 3 5 9 8 5 4 5 11 6 6 6 8 18 27 13 8 14 14 15 14 14
33 25 20 14 10 11 6 3 2 1 6 8 10 8 7 2 4 5 4 3 4 4 3 3 4 9 3 3 5 6 8 8 8 5 4 8 21 22 20 7 9 17 18 15 13
33 23 16 11 9 9 7 4 2 0 1 6 5 4 4 10 7 5 7 3 4 6 5 5 4 4 4 2 4 4 5 5 14 5 8 10 17 9 12 19 13 14 18 6 3
30 21 14 9 3 6 4 6 4 2 3 4 4 4 5 4 3 1 7 3 1 5 4 4 1 2 3 4 5 7 8 9 10 8 9 5 14 32 9 15 17 24 21 5 6
26 23 19 14 1 4 3 6 5 2 3 3 4 1 3 2 3 9 6 3 4 3 4 3 3 5 3 4 2 4 6 8 7 6 8 15 8 12 19 23 13 10 10 10 12
30 25 18 11 8 6 6 5 1 1 7 2 3 3 5 6 4 5 5 6 2 2 1 3 2 4 7 5 5 8 5 7 7 2 9 18 10 15 6 11 18 11 13 14 15
29 22 19 15 6 12 9 2 2 4 2 2 2 3 5 4 3 5 4 4 2 4 2 4 4 1 4 2 4 5 6 3 4 1 6 6 7 5 9 10 12 16 19 17 16
27 23 17 12 11 14 8 3 6 3 3 1 3 6 4 4 2 2 2 2 3 5 1 1 3 1 3 3 4 2 6 3 5 2 5 11 6 2 8 11 13 13 13 16 18
27 22 11 15 13 15 4 2 4 2 4 5 3 4 3 1 2 2 1 2 4 4 2 3 4 5 13 12 6 1 5 7 6 10 6 4 3 7 9 13 17 15 15 15 18
20 11 8 17 15 9 3 4 3 2 4 2 3 3 4 3 1 2 2 4 2 2 6 2 6 8 9 2 5 8 3 2 2 3 5 5 2 4 12 16 16 16 15 17 18
16 4 11 17 13 3 3 5 3 3 3 2 2 3 3 4 3 3 3 2 3 2 3 1 3 5 3 6 5 2 3 5 4 4 3 2 1 5 9 12 13 14 15 14 16
7 4 14 18 3 2 3 5 4 5 4 3 3 3 4 4 4 4 5 5 5 4 1 2 2 5 7 10 12 7 4 3 1 2 4 2 2 6 8 10 13 15 17 17 14
4 3 4 3 4 3 2 3 3 3 2 2 3 2 2 4 2 5 2 3 4 3 3 3 0 4 7 4 0 3 1 3 5 6 5 3 1 7 10 12 13 15 16 16 17
4 4 1 1 1 4 5 4 4 4 3 3 3 3 3 3 3 2 3 2 2 4 7 1 5 7 6 9 9 8 12 12 14 4 3 2 4 10 11 13 15 16 15 15 16
2 4 5 5 3 4 3 3 5 4 2 2 1 3 4 2 3 4 2 3 3 4 2 7 6 8 15 17 13 5 6 14 5 4 3 6 6 8 8 11 13 12 15 17 18
4 4 3 3 7 7 3 6 5 4 5 3 3 5 5 5 5 4 2 3 6 3 5 4 2 1 13 12 4 4 10 8 11 9 10 12 7 6 8 9 12 15 16 17 17
2 2 4 2 4 5 5 6 5 6 2 4 5 3 4 10 10 11 10 7 5 3 3 3 3 2 2 18 8 5 6 9 9 15 5 4 5 5 8 12 14 14 15 16 16

GFSSW_925_spd_111.txt.gz
Wind_Speed
16 14 11 11 11 13 14 15 15 17 16 18 21 20 22 22 23 15 5 4 1 5 10 9 5 6 5 3 3 3 2 4 7 7 4 1 3 3 4 7 6 3 5 14 23
16 15 13 11 11 12 13 14 16 15 16 16 19 23 23 20 18 8 3 3 3 6 8 8 4 6 3 4 3 4 3 9 5 5 3 3 4 8 7 16 17 18 9 15 17
17 15 15 11 11 13 14 15 16 17 16 16 17 20 23 17 5 2 6 6 9 7 4 3 6 3 3 3 5 5 5 6 5 8 5 10 14 9 14 15 13 17 17 14 15
20 17 17 14 14 13 14 15 16 16 15 17 17 18 19 7 5 1 5 9 7 6 5 6 3 4 3 4 3 4 7 5 3 3 3 5 5 10 13 16 15 15 16 11 14
23 21 17 17 16 15 13 14 15 16 14 14 15 17 7 3 7 1 2 5 6 6 3 3 3 3 3 3 0 4 4 4 5 11 8 11 14 13 11 16 14 9 10 12 12
27 23 21 17 17 17 14 13 16 16 13 13 12 12 4 5 4 4 4 6 5 5 5 5 4 4 2 2 3 2 4 9 7 10 10 11 10 5 7 6 7 8 11 11 10
30 26 23 18 16 17 16 14 16 15 15 11 8 6 3 14 5 5 6 6 6 6 3 3 4 2 3 2 1 2 6 8 9 0 2 5 7 6 4 10 16 16 17 14 13
32 28 23 19 16 16 16 16 16 15 16 14 7 2 8 7 8 9 11 9 7 9 7 3 5 3 2 1 3 3 1 4 1 7 3 3 9 8 3 15 16 16 14 17 18
34 30 25 19 15 14 15 18 15 10 9 4 6 4 9 7 6 4 13 6 5 5 5 5 3 1 2 1 3 1 4 3 5 5 5 5 11 12 14 12 13 16 17 15 16
35 32 27 19 13 10 14 14 4 2 7 8 3 3 6 2 2 2 7 7 3 4 3 2 3 2 2 3 6 4 5 3 6 4 14 17 24 11 9 13 17 16 15 16 18
35 30 25 18 12 7 12 1 1 1 4 7 4 4 3 5 2 3 4 2 3 3 6 1 3 8 11 11 3 3 5 10 9 12 10 11 27 22 12 14 15 15 17 19 20
37 29 25 19 9 5 7 2 2 2 7 12 12 8 5 2 3 2 1 2 4 7 5 2 9 10 4 4 5 5 7 8 8 4 9 16 30 27 13 7 14 17 17 21 24
38 31 26 17 11 5 5 4 3 4 3 6 5 5 5 10 5 5 7 3 5 7 9 8 2 4 6 3 4 4 5 6 11 8 11 16 22 6 9 10 9 12 14 16 16
38 33 27 19 9 8 4 3 3 2 2 5 4 5 5 5 3 2 1 4 2 9 7 5 1 4 5 4 5 7 9 10 7 7 7 4 12 21 2 11 14 14 15 15 17
38 36 27 19 16 7 13 9 7 4 3 3 2 2 3 3 4 5 4 1 4 4 4 2 6 3 4 4 4 5 5 8 8 9 10 12 6 13 18 7 12 13 15 16 17
43 34 28 20 12 11 18 15 6 3 8 2 2 0 4 5 2 4 4 6 2 2 3 0 2 3 3 2 2 3 5 7 8 5 7 6 9 11 5 5 8 13 14 15 17
39 33 30 20 9 19 14 7 3 5 2 2 2 2 5 2 3 3 3 3 2 2 2 2 3 1 1 3 3 3 4 3 4 5 6 2 8 6 3 7 9 12 14 16 18
38 34 21 13 21 25 13 2 7 5 4 2 4 4 4 1 2 3 2 3 3 3 2 3 3 5 1 2 1 3 3 4 5 3 4 12 8 2 5 7 11 13 14 16 18
37 23 19 15 23 20 3 5 6 4 4 9 3 3 2 1 4 2 1 4 5 5 4 4 5 3 6 2 4 3 7 6 12 13 9 6 2 5 7 11 14 15 17 18 19
23 12 11 19 17 11 1 8 4 2 3 2 5 3 6 5 4 3 4 4 4 4 3 1 4 7 6 3 6 13 1 3 4 3 5 5 9 3 13 16 16 17 17 18 18
17 4 15 23 17 4 5 5 3 3 2 3 4 3 3 4 5 5 3 1 2 4 2 3 4 2 4 6 4 3 4 6 4 6 4 4 1 6 8 10 13 14 15 16 17
7 4 27 28 5 3 5 6 5 5 3 2 3 4 5 7 6 5 5 2 3 4 3 2 2 4 8 8 7 9 4 3 2 2 3 5 3 8 8 9 11 13 14 16 14
4 4 12 7 5 6 3 3 2 4 4 4 3 3 2 5 3 5 2 2 4 4 4 5 2 4 2 4 2 3 4 4 6 7 12 5 2 7 8 10 12 14 16 16 17
5 5 2 3 2 12 6 5 5 3 3 3 4 4 4 3 1 2 4 1 1 5 7 3 4 5 6 6 5 5 7 11 8 6 8 2 4 8 11 13 14 15 16 16 17
3 5 7 12 6 5 4 6 7 5 2 3 2 4 5 4 4 4 3 2 2 3 4 6 6 9 14 16 12 8 4 3 7 16 7 6 5 7 9 10 12 13 15 18 19
4 5 4 12 7 7 6 7 9 5 6 4 4 9 6 5 6 7 6 4 4 3 6 5 3 1 5 11 6 7 7 2 8 7 10 12 8 5 6 8 13 15 16 17 18
2 5 7 11 7 7 7 8 7 8 1 6 8 6 7 11 9 8 7 6 5 4 5 3 2 1 4 14 10 4 5 4 3 11 2 2 6 5 8 12 13 14 14 15 16

GFSSW_925_spd_114.txt.gz
Wind_Speed
11 10 10 9 9 11 11 13 14 17 17 18 19 21 23 24 24 10 10 3 1 5 9 9 6 7 5 5 4 3 7 12 14 12 12 4 8 5 4 9 7 6 9 13 19
12 11 10 9 9 11 12 13 15 16 16 16 17 19 22 24 16 12 4 4 3 8 9 12 9 9 5 5 5 9 10 12 7 11 12 10 12 12 9 13 13 15 13 13 16
14 13 12 11 10 10 12 13 15 15 16 16 17 18 20 19 9 4 6 6 7 7 4 5 7 7 7 5 9 6 13 10 9 13 10 13 15 16 17 17 15 14 16 13 14
17 17 14 13 12 11 11 14 16 15 15 16 17 17 18 5 6 4 5 8 5 4 5 6 6 7 7 10 7 10 12 11 9 8 11 14 14 17 16 18 15 14 14 11 11
21 20 18 17 14 13 12 12 14 16 14 14 15 15 8 7 7 1 2 3 3 4 7 7 8 6 9 5 7 13 11 9 11 12 13 14 16 18 20 17 14 5 7 8 9
25 24 22 17 15 14 12 12 13 17 14 13 13 13 6 11 1 3 3 5 7 7 6 7 6 5 5 6 9 2 7 10 11 15 15 16 17 13 8 2 4 3 6 9 11
28 26 25 19 17 14 12 11 14 16 15 13 11 8 9 13 3 3 4 6 7 8 6 4 4 6 1 5 4 7 12 13 13 11 8 6 12 12 8 5 7 9 10 11 12
30 29 26 22 18 14 11 11 13 15 14 13 9 4 8 5 5 7 9 9 9 8 7 3 4 6 7 1 5 9 7 10 6 4 4 5 13 4 7 7 13 17 15 14 15
32 31 29 23 19 13 10 10 11 10 8 4 3 5 9 4 5 2 10 9 11 6 6 2 7 6 5 10 10 7 13 8 8 3 6 6 11 4 9 14 17 16 18 16 13
30 30 29 25 18 14 8 9 4 1 4 5 2 5 7 2 1 2 5 9 9 6 6 8 6 10 8 10 12 12 9 10 11 5 13 19 21 17 8 16 17 17 19 14 15
28 27 30 24 19 12 7 2 4 5 5 7 2 4 4 3 2 6 7 9 8 10 13 10 10 14 14 11 12 11 13 16 14 12 15 16 19 18 18 18 20 17 14 13 14
20 28 30 24 19 12 7 3 1 3 9 14 18 17 15 3 4 9 7 9 10 14 12 8 16 14 8 10 12 13 15 16 12 6 12 20 30 21 20 10 7 11 10 11 13
25 29 33 26 18 11 8 7 3 5 5 6 11 9 8 13 10 11 9 11 10 15 15 18 9 1 9 11 12 13 14 13 14 15 17 21 27 8 12 3 3 5 9 11 13
28 34 34 26 13 13 5 11 6 6 2 5 5 4 6 6 6 3 5 10 10 15 17 13 13 11 12 13 10 15 9 10 11 11 12 9 15 19 12 8 2 8 11 14 16
30 40 36 31 16 10 14 14 10 3 4 5 5 8 7 8 10 4 1 7 10 8 7 4 7 9 12 12 7 11 5 10 12 15 16 19 10 17 12 7 7 9 13 15 16
38 44 38 19 13 17 25 18 4 2 8 6 6 9 10 5 4 3 4 1 1 5 7 9 1 6 9 4 8 8 12 16 14 12 12 21 16 16 4 4 5 10 13 16 18
42 46 37 27 12 30 28 10 5 8 5 7 7 9 13 7 6 5 8 8 7 7 12 9 13 4 6 9 7 10 8 6 8 8 10 3 6 14 10 3 5 9 12 13 16
48 40 23 17 35 35 16 4 9 3 6 3 5 8 10 7 4 4 4 8 5 8 8 9 8 10 6 10 5 8 7 7 10 9 10 8 8 0 6 7 8 9 13 15 16
46 23 16 28 34 30 9 4 5 9 9 10 9 10 7 5 3 6 6 8 4 8 7 4 6 4 4 4 3 5 9 11 16 16 13 11 10 6 5 8 14 15 16 16 18
26 12 9 31 30 20 4 7 8 4 5 12 15 10 10 10 9 7 8 6 6 6 2 1 5 7 5 6 12 13 2 4 8 5 8 7 11 3 9 13 14 15 16 18 18
19 6 14 28 24 5 5 8 7 6 6 8 9 6 7 7 9 7 3 5 4 8 6 4 4 3 3 8 10 7 11 10 7 8 4 5 2 6 8 9 13 14 15 14 17
7 4 25 28 6 4 9 9 7 12 7 3 3 3 8 9 7 7 6 3 7 9 5 5 4 7 9 4 9 12 10 12 9 6 7 6 6 7 7 8 11 13 15 16 16
4 4 15 17 6 11 9 10 10 12 12 8 7 4 3 8 6 8 3 2 7 9 6 7 6 4 6 4 7 4 9 10 7 8 14 9 1 6 7 9 10 13 15 16 18
5 6 3 3 6 16 15 18 13 7 9 5 5 5 8 7 6 5 8 6 5 6 3 4 6 9 8 7 3 5 6 9 10 7 12 9 5 6 9 9 12 14 15 15 16
5 6 12 12 13 15 18 18 16 10 5 8 4 9 10 7 9 7 9 5 5 7 6 3 7 9 14 16 13 12 12 11 7 9 9 3 6 6 5 7 10 11 13 15 16
6 6 13 14 19 17 20 17 20 8 9 9 9 13 11 8 9 9 10 7 5 9 10 7 7 2 10 14 15 5 4 8 4 3 5 12 8 4 5 6 10 12 14 15 16
5 14 11 16 20 17 18 17 15 11 5 6 13 9 11 10 5 2 6 3 3 6 10 5 6 3 2 1 9 6 2 3 4 5 1 3 7 6 7 10 11 12 13 14 16

GFSSW_925_spd_117.txt.gz
Wind_Speed
10 10 9 8 8 9 10 12 14 16 16 18 19 21 21 26 28 17 14 4 3 7 6 6 8 8 10 12 7 10 12 14 17 16 15 10 5 12 3 9 13 6 10 11 17
12 11 10 9 9 9 10 11 14 15 16 17 18 20 22 25 23 19 2 10 6 7 7 9 8 8 10 9 6 10 12 20 14 15 12 13 13 12 13 12 13 12 14 10 13
14 14 12 11 10 10 11 11 13 14 14 16 17 20 22 20 13 6 3 2 5 8 7 7 9 8 13 10 12 13 16 20 17 9 13 16 16 14 16 17 16 14 13 13 12
17 16 16 14 12 11 12 12 13 13 15 16 16 18 20 8 7 4 2 7 7 3 5 5 8 11 11 14 13 17 17 16 18 14 13 14 15 16 18 17 17 13 12 10 12
20 19 19 17 15 12 12 12 13 13 12 16 16 15 10 7 9 3 1 4 4 6 9 8 9 11 15 12 11 14 17 18 14 15 15 15 17 19 20 19 17 15 7 10 8
24 23 22 20 17 14 13 12 13 13 13 14 15 12 8 9 2 2 4 6 10 9 11 9 10 10 12 16 15 16 13 16 15 16 16 18 19 19 19 10 9 8 10 6 8
25 25 24 23 20 17 14 12 13 13 13 13 15 8 9 13 4 6 6 9 9 10 10 7 7 9 6 12 8 11 18 18 18 18 16 5 16 23 17 12 10 10 11 8 11
25 28 27 24 22 19 15 13 13 14 13 11 12 8 7 5 6 10 11 11 11 11 10 4 7 11 12 12 12 18 19 18 16 4 9 7 15 17 6 8 11 11 13 13 14
26 28 27 24 21 19 15 11 12 13 9 7 5 10 9 2 5 3 9 13 11 12 11 7 11 14 12 11 15 16 17 19 14 14 7 11 15 10 6 11 14 16 17 15 14
24 23 24 23 20 19 13 9 10 7 1 4 9 7 7 2 1 4 6 10 9 11 11 13 9 13 13 12 15 18 17 16 12 11 13 16 21 19 18 20 14 18 17 14 14
23 23 24 22 19 19 10 2 6 6 11 9 7 12 8 3 4 7 7 10 13 12 16 15 14 15 17 17 17 16 18 21 21 17 20 19 22 21 18 21 21 19 18 13 7
22 22 23 22 22 17 9 3 7 5 10 17 19 18 20 6 8 10 9 10 14 16 17 15 17 17 18 14 13 16 20 22 22 20 12 19 24 23 24 26 20 10 3 9 9
18 18 23 25 20 15 9 7 3 2 8 13 18 17 14 16 13 15 15 15 16 16 18 20 16 7 7 15 15 18 19 20 21 19 21 22 30 23 15 5 7 7 4 5 10
19 24 29 28 14 9 5 11 5 3 5 13 7 5 8 9 8 22 12 15 15 18 16 18 17 16 19 16 15 20 14 17 14 15 17 20 21 26 22 24 12 7 6 9 12
21 30 30 26 14 10 8 14 9 3 6 6 8 10 10 12 7 8 8 14 20 18 11 17 11 11 15 17 14 16 12 10 16 18 20 30 14 26 19 13 14 6 8 11 13
25 30 32 17 13 12 21 18 7 3 11 7 8 9 12 13 7 7 10 9 5 13 14 16 2 8 12 11 8 12 11 16 18 17 17 25 20 22 5 9 7 7 9 12 15
33 36 37 25 9 27 26 11 3 7 3 8 7 11 14 8 10 10 11 13 9 10 14 18 17 13 4 14 12 11 13 11 13 12 16 20 12 8 9 10 11 13 16 16 17
34 36 27 24 26 33 25 3 8 11 22 2 3 10 15 9 10 10 9 13 10 10 9 10 12 15 11 14 15 15 14 12 19 15 17 21 9 4 11 10 11 11 12 14 16
40 18 18 22 41 37 7 5 8 16 15 8 9 12 13 8 5 11 15 14 11 12 8 8 12 3 3 8 6 7 14 12 17 18 16 17 20 12 9 11 13 13 13 15 16
24 10 5 38 41 18 3 8 13 9 6 14 17 15 15 16 11 9 10 5 8 5 3 4 8 11 8 5 13 14 10 6 7 6 12 11 14 3 9 11 13 13 14 15 16
15 4 10 29 25 3 5 12 14 10 11 12 16 14 14 11 14 14 6 6 5 9 7 7 7 6 4 10 15 12 12 13 13 11 9 10 2 4 6 8 11 13 16 14 15
7 4 21 34 6 3 12 11 9 12 12 8 8 12 10 10 11 12 10 6 8 5 6 9 5 11 16 11 9 14 16 15 11 13 7 13 7 5 5 6 9 12 13 14 15
4 4 12 18 7 14 13 17 11 14 17 12 10 9 7 10 8 10 4 5 5 9 6 6 7 7 8 7 10 9 14 14 9 9 15 9 2 5 5 8 10 11 13 14 16
5 5 2 3 4 14 20 16 17 16 14 12 10 8 10 8 9 5 9 6 8 11 6 2 8 9 11 10 5 5 7 9 12 11 14 12 2 5 7 8 10 11 12 14 15
4 6 11 11 12 13 17 15 21 12 14 14 10 16 13 11 13 11 9 8 7 9 6 8 10 10 15 16 15 13 12 12 11 15 10 7 2 4 6 7 9 10 12 14 16
6 6 12 10 20 19 19 16 23 19 17 20 12 14 12 14 11 7 13 11 8 12 13 12 7 7 11 16 15 15 15 13 9 8 5 2 4 5 7 6 8 10 12 14 16
11 12 13 15 22 17 19 20 23 17 13 15 14 12 13 12 6 2 6 11 6 9 13 10 5 6 7 3 4 7 9 8 3 3 5 9 8 8 7 8 9 10 11 13 14

GFSSW_925_spd_120.txt.gz
Wind_Speed
12 11 10 9 8 9 10 12 13 15 15 17 20 22 22 25 31 15 9 2 4 9 9 11 8 11 11 13 15 10 8 12 17 17 11 17 12 5 6 4 11 10 10 11 20
14 13 12 11 10 9 11 12 13 15 15 18 20 21 23 26 24 13 2 6 9 5 5 9 10 10 9 11 11 9 10 16 14 14 13 13 13 13 14 15 13 11 11 10 12
15 15 14 13 11 10 10 13 13 15 16 18 21 21 24 24 11 6 3 2 3 5 6 12 11 13 12 12 14 14 15 16 17 18 14 12 14 14 14 14 12 13 12 11 12
19 18 17 15 14 11 11 12 12 14 15 18 19 22 21 12 6 5 4 3 4 1 7 8 7 10 12 14 14 16 18 18 17 14 13 15 14 16 15 14 14 15 13 5 8
23 22 20 19 16 15 13 12 12 12 14 17 18 19 12 5 12 2 1 4 5 5 8 9 9 12 14 14 16 14 16 16 16 17 11 14 15 16 19 17 15 17 16 2 8
27 26 25 21 19 16 14 13 12 13 14 16 16 16 8 6 1 2 3 7 8 8 8 11 9 12 12 16 15 18 20 17 17 18 19 17 17 16 19 18 19 6 8 8 5
26 29 27 22 22 19 16 14 13 13 13 15 14 8 8 14 5 7 7 10 9 9 10 10 9 8 10 14 10 12 17 18 18 20 21 18 15 15 23 18 13 7 8 9 6
20 26 25 22 22 21 18 15 12 13 14 12 11 6 8 10 6 11 12 14 12 10 12 12 6 11 13 14 18 19 19 19 19 19 3 4 14 17 4 3 7 9 11 6 9
23 21 24 20 22 20 18 14 12 13 12 9 5 7 9 2 7 4 11 13 12 9 10 10 6 12 14 14 14 15 17 20 19 9 6 10 13 15 16 7 10 12 11 13 11
23 19 16 21 18 17 16 10 10 14 7 5 12 7 9 3 0 5 7 9 11 8 9 10 7 13 12 11 14 17 18 20 19 11 9 16 17 17 15 16 16 16 11 10 12
17 17 15 20 16 15 11 3 4 3 9 9 4 11 16 15 6 9 8 7 12 10 13 13 11 14 17 17 20 20 21 21 19 19 19 20 21 21 16 17 18 16 16 17 8
17 17 18 18 19 15 10 3 2 2 9 17 22 22 26 20 12 12 12 8 12 15 15 15 17 19 17 17 19 21 19 20 21 21 19 21 20 20 18 20 23 22 8 15 13
14 14 17 18 20 17 12 8 6 6 7 14 22 25 16 20 22 19 17 13 15 16 16 19 15 16 11 12 15 20 18 19 22 21 20 18 22 20 23 21 15 11 14 14 13
14 12 22 24 15 9 6 13 7 1 6 15 12 3 11 6 10 19 23 15 14 18 18 17 17 18 20 19 17 20 17 21 22 17 15 18 17 20 22 21 21 17 16 12 13
11 20 21 25 13 10 6 12 9 3 5 2 6 7 8 12 2 4 19 10 17 18 15 15 12 14 16 15 16 21 15 14 16 15 16 28 13 17 21 18 13 14 12 13 15
14 19 20 19 10 8 18 16 4 4 9 7 9 9 11 15 9 6 6 7 9 16 19 22 18 14 12 12 13 10 11 15 15 14 14 23 17 17 4 10 12 10 12 13 13
18 23 30 25 10 23 25 9 3 6 4 10 8 12 14 12 15 9 11 12 9 7 12 16 19 17 15 12 13 13 9 8 8 10 14 19 16 13 14 11 12 11 11 12 12
19 28 32 24 22 31 13 2 6 14 22 2 3 11 14 13 12 11 12 13 16 15 12 10 11 8 5 13 11 15 12 8 16 14 17 20 14 6 14 14 13 11 11 12 15
16 26 10 18 33 37 5 3 10 15 17 16 9 11 14 16 7 12 13 15 14 12 13 8 13 5 5 2 4 7 11 14 17 14 13 12 19 11 14 13 13 13 15 16 17
24 11 3 24 33 23 5 7 16 20 7 14 18 12 13 16 12 8 11 7 15 4 4 3 12 12 16 14 9 11 11 10 5 8 13 9 5 3 8 11 12 12 13 12 14
14 5 5 27 16 5 6 13 16 19 15 12 14 16 14 15 15 14 9 4 3 4 4 5 9 12 14 12 14 11 12 11 11 10 10 13 3 3 4 6 8 10 11 11 13
6 3 18 34 4 1 10 17 17 17 21 13 10 13 16 17 15 12 13 7 9 3 6 5 4 10 17 15 15 16 15 15 9 10 11 10 5 6 3 3 7 9 11 14 14
4 3 7 19 7 6 11 21 21 17 15 13 15 12 14 11 10 12 12 9 6 4 3 3 4 6 6 11 13 14 13 14 10 8 16 10 2 5 2 5 8 9 13 13 15
4 4 1 2 2 12 14 19 24 16 18 15 13 12 10 10 8 5 11 6 5 5 5 3 5 7 10 6 9 6 11 11 12 9 12 9 3 4 2 5 7 10 12 12 12
4 6 10 9 13 13 8 10 19 20 17 14 15 15 13 9 14 12 11 8 4 5 4 4 7 7 11 17 17 16 15 13 9 12 9 5 6 5 4 5 7 9 10 11 13
5 6 12 6 20 18 10 14 22 21 15 18 16 14 13 15 13 7 12 10 6 9 11 9 7 4 10 17 17 17 16 17 12 8 10 5 5 8 8 7 7 9 9 10 11
14 21 11 11 18 14 19 14 19 16 15 17 16 10 16 11 6 9 2 7 8 12 11 9 5 2 6 10 4 10 8 11 8 7 8 10 4 11 9 7 7 7 8 9 11